ECMWFNIL_sfc_temp_000.txt.gz
Temp
73 73 71 71 71 72 71 70 70 70 70 69 68 69 68 68 69 68 68 68 67 66 67 66 66 66 68 67 66 66 66 64 64 65 64 63 62 61 62 62 61 61
73 72 72 72 71 72 71 70 70 70 70 69 70 69 69 69 68 68 68 67 67 67 67 66 66 66 67 66 67 65 65 65 64 68 64 63 62 62 61 60 61 61
73 72 72 71 71 71 71 71 71 71 70 70 71 70 70 69 68 68 68 67 67 66 66 66 66 67 66 66 66 66 65 64 63 66 64 64 63 61 62 61 62 62
73 73 73 73 73 72 71 71 71 71 71 71 70 71 70 70 68 68 68 68 66 66 66 66 66 67 67 66 66 65 65 65 65 64 63 64 64 63 62 62 61 61
73 73 74 73 74 72 72 72 71 71 71 70 71 70 70 69 68 68 67 67 67 66 66 66 66 66 66 65 66 64 65 64 64 64 63 63 63 63 63 62 62 62
74 75 73 73 71 71 72 72 73 73 72 70 70 71 70 70 69 69 68 67 67 67 67 66 66 66 66 65 66 65 65 65 64 65 64 63 63 63 66 63 61 62
72 71 71 71 70 70 68 69 71 72 73 72 72 70 70 70 70 69 69 68 69 68 68 66 66 65 65 65 65 64 64 64 65 65 65 63 63 62 65 64 63 63
71 71 70 70 69 67 67 68 67 68 71 72 71 70 70 70 71 69 69 70 69 69 68 68 68 67 65 65 65 64 63 65 64 64 64 64 62 62 61 64 62 61
71 70 71 71 70 67 67 67 67 68 69 65 68 70 71 70 70 69 70 70 69 69 69 68 68 67 66 65 65 64 64 63 63 62 62 61 61 61 64 63 61 60
71 71 71 71 69 69 68 68 68 68 69 68 70 67 69 68 70 70 70 69 68 69 69 68 69 67 67 67 67 66 65 64 63 62 63 62 62 62 64 62 61 60
70 70 68 66 66 65 65 66 65 65 65 66 67 66 66 63 64 65 67 68 68 69 70 69 69 69 68 66 65 65 65 64 64 63 63 63 62 62 63 62 61 60
69 68 67 66 65 64 63 64 65 65 62 62 62 62 61 62 63 63 63 63 67 69 69 70 70 69 69 68 67 65 64 64 64 63 63 63 62 63 63 62 62 61
66 66 67 66 66 65 64 65 63 63 64 63 61 62 62 61 61 61 61 61 62 66 70 70 70 70 68 68 68 67 65 65 63 63 63 62 62 62 63 61 61 62
66 66 67 68 67 66 66 65 63 61 62 62 61 61 61 62 62 62 64 66 66 68 70 69 69 69 70 69 68 67 65 64 63 62 63 62 61 61 61 61 60 61
66 67 67 67 69 69 68 67 65 63 63 63 64 64 63 64 64 64 63 63 65 68 70 69 69 70 70 68 67 66 65 63 62 63 62 61 60 61 61 61 61 60
67 66 68 67 67 67 69 69 68 67 67 66 65 65 65 65 65 63 61 62 64 67 66 65 65 67 65 60 60 66 65 65 63 63 63 61 60 59 58 59 60 59
67 67 69 69 67 68 68 69 69 67 66 67 66 66 65 65 66 63 61 61 64 63 65 64 65 66 58 51 52 56 64 62 62 62 61 61 59 58 58 58 57 60
68 69 68 67 68 67 66 67 66 66 67 67 66 67 66 67 65 66 66 65 63 64 63 62 63 58 54 50 48 50 56 62 62 61 61 60 60 60 59 58 58 58
66 68 68 66 66 66 65 65 65 66 66 66 66 66 65 64 64 65 65 65 65 64 62 61 58 47 48 49 48 49 51 56 61 60 60 58 59 59 59 56 54 55
68 67 66 65 65 65 65 65 65 64 65 65 66 65 65 65 64 64 64 64 64 63 60 57 55 46 44 46 46 46 49 53 59 59 59 60 60 58 53 53 52 53
68 66 65 65 65 65 65 65 63 63 63 64 65 65 64 63 63 62 63 63 63 60 56 55 53 43 44 45 44 45 47 50 57 58 59 58 57 56 56 55 55 57
67 65 65 65 65 65 64 63 63 63 62 63 64 65 64 63 63 63 62 62 63 58 55 53 48 41 42 43 42 43 47 54 56 57 57 57 56 57 56 56 57 56
67 66 64 65 65 64 63 63 63 62 62 63 62 63 63 63 62 64 64 62 61 57 55 52 48 43 41 41 42 44 48 53 55 55 55 56 55 56 56 56 56 56
67 66 65 64 64 63 63 63 63 62 62 63 62 62 62 62 63 63 62 60 56 55 54 52 48 42 40 41 42 44 47 51 52 54 53 54 56 56 57 55 56 56
67 66 66 64 63 63 63 62 62 62 62 62 62 63 62 64 63 62 57 57 55 53 52 52 48 43 40 40 41 42 45 47 51 51 50 50 51 52 55 55 53 55
65 64 63 63 63 63 64 62 63 62 61 61 61 63 62 62 62 60 56 54 53 53 52 51 48 46 43 39 41 42 43 47 49 49 50 51 53 53 54 54 55 48

ECMWFNIL_sfc_temp_003.txt.gz
Temp
65 66 65 64 64 64 63 63 63 63 62 61 61 60 60 60 60 59 59 60 59 58 59 58 59 60 61 58 58 60 59 57 57 56 56 56 54 54 56 55 53 53
65 66 65 65 64 63 64 65 64 63 62 62 62 61 61 61 59 60 60 60 59 57 57 58 59 58 58 59 59 59 58 58 58 60 57 56 54 54 53 54 53 53
64 64 64 64 64 64 64 64 65 64 63 62 62 62 62 61 60 60 60 60 59 58 58 58 59 58 57 57 57 58 56 56 57 57 57 56 54 54 54 55 54 53
63 65 65 64 63 63 64 63 63 63 63 62 62 63 64 62 62 61 61 62 59 59 57 58 58 58 58 57 57 57 56 56 57 56 56 56 55 55 54 54 54 54
65 64 65 64 64 64 63 63 63 62 64 63 63 63 63 61 62 61 61 59 60 58 58 58 57 57 57 57 56 57 56 56 56 55 55 55 56 56 56 55 55 57
64 64 63 64 65 63 64 64 64 63 63 63 63 64 63 62 62 62 61 60 59 59 59 57 57 57 57 56 56 57 56 59 56 56 56 55 56 56 60 56 55 57
62 63 63 63 64 63 63 64 64 63 64 64 64 64 63 62 63 62 62 61 61 60 60 57 57 57 57 56 56 56 55 56 56 56 56 55 55 56 58 56 56 56
61 62 62 62 62 62 61 61 61 60 62 63 64 64 64 63 63 63 62 62 61 61 60 59 58 57 56 57 56 56 55 58 58 56 55 55 54 55 55 58 54 54
62 63 63 61 62 60 60 60 60 60 61 61 62 61 60 61 61 62 63 63 62 61 60 60 60 60 59 58 57 57 58 56 58 56 54 54 54 55 56 56 56 56
61 63 62 61 61 60 59 59 60 60 61 61 61 61 60 59 61 61 61 59 59 59 59 60 61 60 59 60 60 58 58 57 57 56 55 54 56 55 55 55 54 54
60 61 60 60 59 59 59 59 59 59 59 59 59 58 58 58 58 58 58 59 59 59 60 59 59 60 60 60 60 59 59 58 58 57 56 55 56 56 57 56 55 55
60 60 60 59 58 58 58 58 58 58 57 57 59 58 57 57 58 58 59 59 59 59 60 60 61 60 61 61 61 60 58 58 58 58 58 56 56 57 56 56 55 54
60 60 59 59 58 58 58 58 58 57 57 57 57 58 58 57 57 58 58 59 59 59 59 60 60 60 61 62 62 61 60 58 58 58 58 57 57 57 55 56 56 54
56 56 57 57 59 59 59 58 57 57 57 58 57 57 58 58 58 59 58 59 59 60 61 61 61 62 63 63 63 62 60 59 58 58 58 57 56 55 55 55 54 54
56 58 58 58 58 59 59 58 56 55 57 57 56 56 57 56 57 58 58 58 59 61 62 61 61 62 64 64 62 63 62 61 59 59 58 56 55 55 53 54 53 52
58 59 60 59 58 58 58 57 57 56 57 56 56 56 56 56 57 59 59 59 60 60 60 60 61 62 60 57 58 63 62 63 60 59 58 56 56 55 53 53 54 52
55 56 56 57 58 56 56 58 59 58 56 57 57 57 57 57 57 57 57 58 59 59 59 60 60 62 55 51 50 53 61 61 60 59 58 57 56 55 54 53 52 52
56 57 55 55 55 55 55 56 57 57 57 57 58 58 58 58 56 56 57 56 57 57 57 58 59 55 51 50 49 48 53 60 59 58 57 56 56 55 54 54 54 54
57 55 55 54 55 56 56 55 56 57 57 57 56 57 56 56 56 57 57 57 56 56 56 56 56 51 47 47 47 46 47 54 59 59 58 56 55 55 55 54 54 53
55 54 54 54 56 57 58 58 57 57 58 58 59 59 58 57 56 55 54 54 54 53 50 47 48 42 43 44 46 44 46 51 56 55 55 55 55 54 53 51 51 51
54 54 54 54 53 54 56 57 57 54 54 53 56 58 58 58 57 56 55 53 48 49 47 45 44 41 40 41 42 43 45 47 54 55 54 52 52 51 51 51 49 50
54 52 51 52 53 52 53 54 53 54 55 52 53 53 55 56 54 54 52 51 48 48 45 43 42 40 41 42 44 44 46 51 51 51 51 51 51 51 50 49 50 51
54 54 52 51 51 52 52 51 53 53 52 51 53 50 51 53 52 53 50 50 48 47 45 43 41 40 42 43 43 43 45 49 50 49 49 50 49 50 51 52 53 52
55 54 53 52 50 52 51 50 50 50 51 49 54 50 50 51 50 48 47 50 48 46 45 43 39 41 41 42 42 42 45 47 46 46 46 47 47 48 50 52 53 54
53 52 52 51 51 51 50 51 51 52 49 50 50 49 49 48 49 48 46 45 46 46 48 44 40 40 41 41 42 43 45 46 47 46 46 46 47 48 49 49 45 42
54 52 51 52 51 49 49 50 49 52 52 50 48 49 49 48 47 47 46 44 45 45 45 43 41 39 40 41 41 42 44 47 47 46 44 45 47 48 48 46 43 43

ECMWFNIL_sfc_temp_006.txt.gz
Temp
64 63 62 61 61 61 60 59 58 58 58 57 57 56 57 57 55 56 55 55 55 55 55 55 55 55 57 55 54 55 54 53 53 52 52 52 50 52 54 51 49 50
63 63 63 62 62 61 60 60 60 59 58 58 58 58 57 57 56 57 56 56 56 55 54 55 55 55 55 56 55 55 54 54 53 55 54 52 51 52 51 49 49 48
63 62 61 61 62 61 61 60 60 58 58 59 59 59 58 57 57 56 56 56 56 55 55 54 54 55 55 54 55 56 54 52 53 53 54 53 51 53 51 50 49 50
62 63 62 62 61 61 60 60 59 58 56 57 58 60 60 59 58 57 56 59 56 55 53 54 55 54 54 54 55 53 54 54 54 52 52 52 52 52 51 52 51 50
63 63 63 63 62 61 60 59 59 58 58 59 58 59 59 58 57 57 57 56 57 55 54 54 53 54 54 54 54 53 52 53 52 52 52 52 52 53 53 52 51 51
64 64 64 63 63 61 60 60 60 59 58 57 59 59 59 59 59 59 58 57 57 57 56 54 53 53 53 53 53 54 54 55 52 52 52 52 52 52 56 51 51 51
62 63 63 64 63 63 62 62 61 60 60 61 60 59 59 59 59 59 59 59 58 58 58 56 55 54 53 53 54 52 52 53 51 52 53 52 52 52 54 52 52 52
61 62 63 63 63 62 63 62 61 60 61 60 60 60 60 61 60 59 59 59 59 59 58 57 56 56 54 54 55 53 52 54 54 52 52 52 51 52 51 53 51 52
61 61 61 61 62 61 61 61 60 61 61 61 61 60 60 61 60 59 59 59 59 58 58 57 57 56 55 55 54 55 54 53 54 52 53 52 51 52 52 52 51 50
60 60 61 60 61 60 60 59 59 60 61 61 61 60 59 57 57 58 58 58 57 56 56 57 57 56 55 56 57 55 55 55 54 53 52 53 54 53 52 52 52 50
59 59 59 57 56 55 56 56 58 60 60 61 59 59 58 58 56 56 57 57 57 57 57 56 56 56 56 56 56 55 56 56 55 55 54 53 54 54 55 53 52 53
55 55 55 55 57 57 57 57 55 56 56 57 59 58 56 56 57 57 58 57 57 57 58 58 58 58 58 58 57 56 56 55 55 55 55 55 53 53 54 54 54 53
55 54 55 56 57 58 58 57 56 56 56 55 55 55 55 54 54 55 56 56 56 56 57 57 57 57 57 57 58 57 56 55 54 54 55 55 54 54 54 53 54 54
55 55 55 56 56 56 56 56 56 56 55 55 55 55 56 55 55 55 55 55 56 57 57 57 56 55 56 56 57 57 56 57 57 56 55 55 54 54 54 53 53 53
54 55 56 57 57 57 56 55 55 56 56 56 55 55 55 54 55 56 56 56 56 55 55 55 55 56 57 57 57 58 58 57 58 57 57 56 55 54 53 53 53 52
54 55 56 56 56 56 57 57 56 56 56 56 57 57 57 56 56 57 57 58 58 55 53 54 55 55 56 54 55 58 57 59 58 58 58 57 56 55 53 52 53 52
53 54 53 55 55 54 55 55 55 55 54 55 55 56 56 56 56 55 54 55 55 53 52 53 54 56 52 49 47 48 55 55 56 56 57 56 56 56 54 53 52 52
53 53 53 52 53 54 55 55 54 53 52 52 52 53 54 54 54 54 54 52 53 52 51 52 52 52 46 45 45 44 46 53 56 56 55 55 56 55 54 53 52 51
52 53 53 52 53 52 50 49 49 50 50 51 51 53 51 52 52 51 51 51 51 51 50 51 51 41 41 45 46 45 44 46 53 55 55 55 55 53 53 54 53 50
51 51 51 50 50 49 48 48 49 50 50 50 50 51 51 50 49 50 51 50 50 50 51 44 43 43 41 45 46 45 44 44 52 53 54 53 52 52 54 53 50 50
51 50 50 49 48 48 47 46 47 47 49 47 48 48 47 48 49 49 48 49 48 45 43 41 43 41 41 41 42 42 42 46 50 50 49 49 49 50 50 49 49 49
51 48 48 47 47 46 47 47 45 46 50 48 45 45 46 49 49 46 46 44 44 43 41 39 41 41 41 41 42 42 43 46 46 46 46 46 47 48 49 49 49 49
50 50 49 47 47 48 47 48 50 51 50 47 49 43 44 44 45 44 45 45 43 41 40 38 40 42 41 42 42 43 44 46 45 45 45 46 46 46 46 47 48 49
49 51 50 48 46 48 47 46 44 45 46 45 51 49 46 44 44 43 44 44 44 41 42 41 40 42 41 41 42 43 45 45 45 44 43 44 44 44 46 45 46 50
48 49 49 48 48 47 45 45 45 46 47 44 44 43 45 42 42 42 41 41 41 41 46 42 39 41 41 41 42 43 44 43 44 43 42 42 44 44 44 42 43 43
45 48 47 47 49 46 44 47 45 45 47 45 41 43 42 40 41 41 40 39 40 41 41 39 40 39 39 40 41 42 43 44 44 44 42 41 43 44 42 41 42 43

ECMWFNIL_sfc_temp_009.txt.gz
Temp
61 61 61 59 58 58 57 55 54 55 54 53 53 54 53 54 52 52 52 52 52 52 52 52 52 53 54 52 52 53 52 51 50 49 50 50 49 50 51 48 47 48
60 61 61 60 58 58 57 57 55 56 55 54 54 53 53 53 52 53 53 53 53 52 51 52 52 52 52 53 52 52 51 51 51 52 51 50 49 50 49 48 47 46
59 59 60 59 59 57 57 56 56 55 55 54 53 53 55 53 53 52 54 54 53 52 52 52 52 52 52 51 51 53 52 50 51 49 52 50 49 51 48 48 47 48
59 59 61 60 60 59 57 56 54 55 54 55 54 54 53 55 53 53 53 57 53 53 52 52 53 52 52 52 52 51 51 51 51 49 50 49 49 49 48 48 49 48
61 61 61 61 60 60 58 57 56 55 56 56 54 53 55 54 52 53 54 54 54 52 52 53 52 53 52 52 52 52 51 51 50 51 51 50 49 50 49 50 48 49
61 61 61 61 60 59 59 58 58 57 56 54 55 55 53 54 53 53 54 53 53 53 52 52 52 52 52 51 51 53 52 52 51 50 51 51 49 50 52 49 48 49
61 61 61 61 60 60 60 60 58 58 57 57 55 55 54 53 53 53 53 53 53 53 53 52 52 51 50 52 52 51 52 52 50 51 52 49 50 49 50 48 49 49
59 60 61 60 60 60 60 60 59 58 57 55 56 56 55 56 55 53 54 53 53 53 52 52 53 53 51 52 53 52 51 52 52 51 51 50 50 51 49 51 49 49
58 58 58 58 58 58 58 58 58 58 59 58 57 56 55 56 56 55 54 53 53 54 53 52 53 53 51 52 52 52 51 51 51 51 52 51 51 51 52 49 48 49
56 57 59 57 57 56 56 55 56 57 58 58 58 56 56 54 55 54 54 53 53 53 52 53 53 53 52 51 53 53 52 52 50 50 51 52 53 52 51 50 51 49
55 56 56 56 55 54 53 53 54 54 55 54 54 54 54 55 55 55 55 54 55 55 54 53 54 53 53 52 52 52 53 53 52 51 51 51 52 53 53 52 51 51
54 54 54 54 54 53 52 53 54 55 55 54 54 54 53 54 54 54 54 54 53 54 53 54 53 53 53 52 53 54 54 53 53 52 52 51 51 51 53 52 52 51
53 54 54 54 54 54 55 55 55 55 56 55 55 55 54 54 55 54 54 54 54 54 54 55 55 54 52 52 53 53 53 53 51 51 51 51 52 52 53 53 52 52
53 54 55 55 55 56 55 55 55 55 54 54 55 55 55 56 55 55 55 55 55 54 55 55 55 55 53 52 52 52 51 51 50 50 50 50 50 51 51 52 53 53
54 54 55 56 56 56 56 56 55 55 55 55 55 55 55 55 55 56 56 56 56 56 56 55 55 55 55 54 53 52 52 52 52 52 52 52 52 52 52 52 52 52
55 55 56 55 55 56 56 56 55 55 55 55 56 55 55 55 55 55 55 55 56 56 55 55 55 54 54 51 51 53 51 53 52 52 52 52 52 52 51 51 52 52
54 55 56 55 56 56 55 55 55 54 54 54 55 55 55 55 55 55 55 55 56 55 54 54 54 54 48 45 47 46 50 51 52 52 51 52 52 52 52 52 51 51
53 53 53 53 53 52 53 54 54 54 54 55 55 54 55 54 54 54 55 54 54 53 52 53 52 47 43 46 45 44 46 50 51 52 52 51 52 52 52 52 51 50
51 52 51 50 51 52 52 53 53 53 53 53 53 53 51 52 53 52 53 52 52 52 52 50 49 44 42 44 44 44 44 45 49 50 51 51 51 51 50 51 50 49
48 48 49 50 50 50 50 52 52 52 51 50 51 50 51 51 50 51 51 50 51 50 48 44 43 44 41 42 43 43 42 43 45 46 47 48 49 49 49 48 47 48
47 46 47 46 46 46 46 47 49 47 48 48 49 49 50 49 49 49 48 48 47 45 43 42 43 42 41 42 42 42 42 42 44 44 42 42 44 45 45 45 45 47
46 44 45 44 44 44 46 45 45 46 46 44 43 42 42 43 42 43 45 44 43 42 42 40 41 41 40 40 40 40 42 43 41 41 41 42 42 42 43 44 45 46
47 47 46 45 44 46 44 45 44 44 43 41 42 41 42 43 47 42 42 42 41 39 40 40 42 42 41 40 40 41 42 43 42 43 42 42 42 42 42 43 43 44
47 49 48 46 45 47 46 44 42 42 42 43 44 43 43 42 39 41 39 40 40 39 40 41 40 41 42 40 41 42 43 42 42 41 40 41 39 39 39 40 44 50
45 46 48 48 48 47 45 44 43 45 42 40 42 42 40 39 41 41 39 38 37 39 46 39 37 40 41 41 41 41 43 41 42 41 41 37 39 38 38 39 40 43
45 47 46 45 47 46 45 47 45 44 41 42 38 40 40 38 40 40 39 36 36 36 37 36 37 37 38 40 41 41 42 42 42 42 40 37 38 40 39 39 39 40

ECMWFNIL_sfc_temp_012.txt.gz
Temp
58 58 57 56 55 56 54 53 52 52 52 52 53 53 53 53 53 53 52 52 52 52 52 52 52 53 53 52 52 53 52 51 51 50 51 51 50 51 51 50 50 51
58 58 60 58 57 57 55 54 52 53 52 52 53 53 52 52 53 52 52 52 53 51 51 51 52 52 52 52 52 52 51 52 52 53 51 51 50 50 49 50 50 50
57 57 58 57 57 56 55 54 53 52 52 52 51 51 53 52 52 52 52 52 52 51 51 51 52 52 52 52 52 53 52 52 52 52 53 52 51 51 50 50 51 52
57 57 57 58 57 57 56 55 53 53 52 53 53 52 53 55 52 52 52 55 51 52 51 52 52 52 52 52 52 52 52 53 52 52 52 51 52 52 50 51 52 52
57 58 59 59 58 58 56 55 54 53 54 54 52 53 55 53 52 52 52 52 52 52 52 52 52 52 51 51 52 51 52 51 51 52 53 52 51 53 52 53 52 52
58 59 59 58 58 58 57 56 56 56 55 54 53 54 52 52 52 53 53 53 51 52 52 52 52 52 51 51 51 52 52 52 51 52 53 52 52 52 53 52 52 52
58 59 58 58 58 58 58 57 57 57 57 56 55 53 52 53 53 52 52 53 52 53 52 52 52 52 51 51 52 51 51 51 50 52 53 52 52 52 52 52 53 54
58 58 58 58 58 57 57 56 56 56 56 56 57 56 54 54 53 52 52 52 53 53 52 53 53 52 51 52 52 52 52 53 51 52 53 52 52 53 52 52 52 53
58 57 57 56 56 57 57 57 56 55 56 55 56 56 54 54 53 53 53 53 53 53 53 53 53 52 51 52 52 52 52 52 52 52 52 52 52 52 53 52 52 53
57 57 57 56 57 56 56 55 55 55 55 55 54 54 54 53 53 53 53 53 53 52 52 52 52 52 52 52 53 52 53 53 52 52 52 52 53 53 53 52 53 52
55 55 55 56 57 56 56 55 55 55 56 55 54 54 54 54 53 53 53 52 52 52 53 52 53 53 54 53 53 53 53 53 52 52 52 52 53 52 53 53 53 53
54 54 55 55 55 55 54 54 54 55 54 54 55 54 53 53 53 53 54 53 53 54 54 54 54 54 54 54 54 54 54 54 53 53 53 53 53 53 53 53 53 53
53 54 54 54 54 53 53 54 54 54 55 54 54 55 55 54 54 54 54 54 54 55 55 56 56 55 54 54 54 54 54 54 54 53 53 53 53 53 53 53 53 53
52 53 54 54 54 54 54 55 55 55 55 55 55 55 55 55 55 55 54 54 55 55 55 56 57 56 55 55 55 54 54 54 53 53 54 53 53 53 53 53 53 53
53 54 55 55 55 54 54 54 55 55 55 55 55 54 56 56 56 56 56 55 55 56 56 56 56 55 55 55 54 54 54 54 54 54 53 54 54 53 53 53 53 54
54 54 54 55 55 55 55 56 55 55 55 56 57 56 56 56 57 57 56 55 55 55 56 55 55 55 54 51 51 55 55 55 54 54 54 54 54 54 54 53 54 54
54 54 55 55 55 55 55 55 55 55 55 55 55 55 55 55 55 56 55 55 56 56 56 55 55 55 49 46 45 45 53 54 54 54 53 53 53 54 54 55 54 54
53 54 54 54 54 54 54 54 54 54 54 54 54 54 54 54 54 55 55 55 55 55 55 55 54 51 46 44 43 43 46 53 53 53 53 53 53 53 54 53 54 54
51 51 51 51 52 53 53 53 53 53 53 53 53 54 53 53 54 54 54 54 54 53 53 52 52 45 43 43 43 43 42 45 51 51 51 51 51 51 51 52 52 52
49 49 49 49 49 49 50 52 52 52 52 52 52 51 51 51 51 51 51 51 52 52 51 51 50 45 41 42 42 42 42 43 48 48 49 49 49 50 50 50 49 50
47 47 47 47 47 47 48 50 50 49 50 49 50 50 50 51 50 50 50 50 50 50 50 48 47 44 42 42 43 42 40 41 45 45 44 44 44 45 46 47 48 48
46 46 47 46 45 45 47 47 47 48 49 46 46 45 46 47 47 48 49 48 48 47 47 46 45 42 42 42 41 39 40 44 44 44 43 43 43 43 44 45 46 47
44 45 45 44 44 45 45 45 45 44 43 44 45 44 45 45 46 44 45 46 45 45 46 45 43 42 41 40 40 39 42 44 44 44 43 42 41 41 42 44 46 46
45 45 45 45 45 46 45 45 44 44 44 45 47 44 45 42 41 41 40 42 43 42 44 44 41 41 41 40 40 41 43 45 44 44 41 41 40 40 40 42 46 47
45 46 46 45 46 48 47 46 47 48 44 42 43 45 43 40 42 41 39 39 40 42 46 42 40 41 40 40 40 40 43 43 44 44 43 40 41 41 41 41 42 44
45 49 47 46 45 46 45 48 46 44 43 43 42 43 42 41 41 41 39 38 38 40 41 40 41 40 41 40 40 40 41 44 44 45 43 41 41 43 42 42 42 42

ECMWFNIL_sfc_temp_015.txt.gz
Temp
66 67 67 67 67 67 66 66 65 66 67 68 69 68 68 66 66 66 66 66 66 66 65 65 66 66 66 66 66 68 68 65 65 66 66 66 66 65 64 65 66 67
65 65 66 65 65 64 64 64 62 65 66 66 67 67 66 66 65 66 66 66 66 65 65 65 65 66 66 67 66 67 67 66 64 66 65 65 66 66 64 64 65 66
64 64 64 64 62 62 61 61 61 63 65 65 65 66 66 66 65 65 65 66 66 65 64 65 65 65 65 66 66 67 67 66 65 66 67 66 66 66 65 65 66 66
62 63 63 62 61 61 60 59 60 62 64 65 66 66 66 65 66 65 65 65 66 65 65 65 65 65 66 66 66 66 66 66 65 66 65 65 66 66 65 66 66 66
62 62 61 59 58 59 58 58 60 62 64 64 64 66 67 66 66 67 66 66 66 66 66 65 65 65 65 66 67 66 66 65 65 66 66 65 65 65 65 66 66 65
62 64 65 63 61 60 60 61 61 61 62 63 65 67 67 67 68 67 67 67 67 67 66 67 67 66 66 66 66 66 67 67 66 67 68 67 66 66 67 67 66 66
62 63 63 63 63 63 62 62 62 62 62 64 65 65 66 67 68 68 69 68 68 68 68 67 67 66 66 67 67 66 66 66 67 68 68 67 67 65 66 67 68 68
65 65 65 64 63 63 63 63 63 63 62 63 63 65 67 68 69 67 68 68 68 68 67 67 67 66 66 67 68 66 65 65 66 67 68 67 67 68 67 66 66 67
67 66 66 65 63 63 63 64 63 64 64 63 64 64 64 67 67 66 67 68 67 67 67 67 67 67 66 66 66 66 67 66 65 66 67 67 67 67 69 68 66 66
66 66 65 64 64 64 63 63 64 64 65 65 65 64 65 65 66 67 66 66 66 66 67 67 67 67 66 67 66 66 66 66 66 65 66 67 67 69 69 68 68 66
65 64 64 63 63 64 63 64 64 65 65 66 65 65 65 65 66 67 67 68 66 67 68 68 68 68 67 66 66 66 66 65 66 66 65 66 66 66 64 67 67 67
64 63 63 64 64 63 62 62 63 65 65 65 66 65 64 65 65 66 68 69 69 69 69 69 69 68 68 67 67 66 66 66 66 66 66 67 66 66 67 67 66 68
64 64 64 64 64 64 62 63 64 64 65 65 66 66 65 65 66 66 67 69 69 69 69 69 68 68 68 67 67 67 66 66 65 66 66 66 66 67 67 67 67 68
64 64 64 65 65 66 64 63 63 63 65 65 66 65 66 66 66 66 65 65 65 67 67 67 67 68 67 65 66 65 65 65 65 65 66 67 66 67 66 67 67 67
65 65 65 66 66 66 65 64 63 64 64 65 65 65 63 64 63 63 63 63 64 64 64 63 63 63 63 62 61 60 61 62 64 66 66 67 67 68 68 67 67 67
65 65 65 65 66 66 65 65 64 62 63 64 65 65 64 63 61 61 61 61 62 64 61 60 61 61 57 52 52 56 56 59 62 65 66 66 66 66 67 67 67 67
64 64 65 64 65 65 65 65 65 64 65 64 64 61 60 59 59 60 59 59 60 60 60 60 60 59 50 47 46 47 58 62 63 65 66 65 65 65 65 66 67 68
63 63 64 64 64 65 65 65 64 63 64 64 62 60 58 58 58 58 58 58 60 62 63 63 61 53 46 46 45 44 48 62 63 62 63 63 64 64 66 66 65 65
64 65 65 64 65 65 65 64 64 63 63 62 61 62 61 60 60 59 61 61 62 63 63 64 64 48 44 44 44 44 42 50 62 62 61 62 63 63 63 63 64 63
62 63 63 63 62 63 63 64 63 62 63 63 62 62 61 61 61 61 62 62 63 64 63 63 64 47 44 44 44 42 41 45 60 59 60 60 60 60 60 61 61 62
62 61 61 61 61 61 61 62 62 62 62 62 62 62 61 60 61 61 62 62 62 63 63 61 61 44 43 43 42 42 39 45 59 58 59 58 58 57 57 58 59 60
62 62 62 62 62 61 60 60 59 59 58 57 56 58 61 62 62 62 61 61 61 61 61 61 58 41 41 41 41 38 42 59 60 59 59 59 58 57 57 59 59 59
61 61 61 61 61 60 61 60 60 59 58 59 58 59 60 60 60 61 61 60 58 60 61 61 58 44 40 40 39 40 50 61 59 59 58 57 56 56 58 58 58 59
60 60 60 58 56 57 59 60 61 61 61 60 57 56 56 57 57 56 58 60 60 59 61 59 57 46 39 40 40 43 51 60 61 61 57 56 55 55 57 57 52 45
60 60 60 59 59 58 58 58 58 58 59 59 60 61 59 57 57 58 56 57 58 58 52 57 56 48 39 40 40 40 51 62 62 61 58 57 57 56 57 57 55 48
60 59 59 60 61 59 57 57 58 58 56 56 55 56 54 54 54 55 54 53 54 55 55 58 57 56 48 39 41 40 45 62 63 62 60 57 59 58 56 56 55 54

ECMWFNIL_sfc_temp_018.txt.gz
Temp
72 72 73 75 75 76 75 75 75 75 75 76 75 75 75 74 75 75 74 75 75 74 74 74 74 74 75 75 75 77 76 74 75 75 75 75 74 73 73 74 73 74
72 71 73 74 74 75 74 74 74 74 74 75 75 75 75 74 74 75 74 74 75 74 74 74 74 75 75 76 75 75 75 74 73 76 73 73 73 73 72 72 72 74
72 72 72 72 72 71 71 71 71 71 72 74 74 75 74 74 73 74 74 74 74 74 73 74 74 74 75 75 75 74 74 73 72 74 74 73 73 72 72 73 73 73
69 69 71 70 71 71 71 70 70 68 69 71 74 74 74 74 74 73 73 74 74 73 73 73 73 74 75 75 74 74 73 74 74 73 72 73 73 73 72 73 73 74
69 70 71 71 72 71 71 69 69 68 67 68 71 73 74 74 74 74 74 74 74 74 73 73 73 73 74 74 74 73 73 73 73 73 73 72 73 72 72 73 72 71
70 72 73 72 71 70 69 68 69 69 69 68 70 73 73 73 75 74 74 74 74 74 74 74 74 74 74 74 74 73 74 74 73 73 74 73 73 74 75 73 72 72
69 70 70 71 70 70 69 68 70 70 71 72 72 71 73 74 75 76 76 75 76 75 75 74 74 73 74 74 74 73 74 73 74 75 74 74 73 72 74 74 74 74
69 71 72 73 70 69 70 71 71 71 71 72 72 72 74 75 76 75 76 76 76 76 76 76 75 75 75 75 74 72 72 73 73 74 74 73 72 73 73 73 72 73
71 71 72 71 70 70 71 72 71 72 73 71 72 72 73 75 75 74 75 76 76 75 76 76 75 75 74 74 73 73 73 72 73 73 72 72 72 73 75 74 72 72
70 71 71 72 71 72 71 72 72 72 73 72 73 73 73 73 75 76 75 75 74 75 75 75 75 74 74 75 75 74 74 73 73 73 73 73 73 74 75 74 73 72
71 72 71 72 72 72 71 72 72 73 73 74 73 73 74 73 73 75 75 75 73 75 75 75 75 75 74 74 73 73 74 73 73 73 72 73 73 73 70 73 73 72
72 72 72 72 72 72 71 72 72 73 73 73 75 74 73 73 73 74 75 76 76 77 77 76 77 76 76 75 75 74 73 72 73 72 73 73 73 73 74 74 72 73
73 72 72 73 72 72 72 73 73 73 73 73 74 74 73 73 73 74 74 75 76 76 76 76 76 76 75 74 75 74 73 73 72 72 72 73 73 74 74 74 74 74
73 73 72 72 73 73 72 73 73 73 73 74 74 73 73 74 74 73 74 75 76 76 76 76 75 76 75 75 75 73 73 72 72 71 72 72 72 73 73 74 74 74
73 73 73 73 73 73 72 72 72 73 73 74 73 73 73 75 75 74 73 74 75 75 75 74 74 73 74 74 73 73 73 71 70 70 70 71 71 72 71 70 69 70
72 73 73 73 73 73 73 73 73 72 72 73 73 73 74 74 75 74 74 74 73 74 74 72 71 71 61 55 61 72 72 69 65 63 65 68 69 70 70 69 68 68
72 72 73 73 73 73 73 73 73 72 72 72 72 73 72 73 73 73 73 73 73 73 70 68 67 66 47 47 48 53 67 68 64 61 64 66 68 69 69 71 72 75
72 72 71 71 72 73 73 73 72 72 71 72 72 71 71 71 70 71 71 72 71 71 68 67 66 58 47 44 44 47 56 67 66 66 67 68 69 69 70 71 71 71
72 73 72 71 72 72 71 71 71 71 71 71 71 69 69 68 70 70 69 68 67 66 65 64 63 54 48 45 43 44 47 57 68 68 68 68 68 68 68 68 68 67
72 71 71 71 70 70 70 70 69 69 69 71 70 68 68 68 68 67 66 65 65 65 64 65 65 53 47 45 44 42 43 49 69 68 68 70 69 68 67 68 67 67
71 71 71 71 71 70 69 69 68 68 69 70 69 69 68 68 68 67 67 66 66 66 65 65 68 48 45 43 43 42 41 47 69 67 68 68 67 67 67 67 67 67
70 70 70 71 70 70 70 69 69 69 68 69 69 69 69 69 68 69 67 67 67 67 67 67 65 41 43 43 42 42 41 62 68 67 67 67 67 67 68 68 68 68
69 69 69 69 69 70 70 69 69 68 68 69 68 67 67 67 68 68 68 68 67 66 66 64 63 46 42 42 42 40 47 68 69 69 68 66 66 67 68 66 65 66
69 70 69 68 69 69 69 69 69 70 69 69 67 67 67 68 69 68 67 67 65 64 63 60 62 48 39 41 40 40 51 67 69 69 66 66 65 66 66 64 57 43
68 67 68 68 68 69 68 67 68 69 70 70 69 68 67 68 67 67 66 65 64 62 55 58 58 51 39 40 40 42 53 68 69 69 66 65 66 64 65 64 60 53
67 67 66 66 67 67 68 68 68 69 68 68 69 69 69 70 69 68 67 67 65 63 60 59 60 59 48 39 42 43 48 69 70 68 66 65 66 65 64 63 62 59

ECMWFNIL_sfc_temp_021.txt.gz
Temp
76 76 76 76 77 77 77 77 77 77 77 77 76 76 76 76 77 76 76 76 76 76 76 76 76 76 77 77 77 77 76 75 75 76 75 74 74 74 74 75 75 76
75 76 76 76 77 77 76 77 76 76 76 76 76 75 76 76 76 76 75 75 76 76 76 76 76 77 77 77 76 76 75 75 74 77 74 74 74 74 73 73 74 76
75 75 75 75 75 75 75 75 76 76 76 76 75 74 73 74 75 76 76 76 75 75 75 76 76 76 76 76 76 75 75 74 74 76 75 75 74 73 73 74 74 75
74 75 76 76 75 74 75 74 73 73 73 73 74 74 74 73 73 74 75 75 75 75 75 75 75 76 77 76 76 75 75 75 75 75 74 74 75 75 74 75 75 76
74 75 75 75 75 75 74 74 73 73 73 73 73 73 73 72 72 75 75 75 75 75 75 75 75 75 76 75 76 74 74 74 75 75 74 73 74 74 74 74 73 73
74 76 76 75 75 73 74 74 74 73 72 72 72 74 73 73 74 75 75 74 75 75 75 75 75 75 76 75 75 74 75 75 74 75 75 74 74 75 77 75 74 74
73 74 74 75 75 74 73 73 73 73 73 73 74 73 73 73 74 75 76 76 76 76 76 75 75 74 75 75 75 75 75 75 76 76 76 75 75 74 76 76 76 75
72 73 74 75 74 73 72 72 72 72 72 73 73 74 74 75 76 76 77 77 77 77 76 76 76 76 76 76 75 74 73 75 75 76 75 75 74 75 75 75 74 75
72 73 73 73 73 72 72 73 73 73 75 74 75 75 77 77 77 76 77 77 77 76 76 76 76 76 75 75 74 74 74 74 75 75 73 73 73 74 76 75 74 73
72 73 73 73 72 73 72 73 74 74 76 75 76 76 76 77 78 78 77 77 76 77 77 76 76 75 75 76 76 75 75 74 75 74 74 74 75 76 76 75 74 73
71 73 72 72 72 73 73 74 74 75 76 77 76 76 77 76 77 78 77 77 75 77 77 76 76 76 76 76 75 75 75 74 75 75 75 75 75 76 73 75 74 73
72 72 73 73 73 73 73 74 74 74 75 76 77 76 76 76 76 77 78 78 78 78 78 77 77 77 77 76 76 76 75 75 75 74 74 75 75 75 75 75 74 74
73 72 73 72 72 73 74 74 74 74 75 76 77 77 76 75 76 77 77 78 78 78 78 77 78 77 76 75 76 75 75 75 73 74 74 74 75 75 76 75 75 75
73 73 73 73 74 74 74 73 73 74 75 76 76 76 75 76 76 76 76 78 78 78 78 78 78 77 77 77 77 75 74 74 74 73 73 74 74 75 75 75 74 74
72 72 73 73 73 74 73 73 73 75 75 76 76 75 75 76 77 77 76 77 78 77 78 78 77 76 77 76 75 75 74 73 73 73 73 73 73 73 73 74 73 71
73 73 73 73 73 72 73 73 73 74 74 74 75 75 75 75 77 77 77 76 76 77 77 76 75 76 62 57 62 74 73 73 71 71 70 69 68 68 68 67 68 69
75 74 74 73 72 71 73 73 72 72 73 73 74 74 74 75 75 76 76 76 76 76 75 75 74 71 49 49 48 53 70 71 70 69 69 68 67 67 67 67 63 65
75 74 74 73 73 74 74 74 73 73 73 72 71 71 71 73 73 74 75 75 75 75 74 73 74 53 45 46 49 51 58 70 70 68 67 66 67 68 68 65 63 63
75 75 75 74 74 74 74 74 73 73 71 69 70 70 69 69 68 71 70 74 74 74 74 72 71 46 45 44 46 47 48 58 70 69 67 66 67 68 69 68 65 67
74 74 73 73 73 73 72 72 72 72 72 71 71 70 69 69 68 69 71 72 72 72 71 71 70 47 44 43 44 44 45 51 68 67 67 67 68 68 67 68 69 69
74 74 73 73 73 72 72 72 71 71 71 71 70 68 69 68 64 63 67 70 70 69 68 67 68 47 44 43 44 43 43 48 67 67 67 66 65 66 64 66 68 69
72 72 72 73 73 73 72 71 71 70 70 70 70 71 70 69 66 65 63 66 67 66 66 67 69 47 46 44 44 44 43 60 66 68 68 67 64 64 68 69 68 69
71 71 71 71 72 72 72 72 71 71 71 72 70 70 70 70 68 64 64 65 64 64 66 67 67 52 44 46 45 43 47 64 66 68 67 65 65 64 66 68 66 65
70 71 70 69 70 71 71 71 72 72 72 73 71 70 70 70 71 70 71 70 67 65 65 63 63 54 41 44 44 42 50 64 67 67 66 65 64 65 66 63 57 45
68 68 68 68 68 69 69 69 70 71 72 73 72 72 71 72 71 71 70 70 71 70 62 65 68 55 40 42 42 41 52 65 66 67 65 63 64 65 63 61 61 53
69 69 68 68 68 67 68 68 70 70 70 71 71 73 72 72 72 71 70 70 70 69 67 66 66 62 49 40 42 41 46 64 67 67 64 63 63 61 62 63 62 59

ECMWFNIL_sfc_temp_024.txt.gz
Temp
72 72 71 71 72 72 72 71 71 71 71 71 70 70 70 70 71 71 71 71 71 70 71 70 71 71 72 70 69 71 71 69 69 69 69 68 67 67 67 68 67 66
72 72 72 72 71 71 71 71 71 71 71 70 70 69 70 70 71 70 70 70 71 70 71 71 71 72 71 70 69 68 68 68 68 72 67 67 66 66 66 66 66 67
72 71 72 71 70 70 70 71 71 71 70 70 69 69 69 70 69 70 70 69 69 69 70 70 70 70 70 69 69 68 68 67 66 67 67 67 66 65 66 66 66 66
72 72 72 71 70 70 70 69 69 69 69 69 69 69 70 70 69 69 69 70 68 68 68 70 70 70 70 69 68 68 68 67 67 66 66 66 66 66 67 67 67 67
71 72 72 71 71 70 70 69 68 68 69 68 69 68 69 68 67 68 68 68 68 68 69 68 68 68 69 67 67 66 66 66 66 66 65 64 66 66 67 67 66 65
72 73 73 72 70 69 69 69 69 69 69 68 68 69 68 68 68 68 68 67 68 68 68 67 68 69 68 67 66 66 66 68 66 66 67 65 66 67 72 68 66 65
71 71 71 71 70 70 69 68 68 68 68 68 69 67 68 68 69 68 69 68 68 68 68 68 68 68 68 67 67 66 67 66 67 68 68 66 66 66 69 68 68 67
71 71 71 71 69 69 68 69 68 68 68 68 68 68 69 70 70 69 68 69 69 69 68 68 69 68 69 68 67 66 66 69 68 68 67 67 66 66 66 69 66 65
71 71 71 70 69 68 68 69 68 68 69 67 68 68 69 69 70 69 70 69 69 69 69 68 69 68 69 67 66 67 68 69 67 66 65 65 66 66 69 68 66 64
70 71 70 70 68 68 68 69 69 69 70 69 70 69 70 69 70 71 70 69 69 69 69 68 68 69 69 69 69 68 69 68 67 66 67 67 66 67 69 67 65 64
70 70 69 69 68 68 68 69 70 70 70 71 70 69 70 70 70 71 70 70 69 70 70 69 69 69 68 68 68 69 69 67 67 67 67 67 67 67 68 66 66 64
69 69 69 69 69 69 69 69 70 70 70 70 72 70 69 70 69 70 72 71 71 71 71 71 71 69 70 69 69 68 68 68 67 67 68 68 68 68 68 67 66 67
70 69 69 69 69 69 69 70 70 71 71 71 71 70 69 69 70 69 69 71 71 71 71 71 71 71 69 69 70 70 68 68 67 67 69 67 68 68 68 67 69 69
70 70 70 70 70 70 70 70 70 70 70 70 71 70 69 70 70 70 69 70 70 70 70 70 70 70 70 70 70 68 67 68 67 66 67 67 67 68 68 67 66 66
70 70 71 70 70 71 70 70 70 70 70 70 70 70 70 71 71 70 69 69 70 70 71 70 70 69 71 70 68 69 69 66 67 68 66 66 68 67 63 62 62 63
71 70 71 70 70 70 70 70 70 70 70 70 70 70 71 70 71 70 70 70 70 69 69 69 69 69 67 62 63 69 68 69 67 67 66 66 66 64 62 62 62 62
70 70 69 68 69 68 68 69 70 69 69 70 70 70 70 69 70 69 69 70 70 69 67 68 68 68 53 55 55 58 68 66 65 64 64 63 63 64 62 61 61 61
69 68 68 66 67 68 67 68 68 67 67 67 67 68 69 69 68 68 68 68 67 68 67 67 67 52 46 49 52 55 60 67 66 65 64 63 63 63 64 62 62 61
69 69 67 66 66 66 66 65 65 65 65 65 64 66 67 67 67 67 66 67 66 66 66 66 64 45 47 48 49 50 52 60 68 66 63 63 63 63 63 63 61 60
69 68 68 68 67 65 66 66 64 64 65 63 64 65 65 65 66 65 65 65 65 66 63 58 58 50 44 46 47 49 47 55 66 64 63 63 63 63 62 62 61 60
70 70 67 67 67 65 66 66 63 64 65 64 64 64 65 65 65 64 63 62 63 63 59 58 60 50 44 44 44 45 43 49 62 64 63 62 63 63 63 62 62 62
67 67 67 68 69 68 67 67 66 66 66 66 65 65 65 65 64 64 62 62 63 62 59 59 59 49 45 43 43 43 43 55 59 61 61 62 62 62 62 63 63 62
65 64 64 65 66 66 66 66 67 67 66 67 65 65 64 63 63 63 64 63 62 61 60 59 60 52 46 45 44 43 45 57 59 60 61 61 61 60 61 61 60 61
64 65 64 64 64 64 64 63 64 65 66 67 65 64 63 63 62 62 63 63 62 62 61 60 61 54 46 46 45 43 48 58 59 60 60 60 58 58 58 56 54 49
62 62 63 63 63 63 63 63 63 63 64 65 65 65 64 66 65 63 62 62 62 61 57 59 61 55 43 44 44 43 47 57 60 60 59 60 58 58 58 57 53 49
62 62 62 62 62 61 61 62 63 63 63 63 64 66 66 66 66 66 64 62 62 61 60 60 59 60 56 45 44 44 44 55 59 59 58 58 59 59 57 55 52 50

ECMWFNIL_sfc_temp_027.txt.gz
Temp
66 66 66 65 65 65 65 65 64 64 63 63 63 63 62 63 64 63 63 64 63 62 63 63 64 64 65 62 62 64 64 63 62 62 62 61 60 60 61 61 59 59
65 66 66 65 63 64 64 64 64 64 63 63 63 62 63 63 63 64 63 63 63 64 63 62 62 63 63 62 62 62 61 62 62 65 62 61 60 61 61 60 59 59
64 64 64 64 64 64 64 63 64 64 63 63 63 63 64 63 62 60 61 61 62 61 62 63 63 63 62 62 61 61 61 59 60 60 61 61 60 60 57 58 59 60
64 64 64 64 64 64 63 64 63 63 63 62 63 64 64 63 62 62 63 64 61 60 60 61 62 63 63 62 62 60 61 60 59 59 59 59 59 60 61 61 61 61
63 63 64 64 63 63 64 64 63 62 63 62 62 62 62 62 62 62 61 60 60 59 60 61 61 60 60 60 61 60 60 59 58 58 58 59 60 61 59 61 60 59
64 65 64 64 63 63 63 63 63 63 62 61 61 61 61 61 61 61 61 60 59 60 60 60 61 60 61 60 60 60 59 61 58 59 59 58 59 61 65 61 58 58
64 64 63 63 63 63 63 61 61 62 62 62 61 61 60 60 60 61 61 60 60 60 59 58 59 60 60 59 58 57 57 59 58 59 60 58 60 60 61 60 60 58
64 63 63 63 62 61 61 61 61 61 61 61 61 60 60 60 61 61 60 61 60 60 59 59 60 59 58 58 58 57 57 61 60 59 58 58 57 59 59 61 58 58
64 63 63 62 61 60 60 61 60 60 61 60 60 61 59 60 62 61 61 60 59 60 60 60 60 59 57 59 59 59 58 58 59 58 57 58 59 59 60 59 58 57
63 63 62 61 61 60 60 59 60 60 60 60 61 60 62 59 59 61 60 58 60 59 60 59 59 58 60 61 60 58 59 60 59 58 58 59 60 60 60 60 58 58
62 62 62 61 61 60 60 60 60 61 60 60 59 60 60 59 60 60 59 60 61 60 59 59 59 60 61 59 58 58 60 60 60 59 59 60 60 61 62 59 58 57
61 61 62 61 61 61 61 61 61 61 60 60 60 60 58 59 60 60 62 61 61 61 61 60 60 60 61 59 59 59 60 60 60 59 59 58 60 61 61 61 60 59
61 61 61 62 62 61 61 62 62 62 61 61 61 60 59 59 60 60 59 60 61 61 62 62 62 62 62 60 60 59 60 61 60 58 58 60 60 60 61 60 59 60
60 62 61 62 61 61 61 62 61 60 61 60 61 60 60 59 60 60 59 59 61 60 61 62 62 61 61 62 63 60 61 59 60 59 60 61 59 58 59 60 60 60
58 62 63 61 61 60 61 60 61 61 62 61 60 60 63 62 59 60 60 59 60 59 60 61 62 62 62 63 61 61 60 60 60 60 60 59 58 58 58 59 58 58
59 57 59 62 62 62 61 60 60 61 63 62 62 60 61 61 61 59 59 60 59 59 58 61 61 62 61 58 58 62 60 63 61 60 59 58 58 57 57 57 58 57
59 59 58 57 59 61 61 61 60 60 59 60 60 61 60 60 60 60 59 59 61 59 58 60 61 64 54 51 52 55 62 60 60 58 57 58 58 57 57 57 55 56
57 59 58 58 57 58 60 60 59 59 58 57 58 59 59 58 60 60 59 59 60 59 56 55 54 54 49 50 50 51 56 61 60 59 59 58 58 58 58 57 56 56
58 59 58 57 57 58 59 57 57 57 57 57 56 56 57 58 58 58 57 57 56 55 54 54 54 47 48 49 49 49 51 57 60 60 59 58 58 58 57 57 56 55
60 59 59 58 58 57 57 56 56 56 57 56 56 57 56 56 57 58 58 55 54 53 52 53 53 47 48 48 47 47 48 53 61 60 60 60 59 58 57 57 57 56
57 57 57 57 57 56 56 55 55 54 56 55 56 57 56 56 57 56 57 55 53 53 51 52 54 45 45 46 47 48 46 52 59 60 59 58 58 57 56 56 56 57
55 55 55 54 54 54 55 55 54 55 55 54 54 54 54 55 55 56 55 54 54 52 52 52 54 47 42 43 44 44 44 53 55 56 56 57 57 56 56 56 57 57
55 55 54 55 54 54 54 54 54 54 54 54 54 52 52 54 56 55 55 55 53 53 52 52 53 51 45 43 42 41 46 52 53 53 53 54 55 55 55 57 57 57
54 54 53 54 54 54 54 54 54 55 55 55 54 54 55 56 54 55 54 54 54 54 54 53 53 52 47 44 43 41 47 53 52 54 52 53 53 55 54 53 52 53
52 52 52 53 53 53 53 53 54 54 55 55 54 54 54 53 56 55 54 54 55 56 55 55 54 53 48 46 44 43 46 51 52 53 52 51 53 54 53 51 51 50
51 51 52 52 53 53 53 53 54 55 55 55 54 55 54 53 53 52 54 55 55 54 56 56 55 54 52 46 46 44 44 51 52 52 52 50 52 53 53 50 48 45

ECMWFNIL_sfc_temp_030.txt.gz
Temp
64 64 65 64 63 61 60 60 59 60 59 58 59 58 58 58 59 59 58 59 60 60 60 60 59 60 61 60 60 61 61 60 59 59 59 59 57 58 58 57 56 56
63 63 64 63 62 61 60 60 60 60 59 59 59 58 58 58 59 59 59 59 59 58 58 59 59 59 59 60 59 60 59 59 59 61 58 56 55 56 56 55 55 55
61 61 62 61 61 59 59 59 60 59 60 59 59 60 60 58 58 58 58 57 58 58 59 58 58 58 58 58 59 60 59 58 58 57 58 57 55 57 55 56 56 56
61 61 61 61 60 59 59 59 58 59 59 59 60 61 61 59 58 58 59 60 58 57 57 57 58 58 59 58 58 57 57 57 56 56 56 55 56 57 56 56 56 55
60 60 60 60 59 60 60 60 59 59 60 59 58 58 60 58 57 58 57 57 56 56 57 57 57 57 57 58 58 57 56 56 55 56 57 56 56 58 56 57 56 56
60 61 61 61 60 60 60 60 60 60 59 58 58 58 57 57 57 57 57 56 56 57 56 56 57 56 58 57 57 58 57 58 55 58 58 57 56 56 60 56 55 56
60 60 60 60 60 60 60 59 59 59 59 58 57 57 57 57 57 56 56 56 56 57 56 56 57 56 56 56 57 55 55 56 54 57 57 55 55 55 55 55 55 55
61 60 60 60 59 59 59 59 58 58 58 57 58 56 56 57 57 56 55 56 56 55 55 56 56 56 55 56 56 55 54 57 56 56 55 54 55 55 54 56 53 55
61 61 61 60 59 58 59 59 58 58 58 59 57 56 56 58 57 56 56 55 56 55 55 55 55 55 54 55 54 55 56 55 56 55 55 55 56 55 56 54 54 54
62 61 62 61 60 59 59 59 58 58 57 59 58 56 57 56 56 56 55 55 56 55 55 55 55 54 54 54 55 55 56 57 54 54 55 56 57 56 56 56 56 55
59 60 61 60 60 59 59 58 58 58 57 59 57 56 55 56 56 55 55 55 56 55 55 54 54 54 54 54 54 54 55 55 54 54 54 56 57 57 58 56 55 56
58 58 58 59 60 60 60 59 59 58 58 57 58 57 54 55 56 55 58 57 56 55 55 54 54 54 55 55 55 54 55 55 55 55 56 56 55 56 56 56 57 57
58 59 60 59 59 59 59 59 59 58 58 58 57 57 56 56 55 56 55 58 58 56 56 56 56 56 55 54 55 55 57 57 56 55 55 55 55 56 56 55 55 56
57 58 59 61 61 60 59 59 59 58 58 57 56 56 56 57 56 57 57 57 58 57 58 56 56 56 55 54 55 56 57 56 56 56 55 55 55 56 56 56 56 56
57 58 58 59 61 61 60 59 59 58 58 57 57 58 58 58 58 56 56 56 56 57 57 56 58 59 59 57 56 56 55 56 55 55 55 55 54 54 54 55 55 54
57 57 57 56 58 59 59 60 60 58 57 57 58 58 58 58 58 56 57 57 57 55 56 57 58 59 60 56 56 59 56 58 56 54 54 54 55 54 53 54 55 54
57 56 56 56 56 57 57 57 57 57 57 57 56 57 57 57 58 57 55 56 57 57 56 57 58 59 54 49 49 52 58 57 56 55 54 55 55 55 55 55 53 53
55 56 56 55 56 56 56 56 56 56 56 55 56 57 56 56 58 57 55 54 55 54 55 58 58 56 50 48 49 49 54 59 57 56 55 55 55 56 56 55 55 54
55 55 55 55 55 55 55 55 54 55 55 56 56 56 55 55 54 54 54 53 53 53 53 54 55 54 50 47 47 47 49 56 59 58 56 55 55 55 55 55 54 54
54 54 54 54 54 54 54 54 54 54 54 53 53 54 54 54 53 54 53 53 52 52 52 51 50 48 45 46 46 45 45 50 60 58 58 57 57 56 56 55 55 54
53 52 52 53 54 53 53 53 52 52 53 52 53 53 53 54 54 54 52 52 53 51 51 52 52 48 43 44 45 45 45 44 53 57 58 57 57 57 56 56 56 56
51 50 50 50 51 51 51 50 50 50 51 51 51 51 51 51 52 52 53 55 55 53 52 53 54 47 42 42 44 44 45 52 53 54 55 55 55 55 55 56 56 56
49 50 49 49 49 49 49 49 49 50 49 50 48 48 48 50 51 52 51 51 52 53 54 54 53 50 43 41 42 43 45 53 55 55 55 55 54 54 54 55 56 56
49 49 49 49 48 48 47 47 47 47 48 49 48 48 48 50 50 50 51 50 50 50 51 51 53 51 44 42 42 41 46 54 54 54 54 54 52 53 53 53 54 55
49 49 49 48 48 47 47 46 46 47 46 46 47 46 46 47 48 49 48 47 48 49 53 52 52 51 47 43 42 42 45 50 51 52 52 50 52 51 50 50 49 50
49 49 49 49 48 48 47 47 46 46 46 47 46 48 48 47 48 47 48 48 47 48 49 50 51 52 52 46 44 43 43 50 50 51 51 50 50 52 53 50 48 48

ECMWFNIL_sfc_temp_033.txt.gz
Temp
61 61 61 59 58 59 58 57 57 57 57 56 58 55 56 56 57 56 56 56 57 57 57 57 57 58 59 58 58 59 58 58 57 56 57 57 56 57 57 56 56 57
60 61 62 60 59 58 57 57 57 58 56 55 56 55 55 56 57 56 57 56 56 55 55 56 56 56 57 58 58 58 56 57 56 58 56 55 55 56 57 56 57 55
61 61 62 61 59 57 56 55 56 56 57 55 55 56 57 56 55 55 55 56 56 55 55 55 55 56 56 56 57 58 57 55 55 54 55 54 53 55 54 54 53 54
60 61 61 60 59 58 56 57 55 56 56 58 56 57 57 57 55 55 57 58 55 55 54 54 54 55 55 55 56 55 55 54 54 54 54 53 53 54 53 54 53 53
61 60 60 59 59 59 57 57 56 55 56 57 56 56 58 56 55 55 54 54 55 54 54 54 54 54 54 54 55 54 54 54 53 54 55 53 53 55 54 55 53 53
60 61 61 60 59 59 58 56 56 56 56 56 56 57 55 55 55 55 55 54 54 55 54 53 53 54 54 53 53 53 53 55 53 54 55 55 53 53 56 54 53 53
60 60 58 58 58 58 57 56 56 57 57 57 55 55 54 55 55 54 53 54 54 54 53 53 53 53 53 53 53 52 52 52 53 54 55 52 53 53 53 53 54 54
60 59 59 58 58 57 57 57 57 57 56 55 55 53 54 55 53 53 52 54 54 52 52 53 53 52 52 52 53 52 52 54 54 53 53 51 52 52 53 54 52 55
59 59 59 58 58 57 57 57 57 56 56 56 55 54 53 54 54 53 53 52 52 52 52 52 53 52 51 52 52 52 52 53 52 52 52 52 53 52 53 51 52 53
58 58 58 58 58 57 57 56 56 55 56 56 55 53 55 54 53 52 53 52 52 51 52 52 52 52 52 51 52 51 52 52 52 52 52 52 52 51 52 52 51 51
57 58 58 57 56 56 56 56 56 56 56 55 53 54 53 53 53 52 52 52 54 52 52 52 51 51 52 52 52 52 51 51 51 52 52 52 52 52 55 51 52 52
57 57 57 57 57 56 56 56 56 56 56 55 54 53 52 53 53 53 54 53 52 51 52 51 50 50 51 51 51 51 51 51 51 51 52 52 52 53 53 52 52 51
57 57 57 57 57 57 57 57 57 57 57 57 55 53 52 52 53 53 53 53 53 52 52 52 51 51 51 50 51 51 51 52 51 52 52 51 52 51 52 51 52 51
57 57 57 57 57 58 58 57 57 56 56 55 55 53 52 52 52 53 52 53 53 53 53 52 51 51 50 50 51 52 52 51 51 51 52 51 52 51 51 51 51 51
56 57 57 57 57 58 58 58 58 57 56 55 55 54 54 52 52 52 53 53 53 53 53 53 53 53 53 51 51 51 51 52 52 53 53 52 52 51 51 51 51 51
56 56 56 55 56 57 58 58 57 56 56 56 55 54 54 54 53 52 52 53 53 52 53 53 53 54 55 54 53 53 51 53 53 52 52 52 53 52 52 52 52 50
56 56 56 56 55 56 56 55 55 54 53 53 53 53 54 54 54 53 52 52 54 53 52 53 53 55 53 49 48 51 53 51 52 51 51 51 52 52 54 54 52 51
55 56 55 55 56 55 55 54 54 54 54 54 54 54 53 53 55 53 53 52 52 52 52 53 53 54 50 48 46 46 51 54 52 52 52 51 51 52 54 52 53 53
54 53 53 53 53 54 54 54 54 54 54 54 53 52 53 54 52 52 51 50 52 52 52 52 52 52 49 48 46 45 44 49 55 54 54 52 52 53 53 53 53 53
54 53 53 52 53 53 52 51 51 51 51 51 51 52 52 51 51 52 51 51 51 50 50 49 49 48 47 48 46 44 44 45 51 52 53 53 54 54 54 53 53 53
51 51 50 51 52 52 51 50 50 49 49 48 48 49 50 50 50 50 51 51 51 51 50 51 51 48 44 44 44 44 43 44 49 50 51 52 53 53 54 54 54 55
48 48 47 48 49 49 49 47 47 46 46 46 47 47 47 48 48 49 50 51 51 50 50 51 52 47 42 41 41 42 43 47 49 50 51 52 53 53 53 54 54 55
48 48 47 47 48 47 46 46 46 47 45 46 45 45 45 46 46 46 47 48 50 51 50 50 51 48 44 43 42 40 44 49 49 51 50 51 52 53 52 53 54 54
47 47 47 47 47 46 45 45 45 45 45 45 44 44 44 44 44 45 46 46 47 48 48 48 49 49 44 44 43 41 44 49 50 50 50 51 51 52 52 52 53 54
47 46 46 46 46 45 45 45 44 44 43 43 44 43 43 43 46 45 44 45 45 46 50 48 47 47 45 43 43 43 43 46 48 49 50 51 50 50 51 51 51 52
47 47 46 45 44 44 44 43 45 45 44 44 44 45 44 44 45 45 44 44 44 44 45 45 45 46 46 43 43 43 43 45 47 48 49 50 50 51 52 51 49 48

ECMWFNIL_sfc_temp_036.txt.gz
Temp
63 63 62 61 60 60 59 58 58 58 58 58 59 58 58 58 57 57 56 56 57 57 57 58 59 59 59 59 60 60 60 59 58 58 58 58 58 58 58 58 58 59
62 62 61 60 59 59 58 59 58 59 58 58 58 57 56 57 57 57 57 57 57 56 56 57 58 58 58 59 59 60 59 59 58 59 58 58 57 58 59 58 58 57
61 61 61 60 59 58 57 57 58 58 58 57 57 58 58 57 56 55 56 57 57 56 56 56 57 57 58 58 59 59 58 57 57 57 58 58 57 58 58 58 58 58
62 62 62 61 59 58 56 56 56 57 56 57 58 58 58 58 56 56 57 59 56 55 55 56 56 57 57 57 57 57 57 57 56 56 56 55 56 58 56 57 57 57
60 59 59 58 58 58 57 57 57 56 57 57 56 57 58 57 56 55 55 55 56 55 55 55 55 56 56 56 57 56 56 55 55 56 56 55 55 56 55 57 57 57
58 59 59 58 58 58 57 57 57 57 56 56 57 57 56 56 56 56 56 55 55 55 54 54 55 55 56 56 55 55 55 56 55 55 56 55 55 55 56 55 56 57
58 58 57 58 57 58 57 56 56 57 57 57 57 56 56 56 56 55 55 55 55 56 55 55 55 55 55 55 55 54 54 54 55 55 56 54 56 55 55 55 56 56
58 57 57 56 56 56 56 55 55 56 56 56 56 54 56 56 55 54 54 55 55 54 54 53 54 54 54 55 55 54 54 55 54 55 55 54 55 56 55 55 54 55
59 58 57 56 56 55 55 55 55 55 56 57 56 55 54 55 54 54 54 54 54 53 53 53 53 53 53 54 54 55 55 54 54 54 55 56 56 55 55 54 55 54
58 57 57 57 56 56 55 55 55 55 56 56 55 55 55 53 53 54 54 54 54 53 53 53 53 53 53 53 54 54 55 55 54 53 53 54 55 55 54 55 55 54
56 57 57 57 56 56 56 56 56 56 56 56 55 54 53 54 53 53 53 54 55 54 54 53 53 53 54 53 52 52 54 54 54 54 53 53 53 53 55 54 55 56
55 56 57 57 57 56 56 57 56 56 55 55 56 55 52 53 53 53 55 53 53 53 53 53 52 53 53 54 53 53 52 52 53 54 54 53 53 54 54 53 54 54
56 55 56 56 56 56 56 56 56 56 56 55 54 54 54 54 52 53 53 53 52 52 52 52 52 52 52 52 52 53 53 53 53 52 53 53 53 54 53 53 53 54
55 55 56 56 56 56 56 56 55 55 54 54 54 54 54 54 54 54 53 52 52 52 52 52 52 52 51 51 52 52 53 53 53 53 53 53 54 53 53 53 53 54
55 56 55 55 56 56 56 56 55 55 55 54 54 54 54 53 53 53 54 54 53 52 52 52 53 53 52 52 53 53 52 53 53 54 54 54 54 54 53 53 53 53
55 55 55 55 55 55 55 55 55 55 55 54 53 53 53 53 53 53 54 54 54 53 53 53 53 52 54 52 51 54 52 54 53 53 53 54 55 55 54 53 53 53
55 55 56 55 55 55 54 54 54 54 54 53 53 52 51 53 53 54 53 53 53 53 53 53 53 55 50 47 47 49 52 52 54 53 53 53 54 55 56 56 55 53
53 54 54 54 55 54 54 54 54 53 53 53 53 53 53 52 51 51 51 51 51 51 51 52 52 50 46 46 45 45 48 53 52 54 53 53 54 54 55 55 55 55
49 49 49 49 50 50 50 50 50 50 50 50 51 51 52 52 52 53 52 51 51 51 51 51 52 45 43 44 45 45 45 49 53 53 54 53 53 54 54 55 55 54
49 49 49 49 49 49 49 49 49 47 47 47 48 49 49 49 50 50 51 51 51 51 51 51 51 44 41 41 41 41 42 46 52 53 53 53 54 54 54 54 54 55
48 48 48 48 48 48 47 47 47 47 48 47 46 46 47 47 47 47 49 50 50 50 50 50 48 41 41 41 41 41 41 45 49 50 52 52 53 53 54 54 55 55
47 47 47 47 47 47 46 45 46 46 45 45 46 47 47 47 46 46 47 47 48 49 49 48 47 40 40 40 41 41 43 50 50 50 51 51 52 53 53 54 54 55
46 46 45 45 45 46 45 44 44 44 45 46 46 46 45 45 44 45 45 46 47 48 47 47 47 43 41 41 41 41 45 50 50 50 51 51 51 52 52 53 54 54
47 47 46 45 45 45 45 44 43 44 44 45 45 45 45 45 45 45 45 45 45 46 46 45 46 44 41 41 41 41 44 48 49 49 49 50 50 51 52 52 53 52
47 46 45 45 44 44 44 44 44 44 44 44 44 45 45 45 46 44 43 44 44 44 47 45 45 45 42 40 41 41 45 48 48 48 48 49 49 50 51 52 52 51
46 45 45 44 43 43 42 42 43 43 43 44 43 45 45 44 44 44 42 42 42 43 43 44 44 44 44 40 41 41 41 46 47 48 47 47 48 49 50 51 51 51

ECMWFNIL_sfc_temp_039.txt.gz
Temp
71 72 72 72 72 72 70 70 70 69 69 69 70 69 69 69 68 68 68 68 68 69 67 67 68 69 69 69 70 72 73 71 71 71 70 70 70 70 69 70 70 72
71 71 72 72 71 71 70 70 69 70 68 68 69 69 69 69 68 69 68 68 69 69 69 69 69 70 70 70 70 70 72 71 70 71 69 69 70 69 69 69 69 71
70 70 70 70 70 69 69 69 69 69 69 69 68 70 69 69 68 68 69 69 69 68 69 69 70 70 70 71 72 71 72 70 70 70 70 71 70 70 70 70 70 70
69 69 70 70 70 69 69 69 68 69 69 69 69 70 69 68 69 69 68 68 69 69 69 69 69 70 71 71 71 72 71 70 71 70 70 70 70 71 70 70 70 71
69 69 70 70 70 69 69 69 68 69 69 70 69 69 69 69 69 70 69 68 69 69 69 69 69 69 69 70 70 70 69 70 68 70 70 70 70 69 69 70 70 69
69 71 71 70 69 68 68 69 69 69 69 68 68 69 69 70 71 70 70 69 69 70 69 70 70 69 70 70 70 70 70 70 69 69 70 70 70 70 70 70 70 70
68 69 69 69 68 68 69 69 69 69 69 69 68 68 69 70 71 71 71 71 71 71 71 69 69 69 69 70 70 69 70 70 70 70 71 70 70 68 69 69 71 71
68 69 68 68 67 68 68 69 68 68 68 68 68 69 71 72 72 70 71 71 71 71 70 70 70 69 69 70 71 69 68 68 69 70 70 70 68 69 69 69 69 71
67 67 66 66 66 67 67 68 68 67 68 69 69 69 70 72 71 70 70 71 71 70 71 70 70 70 69 70 70 70 70 68 68 69 69 68 69 69 71 70 68 69
66 66 66 66 67 67 67 67 67 67 68 69 70 70 70 68 70 71 70 70 70 70 71 70 70 69 69 71 71 71 71 70 69 69 70 70 71 71 72 70 70 69
64 65 65 66 66 67 67 67 67 68 69 70 69 69 70 69 69 70 70 71 69 71 71 71 70 70 70 70 69 69 71 70 70 71 70 70 70 70 68 71 70 70
63 63 64 64 65 65 66 66 66 68 68 69 70 69 69 70 70 70 72 72 72 72 72 72 72 71 72 71 71 70 69 69 70 70 70 71 70 70 71 71 70 70
63 63 62 61 62 63 64 65 66 67 68 68 69 69 68 68 69 69 69 71 71 70 71 71 71 71 70 70 70 71 70 70 69 69 69 70 70 70 70 70 71 71
61 61 61 61 60 62 64 65 65 66 66 66 68 68 69 70 69 69 68 69 69 70 70 70 70 70 70 71 72 71 70 70 70 69 70 69 69 69 69 69 69 69
59 60 61 62 62 62 63 65 65 65 65 66 66 66 66 68 69 69 68 68 68 68 69 69 69 69 71 70 70 70 71 70 70 71 70 70 70 70 69 69 69 69
58 59 59 59 59 59 59 61 63 64 65 66 66 67 67 67 67 67 69 68 68 67 67 66 66 65 57 51 53 68 70 70 69 70 70 71 70 70 69 69 69 69
57 57 56 56 57 57 57 60 61 61 62 62 62 62 61 62 65 67 68 68 68 67 65 64 64 61 45 47 47 47 63 68 68 69 69 69 70 70 70 70 69 70
52 52 52 51 52 52 54 56 58 58 58 59 59 60 61 63 63 64 65 66 66 66 64 61 55 43 41 44 44 45 54 66 67 67 67 68 69 70 72 72 70 69
51 50 49 48 50 51 53 54 55 55 56 57 57 58 59 60 61 62 63 64 64 62 60 58 53 40 40 40 42 43 43 55 70 68 68 68 67 68 68 68 68 68
50 50 49 50 51 52 52 52 52 53 53 56 57 57 57 57 57 57 60 60 60 60 58 55 52 42 39 40 41 41 40 51 68 66 66 67 67 67 66 67 66 67
51 51 52 52 53 54 53 53 52 53 54 54 54 54 54 55 56 56 56 57 58 59 58 55 51 40 40 40 40 41 44 53 65 64 65 65 65 65 65 66 66 66
51 51 52 53 53 53 53 53 52 52 52 53 53 52 53 55 55 56 56 56 57 57 57 56 52 40 40 41 41 40 44 64 65 65 65 65 65 64 65 66 65 65
50 50 49 51 52 52 51 51 51 51 53 54 53 53 53 54 54 54 55 55 55 55 56 55 54 44 39 40 41 40 51 64 64 66 65 64 64 63 64 64 64 65
51 50 49 48 48 48 49 49 49 51 51 53 54 53 51 53 53 53 54 54 54 53 53 54 54 46 40 40 40 39 47 61 63 64 63 63 63 63 64 64 62 52
53 53 52 50 47 46 47 48 50 51 52 53 53 54 52 53 52 51 50 50 50 50 47 50 52 48 40 40 40 40 48 60 61 63 62 61 62 63 63 64 63 58
49 49 50 49 47 47 47 45 46 46 48 50 50 50 48 47 48 49 47 46 47 48 48 49 50 51 46 39 40 40 40 54 60 60 58 58 59 59 61 62 62 63

ECMWFNIL_sfc_temp_042.txt.gz
Temp
66 74 75 77 77 76 76 76 77 76 76 77 76 76 76 76 77 76 76 76 76 76 76 75 75 75 75 75 75 77 77 76 77 77 77 75 76 75 74 75 75 75
69 75 76 77 76 74 74 75 76 76 76 76 77 77 77 76 75 76 75 75 75 76 76 76 76 76 76 75 75 75 77 76 76 79 75 74 75 75 74 74 74 75
70 75 76 76 74 73 75 76 77 77 77 77 77 77 75 75 74 75 75 76 76 76 75 75 76 76 76 77 75 76 77 76 76 77 76 76 76 76 75 75 75 74
72 76 77 76 75 75 76 77 77 77 77 76 76 76 76 76 76 76 76 76 77 76 76 76 76 77 78 77 76 75 76 77 77 77 76 76 76 76 75 76 76 76
75 77 79 78 77 78 77 77 76 76 76 76 77 77 77 76 76 77 76 76 76 76 76 76 77 77 76 76 77 76 75 76 76 76 76 76 76 76 76 76 76 75
77 80 80 80 78 77 77 77 77 77 77 76 76 78 77 77 78 77 76 76 77 77 77 77 77 77 77 77 76 76 76 76 76 76 77 76 77 77 78 76 75 75
77 77 78 79 78 77 77 77 77 77 78 77 78 77 78 77 77 78 78 77 78 77 78 77 76 76 76 76 76 75 76 77 77 77 76 76 76 76 77 77 77 77
77 77 78 78 77 77 77 78 77 77 77 78 76 77 78 79 79 78 78 78 78 78 78 78 77 78 77 76 75 75 75 76 76 77 76 77 75 75 76 77 76 77
76 76 77 77 76 76 76 78 77 77 78 77 77 77 77 78 78 78 78 78 78 78 78 77 77 77 76 75 75 75 76 75 76 76 75 75 74 75 77 77 76 76
76 76 75 75 75 76 76 77 77 77 78 77 78 77 78 78 78 79 78 78 77 78 78 77 77 76 76 77 76 76 76 75 76 76 77 77 77 78 79 78 76 74
74 75 74 74 74 75 75 76 76 77 77 78 77 77 78 77 78 79 78 78 76 78 78 78 77 77 77 77 76 77 77 76 77 78 77 77 78 78 75 78 77 76
67 70 73 74 75 76 76 76 76 76 77 77 79 78 77 77 77 78 79 79 79 79 79 79 79 78 78 78 78 77 77 77 77 77 77 78 78 78 79 78 78 78
62 62 64 69 74 75 76 76 76 76 77 77 78 77 77 77 77 78 78 79 79 79 78 78 78 78 77 77 78 78 77 77 76 76 76 77 78 78 79 78 79 79
60 60 62 65 68 71 73 75 76 76 77 77 77 76 76 77 77 76 77 78 77 78 78 78 77 77 77 77 79 77 76 76 76 75 76 76 76 77 77 77 77 77
63 63 64 65 68 69 70 71 73 75 76 76 76 76 76 78 77 77 76 77 77 76 77 77 76 76 76 74 77 76 77 76 76 76 76 76 76 76 76 77 77 77
64 64 65 66 66 67 68 69 71 72 73 74 75 75 76 76 77 76 77 76 75 76 75 74 73 69 51 44 50 71 77 77 75 76 76 76 75 75 75 76 76 76
64 63 63 63 63 63 63 65 66 68 70 72 73 74 73 74 74 75 76 76 75 74 73 70 65 56 39 40 43 45 67 75 75 75 76 75 76 75 75 75 75 77
62 59 57 57 59 61 61 61 62 62 63 66 68 69 71 73 73 74 74 73 72 71 67 64 59 44 39 40 40 40 47 68 75 75 74 75 76 76 77 76 75 75
59 58 55 55 56 57 58 58 58 59 61 63 63 66 69 70 71 71 71 70 69 68 66 64 59 41 41 39 40 40 40 51 77 76 74 75 75 75 76 77 77 75
56 56 53 53 54 55 55 55 55 56 57 59 62 65 66 67 68 67 68 67 67 65 63 60 56 43 40 39 40 39 39 45 76 73 74 75 74 75 74 74 74 74
53 53 51 52 53 52 51 51 53 54 55 55 57 60 64 65 65 65 65 65 65 64 62 57 52 39 40 40 40 40 39 46 73 72 74 73 73 73 73 74 74 74
55 54 52 52 52 52 52 52 52 53 54 56 56 59 63 63 62 62 62 63 63 63 61 58 53 39 40 41 40 41 42 66 72 72 72 73 72 72 73 74 74 73
53 54 54 54 54 54 55 54 55 56 57 59 58 58 58 58 58 59 62 62 63 62 61 59 56 44 39 40 41 39 53 72 71 72 72 71 71 71 73 72 72 72
53 54 54 55 56 56 56 56 57 58 58 60 61 60 59 58 58 56 57 58 59 60 62 60 57 45 39 40 41 39 49 68 71 71 70 70 71 70 72 73 66 51
56 55 55 55 54 54 54 55 56 57 59 60 60 60 59 60 60 58 57 57 57 57 53 58 58 50 40 40 40 40 51 67 69 71 69 68 69 70 71 72 69 58
54 53 53 55 56 55 54 52 53 54 56 58 57 58 57 57 58 59 58 56 57 58 57 58 58 57 47 38 39 41 39 57 67 66 66 65 67 68 69 70 70 65

ECMWFNIL_sfc_temp_045.txt.gz
Temp
67 69 69 69 68 70 73 76 76 75 75 76 76 76 76 77 77 76 77 78 78 77 77 77 78 77 78 78 77 78 78 77 76 76 73 73 70 69 70 72 71 72
69 69 69 70 70 73 77 77 76 76 76 77 78 78 78 78 77 78 77 77 78 77 78 77 77 78 77 78 77 76 77 76 76 78 75 74 73 72 71 72 70 72
72 70 69 68 68 71 75 76 77 77 77 78 78 78 77 77 76 77 77 77 77 77 76 77 77 77 77 77 77 77 76 75 76 77 76 76 74 72 73 72 72 71
72 71 71 70 68 70 76 75 75 77 77 77 77 78 77 77 77 76 76 77 77 77 77 77 77 78 78 78 76 76 77 77 77 76 75 73 75 75 73 75 73 72
73 73 73 69 67 71 76 76 76 77 76 77 77 77 77 76 76 76 75 75 76 77 77 78 78 78 78 77 77 76 77 76 76 74 76 75 75 74 72 74 74 73
75 77 74 71 70 75 76 77 78 77 77 76 76 77 76 76 76 76 76 76 77 78 78 78 78 78 78 78 77 77 77 77 76 77 76 76 77 77 78 75 73 72
73 74 74 73 76 78 77 77 78 78 78 77 77 75 77 77 78 78 79 78 79 78 79 77 77 76 77 76 77 76 77 77 78 77 77 77 77 76 78 77 77 77
72 73 74 76 77 77 76 77 78 78 77 77 77 78 79 80 80 79 79 79 79 79 79 80 78 78 77 77 77 76 75 76 77 77 77 77 76 76 76 78 76 75
69 67 68 74 75 77 76 77 77 77 79 77 77 78 79 80 79 79 79 80 79 78 80 80 79 80 78 77 77 76 77 76 76 76 76 76 75 76 77 77 76 75
65 66 66 73 76 76 76 76 78 77 78 78 79 79 80 79 79 80 79 79 79 79 80 79 79 78 78 78 78 77 76 76 77 76 77 77 76 77 78 76 76 73
65 65 68 74 75 76 76 77 77 77 77 79 78 78 79 78 78 80 79 79 78 79 80 79 79 79 78 77 77 77 77 77 76 77 76 77 77 77 76 77 75 74
64 64 70 74 76 75 76 76 77 77 78 78 80 78 79 79 78 80 80 81 80 81 81 80 81 80 80 79 78 78 77 77 77 78 77 78 78 80 80 79 76 75
66 65 67 73 75 75 76 77 77 77 77 78 78 79 78 78 80 80 80 81 81 80 81 79 80 80 80 79 79 79 78 77 77 77 77 77 78 80 80 79 79 79
69 70 72 73 75 75 76 75 75 76 77 78 79 78 78 79 79 79 79 81 80 80 81 81 79 80 80 80 80 79 77 77 77 77 77 77 77 79 80 80 80 79
69 71 73 74 76 75 75 74 74 75 78 78 78 78 78 80 79 79 79 80 80 79 80 80 77 68 64 64 71 78 79 76 76 77 77 76 77 78 78 78 79 79
68 66 70 72 73 74 75 75 74 75 76 77 77 78 78 79 79 78 79 78 77 78 78 75 68 63 49 42 47 64 74 78 76 76 76 76 76 76 76 77 78 78
68 66 68 70 72 72 73 74 75 74 74 75 76 76 76 77 77 77 77 77 77 77 74 68 64 56 41 39 42 41 64 74 77 75 77 77 76 75 75 75 76 78
67 68 67 67 69 70 70 70 69 71 72 73 73 73 74 76 75 76 76 76 74 72 69 66 60 44 39 41 40 39 44 65 75 76 76 76 77 76 76 76 76 76
65 65 63 64 64 65 66 67 67 67 67 67 67 70 72 73 74 74 73 72 71 70 67 65 61 41 40 39 40 39 36 51 77 77 76 76 76 77 77 78 77 76
61 60 59 59 59 61 62 63 63 61 61 64 66 67 67 67 67 68 69 69 67 66 64 62 58 44 40 39 41 39 40 46 75 77 75 77 76 76 76 75 75 76
58 57 56 55 55 56 57 58 57 57 57 58 59 61 63 63 62 62 64 64 64 63 62 59 53 39 40 39 40 40 38 47 74 74 75 75 75 75 75 75 75 74
54 54 55 55 53 53 53 53 53 54 53 54 56 57 58 59 61 64 63 64 63 62 60 59 55 39 39 40 40 40 41 66 73 73 73 74 74 74 75 75 75 75
53 52 52 53 52 52 52 52 52 52 52 54 54 55 55 55 56 60 63 64 63 61 59 58 55 43 39 40 41 39 50 69 72 73 73 72 72 72 74 75 73 73
53 53 52 52 52 52 52 51 52 52 53 54 53 53 54 55 56 56 57 61 61 61 61 58 54 45 39 40 41 40 48 67 73 74 72 72 71 72 73 71 61 51
52 53 53 52 51 51 52 52 52 53 56 56 55 54 54 55 56 55 56 57 57 57 56 58 56 49 40 40 40 41 49 64 70 73 72 71 72 72 73 71 62 50
52 52 52 52 52 52 52 52 54 55 55 55 56 56 54 53 54 54 54 53 54 56 56 57 55 50 44 40 40 42 40 57 68 68 67 68 70 71 71 73 63 55

ECMWFNIL_sfc_temp_048.txt.gz
Temp
67 67 66 66 66 67 67 67 68 68 69 71 70 71 72 72 73 72 73 73 73 73 73 73 73 72 74 73 72 72 72 71 68 69 69 69 68 69 69 69 68 68
67 67 66 66 66 66 67 68 67 68 69 71 72 71 72 72 72 73 72 73 73 73 73 73 72 73 73 73 72 70 69 69 69 72 69 69 68 69 68 69 68 68
68 67 67 66 66 66 66 67 67 67 69 72 73 73 73 73 72 72 72 72 72 72 72 72 72 72 73 73 72 71 70 69 69 70 69 69 68 68 68 68 67 68
68 68 68 68 68 68 68 67 68 68 70 72 72 73 73 73 73 72 72 73 72 72 71 72 72 72 73 73 72 71 71 70 69 69 69 68 68 69 68 68 68 68
69 69 70 69 69 68 68 68 69 71 72 72 73 72 72 71 71 72 71 72 72 72 71 72 72 72 72 71 72 71 71 69 70 70 69 69 69 69 69 68 67 67
70 71 71 70 69 68 67 68 71 72 72 71 71 72 72 72 72 72 71 71 72 72 72 72 72 72 72 71 71 71 70 70 70 70 71 69 69 70 72 70 69 67
70 70 70 70 69 69 69 69 72 73 73 72 73 72 73 72 72 72 72 72 73 72 73 72 71 71 71 72 71 71 71 71 71 71 71 70 69 69 72 71 70 70
70 71 71 71 69 70 70 71 73 72 72 73 72 72 73 73 73 72 73 73 73 73 73 73 72 72 71 71 72 71 70 72 70 71 71 71 68 66 67 69 69 69
71 71 71 70 70 70 71 73 73 73 74 72 72 72 73 74 74 73 73 73 73 73 73 73 73 72 71 71 71 71 70 70 69 68 69 69 69 69 70 70 68 69
71 71 71 71 71 71 72 72 72 73 73 73 74 73 74 73 74 75 74 73 73 73 73 73 73 72 72 73 73 72 70 69 70 69 70 71 70 71 73 70 68 66
70 70 70 70 70 71 71 72 72 73 73 74 73 73 74 73 74 75 73 74 72 74 74 73 73 73 72 72 71 71 71 70 71 70 71 71 72 71 72 71 69 67
68 68 68 70 71 71 72 72 72 72 72 72 75 74 73 73 73 73 76 75 75 75 75 74 74 73 74 73 72 72 71 71 70 70 70 71 70 70 71 71 69 69
67 67 67 68 69 70 71 72 71 71 72 73 73 73 73 72 73 73 72 75 75 75 74 74 75 75 73 72 73 73 71 71 71 69 70 70 71 71 72 72 71 70
65 65 65 66 68 70 71 71 71 71 71 72 72 72 72 74 73 73 73 74 74 74 74 72 68 65 65 70 73 72 71 71 71 70 70 71 70 70 71 71 71 70
64 65 65 65 67 69 69 70 70 70 70 71 70 70 72 73 74 74 73 72 74 73 68 66 63 58 55 54 63 66 71 70 71 72 71 69 70 71 71 71 71 69
65 64 65 64 65 68 69 70 70 69 69 69 71 72 72 72 73 73 73 71 72 69 66 64 59 56 46 41 45 59 66 72 70 69 70 69 69 69 68 69 70 67
65 64 64 64 64 66 67 69 70 70 69 69 69 70 70 71 71 72 72 73 72 66 64 59 55 50 42 39 41 42 60 65 68 68 69 70 70 69 68 68 69 69
63 63 63 63 63 66 65 67 68 69 68 67 67 68 69 70 69 70 69 67 65 65 61 58 53 43 40 41 41 41 43 56 65 68 68 68 70 69 70 70 68 68
62 62 61 61 62 64 65 65 65 63 63 65 65 66 67 68 68 67 66 65 63 61 59 56 53 41 40 40 41 40 40 48 67 68 68 68 69 70 70 69 69 68
57 57 58 60 61 62 62 61 61 61 62 63 64 64 62 61 61 61 61 61 61 58 56 53 49 42 40 40 40 40 39 44 64 66 67 70 69 70 68 66 67 67
54 54 55 55 56 57 58 58 58 58 58 59 60 60 60 59 59 58 58 58 58 57 55 52 47 40 40 40 41 41 41 46 63 66 68 66 67 68 67 67 67 67
53 52 53 53 54 54 53 53 53 54 55 56 56 56 58 59 59 58 57 57 56 55 53 51 49 40 40 41 41 40 45 61 64 66 65 67 67 67 68 67 67 67
51 51 51 51 52 51 51 51 51 51 52 54 53 53 52 52 53 54 55 54 54 53 51 49 49 43 40 41 41 41 48 60 63 66 66 66 65 66 64 56 57 62
50 50 50 51 51 51 50 50 50 50 51 51 51 50 50 51 51 50 51 52 52 52 51 49 49 45 41 41 41 41 47 57 62 65 65 64 64 66 59 52 48 49
49 49 49 49 49 49 50 50 50 50 50 51 50 51 50 51 51 50 51 52 52 51 53 51 48 46 41 40 41 41 47 56 61 61 62 63 64 63 57 54 48 44
49 49 49 49 49 49 50 49 50 50 50 50 50 51 51 50 50 51 51 50 51 50 50 50 48 46 43 40 41 42 43 54 57 56 56 58 60 61 57 54 54 50

ECMWFNIL_sfc_temp_051.txt.gz
Temp
64 64 63 62 63 63 63 63 63 64 65 66 66 66 67 66 67 68 68 68 68 67 67 66 66 66 66 67 67 67 67 66 66 65 65 65 64 64 65 64 64 63
64 63 62 63 63 63 63 64 64 64 65 66 67 67 67 67 67 68 67 67 68 68 68 67 66 66 65 66 66 66 65 65 65 68 65 65 64 65 65 65 64 63
63 63 63 63 63 64 64 65 65 65 65 67 68 67 67 67 67 67 67 67 67 67 66 67 67 66 65 65 65 66 65 65 65 66 65 65 64 64 64 64 63 63
65 64 64 64 64 65 65 64 64 64 65 66 67 68 69 68 67 66 67 68 66 66 66 66 67 67 67 65 65 65 66 66 65 65 65 64 64 64 64 64 63 63
65 64 64 64 64 65 64 64 64 64 65 66 67 68 68 67 66 66 66 65 66 65 65 65 66 66 66 66 66 65 65 64 64 64 64 63 64 65 64 64 63 63
64 66 65 64 64 64 63 64 64 65 66 66 66 68 68 67 66 66 65 65 66 66 66 65 65 65 65 65 65 65 64 64 64 65 64 64 63 64 66 64 63 62
63 65 65 65 64 64 64 64 65 65 67 67 68 67 68 67 66 66 65 65 66 66 66 64 65 64 64 66 64 64 65 65 65 65 65 64 64 63 65 64 64 63
64 64 64 64 63 63 64 64 65 65 66 68 68 68 68 67 67 66 65 65 65 65 65 65 65 65 64 65 64 64 64 66 65 65 65 64 63 64 64 66 64 63
64 65 65 64 63 62 63 65 65 66 67 67 67 66 67 67 66 66 65 64 64 64 66 65 65 66 64 64 62 63 64 65 65 63 63 63 63 64 64 64 63 63
64 66 65 64 64 64 64 64 64 65 66 67 67 67 67 66 65 66 65 63 65 64 66 65 65 65 65 64 64 63 64 64 63 63 63 63 64 64 64 63 62 62
62 65 65 64 64 64 65 65 65 66 66 67 66 66 66 65 66 66 66 64 65 65 65 65 65 65 64 64 63 64 64 64 63 62 63 64 65 64 65 64 62 62
61 62 64 65 65 65 65 66 67 67 67 66 67 66 64 65 67 66 67 66 67 64 66 65 66 66 66 64 64 64 64 63 63 62 63 64 64 64 65 64 63 62
61 62 63 65 65 65 66 66 67 67 67 66 67 65 65 65 66 66 65 68 65 64 63 63 63 63 62 63 65 65 63 63 63 62 62 61 61 63 64 64 64 64
61 62 62 63 65 66 66 67 67 67 66 66 66 65 66 67 66 67 64 64 61 61 60 59 58 57 57 59 62 62 63 62 63 61 62 62 61 61 63 64 64 64
60 61 62 64 65 65 65 66 67 66 65 65 66 66 67 68 66 65 63 62 60 58 57 55 53 50 49 48 56 61 61 61 61 61 62 61 61 61 61 63 63 62
61 61 63 64 65 66 66 66 66 64 65 65 66 67 66 65 64 65 63 60 58 56 54 52 50 48 46 44 46 57 58 62 62 60 61 60 62 61 61 61 62 60
62 62 61 64 65 65 65 65 65 64 64 65 64 65 64 63 63 61 60 59 56 54 52 50 47 45 43 41 42 47 57 57 59 59 59 59 60 62 61 61 59 59
60 61 60 61 63 64 65 65 64 64 63 62 62 62 61 62 61 60 58 57 54 52 50 48 46 43 41 42 42 41 48 56 59 60 59 59 59 61 63 61 60 60
60 59 58 58 59 61 62 62 62 61 60 59 59 60 61 59 58 57 56 54 53 51 48 47 46 42 41 42 42 41 42 52 59 58 60 58 59 60 60 60 59 60
57 57 57 57 58 58 59 60 59 58 57 58 58 58 57 57 56 55 54 53 51 50 48 47 45 43 42 42 42 42 42 49 58 57 58 58 59 60 60 59 59 59
54 55 55 55 56 55 55 55 56 56 56 55 55 55 55 54 54 53 52 52 51 50 48 46 44 41 41 42 42 43 44 50 57 59 58 58 58 57 58 59 57 55
51 51 51 52 52 52 53 52 52 53 52 52 53 53 53 53 53 52 51 50 50 49 48 46 44 40 41 42 43 43 47 55 56 56 57 56 53 53 54 55 55 53
49 49 50 49 49 49 49 50 50 50 50 51 51 50 50 50 50 50 50 49 48 48 47 45 44 42 41 42 43 44 50 55 55 57 56 52 50 49 49 49 51 50
49 49 48 49 49 48 48 48 49 49 49 49 49 48 48 49 49 48 49 49 48 47 46 44 44 43 41 42 43 44 50 55 56 57 55 51 49 48 47 46 48 50
48 49 48 48 48 48 48 48 48 48 49 49 48 48 48 48 48 48 47 48 48 48 49 45 44 44 41 42 43 44 50 53 54 55 55 53 51 49 49 47 45 44
48 49 48 48 48 49 49 48 49 49 48 48 48 48 48 48 48 47 47 46 47 46 47 46 45 44 43 41 42 43 45 52 51 52 52 52 52 51 49 48 47 46

ECMWFNIL_sfc_temp_054.txt.gz
Temp
62 62 62 62 62 62 63 63 63 63 63 64 64 65 66 66 64 65 65 64 64 64 64 64 64 64 65 64 64 64 64 64 63 63 63 63 62 62 62 61 60 61
62 62 61 61 61 61 62 64 64 64 63 64 65 65 66 66 65 66 65 65 65 64 64 64 64 64 63 64 63 63 63 64 63 65 63 63 62 63 62 62 62 61
62 61 60 60 61 61 62 62 63 63 62 63 63 64 65 66 66 66 66 65 65 64 64 64 64 63 64 64 63 63 63 63 63 64 64 63 62 63 63 62 61 61
62 62 61 61 61 63 62 61 61 62 62 63 63 64 64 66 66 65 65 67 64 64 64 64 64 64 64 64 63 62 63 63 64 64 64 63 63 63 62 62 62 61
62 61 61 61 62 61 61 62 62 62 63 63 64 65 64 65 65 65 65 64 65 64 64 64 64 63 64 63 63 63 63 62 62 64 63 62 62 63 63 62 61 61
63 63 63 63 62 61 61 62 64 63 63 62 62 65 66 65 65 65 65 64 64 64 64 64 63 63 63 63 63 63 63 62 63 63 63 62 62 62 64 63 62 61
63 62 62 62 61 62 63 64 65 64 64 63 63 64 65 65 65 65 65 65 64 64 64 63 63 62 63 63 62 62 62 63 63 63 62 61 62 61 62 62 62 62
62 62 62 62 61 61 61 63 64 64 63 63 63 65 65 66 65 65 65 65 65 64 63 63 63 63 62 62 62 62 62 63 62 62 62 61 61 61 61 63 62 61
62 62 62 62 61 61 61 62 64 64 64 64 64 64 65 66 66 65 65 65 65 63 63 62 62 62 62 62 62 62 62 62 62 62 61 61 61 61 62 62 61 61
62 62 62 63 62 62 63 63 64 64 64 64 64 65 65 65 66 65 65 64 64 63 63 63 63 62 62 62 63 62 62 62 62 62 62 62 62 62 62 62 61 60
60 62 62 63 62 62 63 63 63 65 65 65 64 65 66 65 65 65 65 64 63 64 64 64 63 63 63 61 61 62 63 62 62 62 62 62 62 62 63 62 62 61
60 61 62 63 63 63 63 63 64 64 65 63 63 64 64 65 65 65 66 64 64 64 64 64 64 63 63 61 61 62 62 62 62 62 62 62 61 62 62 61 61 61
60 61 62 63 63 63 63 63 63 63 65 63 63 63 63 65 64 64 64 64 62 62 63 63 63 63 62 60 61 62 62 61 61 61 61 61 62 61 62 61 62 62
60 60 60 61 63 64 63 63 63 62 62 64 65 64 64 65 64 63 60 58 57 57 56 56 56 55 54 58 61 61 61 60 61 60 60 60 60 61 61 61 61 61
60 59 60 60 61 63 64 63 63 62 61 62 62 64 65 65 62 60 58 57 55 54 53 52 51 49 48 47 54 60 59 60 60 59 59 59 58 59 60 61 60 60
60 59 59 60 61 62 64 64 64 63 62 61 62 65 64 62 61 59 58 57 54 52 51 50 48 48 47 46 45 53 57 61 59 58 57 57 58 57 57 59 60 59
59 59 59 59 62 63 63 64 63 61 60 61 63 63 61 60 59 57 56 55 54 52 50 48 47 46 43 41 43 50 56 56 56 56 57 57 57 58 58 58 57 57
59 59 58 59 61 63 63 64 62 60 60 60 60 60 59 58 56 55 54 53 52 51 49 48 45 44 41 42 42 44 51 55 56 57 56 56 57 58 58 58 57 56
58 58 58 58 59 62 61 61 62 60 59 58 59 59 57 55 54 53 52 52 51 50 49 48 46 42 41 42 43 43 47 53 56 56 56 55 56 58 58 57 56 55
54 57 57 57 57 58 59 59 59 58 57 57 58 56 55 53 52 52 51 51 50 49 48 47 45 43 41 43 43 44 46 51 56 56 56 55 55 55 56 55 54 53
49 53 53 54 54 55 54 54 54 54 55 55 55 53 53 52 51 50 50 50 49 49 48 46 44 42 42 43 43 45 47 50 55 54 53 52 52 52 52 51 50 49
49 49 51 52 53 53 52 52 51 51 51 51 53 52 52 51 50 50 49 48 49 49 48 46 45 41 42 43 45 46 48 53 52 51 49 49 48 49 49 48 48 48
48 48 48 49 50 50 50 50 50 49 49 50 50 49 48 48 47 47 48 48 47 48 47 46 46 43 42 44 45 47 49 52 51 50 48 47 46 47 47 48 48 48
48 48 48 48 48 48 48 48 48 48 48 48 48 47 47 47 46 46 46 46 46 46 46 45 44 43 42 43 45 46 50 52 51 49 47 47 46 46 46 46 47 50
48 48 48 48 47 47 48 48 48 47 48 48 47 47 47 46 46 45 45 45 46 46 48 45 44 43 42 42 43 46 51 54 53 51 49 47 47 46 46 45 45 45
48 48 48 48 48 48 48 47 48 48 48 47 47 46 46 45 44 44 44 43 44 45 45 45 44 43 42 41 42 43 46 52 53 52 50 49 49 49 48 47 47 46

ECMWFNIL_sfc_temp_057.txt.gz
Temp
62 62 62 62 62 62 61 61 60 61 61 62 62 63 63 63 63 63 63 63 63 63 63 63 62 62 63 63 62 63 63 62 62 62 62 62 62 61 61 61 60 60
62 62 62 62 61 61 61 62 62 61 61 61 61 61 62 62 61 63 62 62 63 63 62 63 62 62 62 62 62 61 61 62 62 63 61 62 62 61 62 61 61 60
62 62 62 62 61 60 61 61 62 62 62 62 62 61 62 63 62 62 62 62 62 62 62 62 62 62 62 62 62 62 62 61 62 62 62 61 61 61 61 61 60 60
62 63 62 62 61 61 60 61 61 61 61 61 61 62 63 63 62 62 62 63 62 62 61 61 62 62 63 63 63 62 63 62 63 62 62 61 61 62 61 61 61 60
62 63 62 62 61 61 60 61 61 61 61 62 62 61 61 62 62 62 62 62 63 63 62 62 62 62 63 63 63 62 62 62 62 62 62 61 61 61 61 61 60 60
63 63 62 61 61 61 60 61 61 61 61 61 61 62 62 62 62 62 62 62 63 63 62 61 61 62 62 62 62 62 62 61 61 62 62 61 61 61 62 61 60 60
62 62 62 61 61 61 61 61 61 61 61 62 62 61 61 61 62 62 63 63 63 63 62 61 61 61 62 61 61 61 61 61 61 62 62 61 61 60 61 61 60 60
62 63 63 62 61 60 61 61 61 61 61 61 61 62 62 62 63 63 63 62 63 63 62 62 62 62 61 61 61 60 60 61 61 61 61 60 59 60 60 61 60 60
62 62 62 62 60 60 60 60 61 61 62 61 61 61 62 63 63 63 63 63 62 62 62 62 62 61 61 60 60 61 60 60 61 61 60 60 59 60 61 60 60 60
61 61 61 61 60 60 60 60 61 62 62 62 62 62 63 63 64 64 63 63 62 61 62 61 61 61 61 61 61 61 60 60 60 60 60 60 61 61 61 60 60 59
60 61 60 60 60 60 60 60 61 62 62 62 62 62 62 61 62 63 63 63 62 62 61 61 61 61 61 60 60 61 61 61 60 61 60 60 61 61 62 61 60 60
60 60 60 60 60 60 60 60 60 61 61 61 62 62 61 61 61 62 64 63 62 62 62 62 61 61 61 60 60 60 60 61 61 61 60 60 60 61 61 61 61 61
59 60 59 59 60 60 60 61 61 60 61 61 61 61 60 60 61 59 59 61 63 62 62 62 61 60 60 59 60 60 60 60 60 60 60 60 60 60 61 61 61 61
59 59 59 59 59 60 60 61 61 60 60 60 60 61 59 61 60 61 60 60 59 60 59 59 59 58 58 58 59 60 60 59 59 59 59 59 59 60 60 60 60 61
57 58 58 58 60 60 60 60 61 60 60 60 59 59 60 60 60 59 58 57 55 55 55 55 56 55 53 56 58 58 59 59 59 59 59 59 58 58 58 59 59 59
52 56 58 58 59 59 60 61 60 60 60 59 60 60 60 59 58 58 57 56 54 52 52 52 51 49 50 48 52 58 57 59 58 58 58 58 58 57 57 57 58 57
51 53 57 58 58 59 60 60 60 59 59 59 59 59 58 57 56 56 55 54 54 52 50 49 47 48 44 42 43 48 56 56 57 57 57 57 58 58 57 57 54 53
50 52 54 57 58 59 60 60 59 59 58 58 58 57 55 54 54 55 54 52 51 50 49 47 46 45 42 43 45 47 52 56 57 57 56 56 57 57 57 56 54 53
50 50 51 55 57 59 60 58 59 59 58 58 58 57 54 53 53 53 52 50 50 49 47 46 45 42 42 43 45 46 48 53 55 54 55 52 52 52 54 54 53 52
49 49 49 50 55 57 57 57 58 58 57 56 54 52 52 52 51 51 50 49 48 48 46 45 45 43 43 43 45 45 46 50 54 53 53 52 52 52 53 52 51 51
49 49 49 49 50 54 55 56 58 57 55 52 51 50 50 51 50 50 49 47 47 46 46 45 44 42 43 43 44 45 45 47 51 51 50 49 48 48 48 48 48 48
47 48 48 48 48 50 53 54 55 53 50 49 48 47 47 47 47 48 48 47 46 46 46 45 44 41 42 43 44 45 47 50 49 49 48 47 47 47 47 47 47 48
47 47 48 48 48 47 48 50 50 48 48 47 46 46 45 45 46 47 47 46 46 46 45 44 44 42 42 43 44 45 47 49 48 47 46 45 45 45 46 47 48 48
47 47 47 48 48 47 47 47 47 47 47 48 46 45 44 44 44 44 45 45 45 44 45 44 43 42 42 42 43 45 48 50 48 47 45 45 44 44 44 45 46 49
47 47 46 47 48 47 47 46 46 46 47 46 45 45 44 44 44 43 43 43 44 45 47 45 44 44 42 42 43 45 49 51 50 49 47 46 45 44 44 44 44 44
46 46 46 46 47 48 48 47 47 46 45 45 44 44 43 43 44 43 43 43 44 44 44 44 43 42 42 41 42 43 46 52 51 50 48 47 47 47 45 44 44 43

ECMWFNIL_sfc_temp_060.txt.gz
Temp
61 61 61 61 61 62 62 62 62 62 62 62 62 62 61 62 63 63 63 63 63 63 63 63 63 63 63 62 63 63 63 63 63 63 63 63 63 62 62 62 62 62
61 61 61 62 61 61 62 62 62 62 62 62 62 62 62 62 62 63 62 62 63 63 63 63 63 63 62 63 63 62 62 62 62 63 63 63 63 62 63 62 62 62
61 61 60 61 61 62 62 63 63 62 62 62 63 62 62 62 62 63 62 62 62 62 63 62 62 63 63 63 63 63 63 62 62 63 63 62 61 61 62 61 61 62
61 61 61 61 62 62 62 62 62 62 62 62 62 62 62 63 63 62 62 63 62 62 62 62 62 62 63 63 62 62 63 63 63 62 62 62 62 62 61 61 62 62
61 61 62 62 62 62 62 62 62 62 61 61 62 61 62 62 62 62 62 62 62 62 62 62 62 62 63 63 63 62 62 61 62 62 62 61 61 62 62 61 61 61
62 62 62 62 62 61 61 61 62 62 61 61 61 61 62 62 62 62 62 61 62 62 61 61 61 62 62 63 62 62 62 61 61 62 61 61 61 61 62 62 62 61
62 62 62 62 61 61 61 62 62 61 61 61 61 61 62 62 62 62 62 62 62 62 61 61 61 61 62 62 62 62 62 62 62 62 62 61 61 61 62 62 62 62
62 62 63 63 61 61 61 61 61 61 61 61 61 61 62 62 62 62 62 62 62 62 62 62 61 61 61 62 61 61 61 62 62 62 62 61 61 61 61 62 61 62
61 61 62 62 62 61 60 61 61 61 61 60 61 61 61 62 62 62 62 62 62 62 62 61 61 61 61 61 61 62 61 61 61 62 62 61 61 61 61 61 61 61
60 60 60 60 61 61 61 61 60 60 61 61 61 61 61 62 62 63 62 62 61 61 61 62 62 61 61 61 62 62 61 61 61 62 62 62 62 62 62 61 61 60
58 60 60 59 59 59 60 60 60 61 61 61 61 61 62 61 61 62 62 62 61 61 61 61 62 61 61 61 61 62 62 61 61 62 62 62 63 62 63 62 61 61
53 54 57 60 59 59 59 60 60 60 61 61 61 61 61 62 61 61 62 62 62 62 62 62 62 61 61 61 61 61 61 62 62 61 61 62 62 62 63 63 62 62
51 52 53 56 59 59 59 59 59 60 60 61 61 61 61 60 61 61 60 61 60 61 61 62 62 61 61 61 61 61 61 61 61 61 61 61 61 62 63 63 63 63
50 51 53 54 57 60 59 59 60 59 60 60 61 60 60 60 60 60 59 59 59 60 60 61 60 61 61 61 61 61 61 61 61 60 60 60 61 61 62 62 62 62
50 51 52 54 57 59 59 59 60 60 60 60 60 60 60 60 60 60 59 59 59 59 59 60 60 60 60 60 60 61 61 61 61 60 60 60 60 61 61 61 62 62
50 51 52 52 55 58 59 60 59 59 60 60 60 60 60 60 60 60 59 59 58 57 57 58 59 58 57 54 55 61 60 61 60 60 60 60 60 59 59 60 60 60
50 51 51 51 52 55 58 59 59 59 59 59 59 59 59 59 59 58 57 57 58 57 56 56 55 55 50 47 49 52 59 60 60 59 60 60 60 60 59 58 58 58
49 50 50 51 51 53 56 59 60 59 58 58 58 58 58 58 57 57 57 56 56 56 55 54 53 49 44 43 45 47 52 59 59 59 59 59 59 60 60 58 57 56
49 49 49 50 50 51 53 57 59 59 58 58 58 58 56 56 56 55 55 54 54 53 53 52 51 45 42 43 43 43 47 54 59 59 58 57 58 58 58 57 56 55
49 49 48 49 49 50 51 55 58 58 58 57 56 55 55 54 53 53 53 52 52 52 51 49 49 45 42 42 42 43 44 51 56 56 55 54 55 56 56 56 55 55
48 48 48 48 48 49 49 48 51 56 56 55 54 53 52 51 51 51 50 50 50 49 49 48 48 44 42 41 42 43 44 48 54 52 51 50 50 51 52 52 52 52
47 47 47 48 47 47 46 46 47 47 49 49 49 47 47 47 47 49 48 48 48 48 49 48 45 42 41 41 42 43 46 52 52 51 49 49 49 48 49 49 49 50
47 47 47 47 46 46 45 45 44 45 45 46 46 46 46 45 45 45 46 47 47 48 48 46 45 42 41 41 43 44 47 51 50 49 48 47 47 47 48 49 49 49
46 46 46 46 46 45 45 44 45 45 44 45 44 44 43 44 44 44 44 45 46 46 47 46 44 43 42 42 43 44 49 51 50 48 47 46 46 46 47 47 49 49
46 46 46 46 46 45 45 45 45 44 45 45 44 44 43 44 44 43 43 43 44 45 47 46 45 44 41 41 43 45 49 51 50 49 47 46 46 45 46 46 46 45
44 45 46 46 46 46 46 45 46 45 45 44 44 44 43 43 43 43 42 42 43 43 44 44 43 43 42 41 42 43 46 51 51 50 47 46 47 48 46 46 45 45

ECMWFNIL_sfc_temp_063.txt.gz
Temp
65 65 63 63 63 65 65 65 65 65 67 67 66 67 66 67 69 68 66 65 64 64 64 64 65 65 65 65 66 66 66 67 66 67 67 67 67 71 70 70 70 71
64 65 64 64 64 64 64 64 64 65 65 66 66 67 67 66 66 67 66 65 64 64 65 64 65 65 65 65 66 66 67 67 66 67 66 66 67 71 70 70 69 69
64 64 65 65 64 64 65 65 65 65 64 65 64 64 65 66 66 66 66 65 64 64 64 65 65 65 65 65 66 67 68 67 66 67 66 66 67 68 70 69 69 68
65 66 66 66 66 67 67 66 66 66 65 63 64 65 65 66 66 66 65 66 65 65 66 65 65 65 65 66 67 67 67 67 67 69 67 67 68 69 69 70 70 70
62 65 66 66 66 67 67 66 66 65 65 63 64 64 65 65 65 65 65 66 66 66 66 66 66 65 65 65 68 67 67 66 65 66 66 68 69 69 68 69 68 69
60 63 66 66 66 66 65 65 66 65 65 64 64 65 64 64 65 65 64 64 64 65 65 66 64 64 64 64 65 67 67 65 66 66 68 67 67 67 68 67 66 65
58 60 63 66 66 66 65 64 64 64 65 65 65 64 65 64 64 65 65 64 65 65 66 64 63 64 64 64 64 64 64 64 64 64 65 65 65 64 67 66 66 67
57 59 60 63 64 66 65 64 65 65 65 66 65 66 65 64 65 65 64 65 65 66 67 68 66 67 66 64 63 63 63 64 64 65 66 65 63 65 66 66 67 68
57 57 58 59 61 64 64 64 65 65 66 65 64 65 67 66 65 66 66 67 67 66 66 65 66 67 66 63 63 63 63 63 65 65 64 65 65 66 67 68 68 69
57 57 57 57 58 60 63 65 65 65 65 64 65 66 67 67 68 68 68 67 66 67 67 67 66 67 67 64 64 64 63 65 66 65 66 68 68 70 71 70 70 70
56 56 56 56 56 58 60 63 64 65 65 65 65 65 67 67 68 68 66 65 63 63 64 67 68 68 67 66 65 65 64 64 65 66 68 70 71 72 70 71 71 71
56 57 57 56 56 57 58 61 63 64 65 64 65 65 66 66 67 65 64 67 66 65 65 67 68 68 68 69 67 66 65 66 66 67 67 71 72 72 73 72 71 72
56 56 56 57 56 57 58 61 62 63 65 65 65 65 66 66 66 67 66 68 67 64 64 65 67 68 66 65 66 67 67 69 68 68 69 70 71 72 73 72 72 72
55 56 56 57 57 58 58 60 62 63 64 65 64 63 64 66 67 67 68 68 68 67 67 68 68 69 68 67 68 68 69 69 70 69 70 70 70 69 69 71 69 69
55 56 56 57 57 57 57 57 59 61 63 64 64 63 63 65 66 68 68 67 68 67 67 67 68 68 68 69 68 68 68 68 70 70 70 70 69 69 69 69 67 67
56 55 56 56 57 57 57 56 57 58 61 62 63 63 64 64 66 67 68 68 67 66 66 65 66 68 63 56 58 67 69 70 69 69 70 69 68 68 68 68 68 67
55 55 55 55 56 56 55 55 56 57 59 61 62 63 63 63 64 66 67 68 68 66 65 64 64 64 52 48 49 53 66 69 70 69 69 70 69 68 68 68 68 69
53 54 54 54 55 55 54 53 54 55 57 60 61 61 62 63 63 65 66 67 66 67 66 65 63 55 47 47 47 47 55 68 70 71 70 71 71 71 71 70 70 69
54 53 53 53 54 54 53 52 52 51 51 53 57 61 61 61 62 63 66 67 66 67 66 65 63 49 45 46 46 45 47 59 71 71 70 70 70 70 70 69 69 70
53 53 52 53 53 53 52 51 50 48 49 49 50 54 59 60 61 62 64 64 65 65 65 65 63 49 43 44 44 44 44 52 71 69 69 69 69 70 70 69 68 68
53 53 52 52 53 53 52 50 48 48 48 47 48 47 47 50 56 59 60 59 61 62 65 63 61 44 42 42 42 42 42 50 68 66 67 66 67 67 69 68 67 66
52 52 52 53 52 52 51 49 48 47 46 46 46 46 47 47 46 48 50 53 54 54 57 60 56 40 41 41 41 41 43 63 66 65 65 65 64 64 65 66 67 66
52 52 52 53 52 51 50 49 49 47 46 47 45 45 45 45 45 46 47 49 50 51 51 51 52 44 39 41 41 41 50 65 64 64 63 62 61 61 62 62 63 64
52 52 52 52 52 51 50 50 50 50 48 48 45 44 44 44 45 45 45 46 47 47 47 47 48 45 40 41 41 42 53 64 65 64 61 60 58 59 61 61 57 50
53 53 52 52 51 51 51 51 50 50 50 49 47 46 45 44 44 43 44 44 45 46 46 45 45 45 40 39 42 43 54 63 64 63 60 59 59 57 58 59 58 53
52 52 52 52 51 50 51 52 52 52 51 50 49 47 45 45 45 44 43 43 44 45 44 44 44 45 42 39 39 42 44 58 63 61 59 58 59 59 57 57 57 57

ECMWFNIL_sfc_temp_066.txt.gz
Temp
69 69 69 70 71 71 71 70 71 71 71 71 72 74 74 74 72 71 70 71 72 71 70 69 68 68 68 66 66 65 65 65 66 68 68 68 67 73 72 71 69 73
68 69 69 70 71 71 71 71 71 71 72 72 73 74 75 74 74 73 72 72 72 71 71 68 66 66 66 66 65 64 65 65 65 68 68 68 69 73 72 70 68 67
67 67 67 68 69 70 71 71 72 71 71 73 73 74 74 74 73 74 74 73 73 72 71 69 67 66 66 66 66 65 65 65 65 67 68 68 68 71 72 72 69 68
66 66 66 67 68 69 71 71 72 72 72 71 71 72 72 72 72 72 72 73 73 72 71 68 67 67 66 66 66 65 66 66 67 68 68 68 66 69 72 72 70 68
65 64 65 65 67 68 70 71 71 72 72 72 71 71 72 72 71 71 71 72 72 72 71 69 69 66 66 65 66 65 65 66 67 67 66 66 68 71 70 69 69 68
66 66 65 66 67 66 67 68 70 71 72 71 70 72 72 71 71 71 71 72 72 72 71 71 69 66 65 66 66 65 65 65 65 67 66 66 69 71 72 69 67 66
66 66 65 66 65 67 66 67 68 70 72 71 71 69 71 71 71 71 72 73 74 73 73 71 67 65 65 64 65 65 66 66 67 68 68 69 69 68 69 68 67 69
66 66 67 66 65 65 66 66 67 68 70 71 69 69 70 70 71 71 71 72 74 74 73 71 69 67 65 65 64 64 65 67 66 67 68 69 70 69 67 69 72 72
66 66 66 66 65 65 65 65 66 67 69 68 68 67 68 69 69 70 71 71 72 72 73 74 73 69 65 63 64 65 65 65 65 66 67 69 69 70 71 70 69 70
65 65 64 64 64 64 63 64 65 66 67 67 68 68 68 68 69 70 70 70 70 72 74 74 73 68 65 66 66 67 65 65 64 65 66 66 68 70 71 70 70 70
64 66 64 63 62 63 63 64 64 65 66 67 68 68 69 68 68 70 69 70 70 71 72 75 74 71 67 65 65 67 67 65 65 65 65 67 68 70 69 70 70 71
64 63 63 63 62 63 63 64 64 64 65 66 68 68 68 68 69 69 70 72 74 70 74 75 73 71 70 67 64 65 65 65 64 65 66 69 71 71 69 68 69 69
63 63 62 63 62 62 63 64 65 64 64 64 65 66 67 67 68 69 70 72 73 73 73 72 74 73 70 70 67 65 64 65 63 64 66 69 70 71 68 65 67 67
63 63 63 64 63 63 63 63 63 65 65 64 64 64 66 67 68 69 71 72 72 70 73 74 74 74 74 73 70 66 64 64 64 65 67 69 70 70 68 66 65 67
62 62 64 64 63 62 62 61 62 62 63 63 64 64 64 66 67 68 69 70 72 68 73 73 73 73 75 73 70 67 66 66 66 66 66 67 68 68 67 67 67 67
63 63 64 64 63 62 61 61 61 60 60 60 61 63 65 66 67 67 69 69 70 69 70 70 72 73 67 58 60 69 69 69 68 66 65 64 64 63 65 66 65 69
62 62 63 63 63 61 60 60 59 59 58 57 58 58 59 63 65 66 67 68 67 65 64 67 70 72 56 49 51 54 66 65 64 64 64 64 63 64 63 63 68 72
60 61 62 62 62 61 60 60 59 57 56 56 55 55 54 56 60 62 65 65 65 64 64 66 67 60 50 48 49 48 56 66 64 62 63 64 67 66 65 69 69 68
60 60 60 60 61 60 60 59 58 56 54 53 53 53 53 52 52 53 55 59 61 62 63 64 64 54 47 47 47 47 47 60 69 65 64 64 63 68 71 68 68 67
60 60 59 59 59 60 59 58 57 54 54 53 53 52 50 49 50 52 54 55 54 54 57 61 58 42 41 42 43 43 44 51 69 66 65 66 66 68 68 67 68 68
60 59 58 58 59 59 58 57 56 55 54 53 52 51 48 47 48 49 50 52 52 52 53 56 53 40 39 40 42 40 41 45 65 65 66 69 72 71 71 75 73 72
60 59 58 58 58 58 57 56 56 55 54 53 52 51 50 48 48 48 47 49 50 50 50 52 54 41 39 39 40 42 40 53 62 65 64 68 72 73 73 73 75 74
60 59 57 58 58 56 56 56 55 55 55 54 53 51 49 48 47 46 46 46 47 48 48 49 52 45 39 39 39 40 43 56 61 64 67 68 69 70 72 73 74 75
60 60 58 57 57 56 55 55 56 57 56 56 54 53 51 50 49 48 47 46 45 45 46 45 47 45 40 39 39 40 42 55 63 64 64 67 68 69 71 72 67 56
60 59 58 58 57 56 56 55 55 55 56 57 56 57 56 55 51 49 48 48 47 46 46 45 45 46 41 38 39 39 47 55 61 66 65 67 67 67 68 69 66 61
60 59 58 58 57 57 57 57 56 55 54 54 55 56 56 56 55 53 49 47 47 46 46 45 45 45 43 38 39 39 40 52 56 62 66 66 65 66 65 66 66 65

ECMWFNIL_sfc_temp_069.txt.gz
Temp
70 70 70 70 70 70 71 72 72 72 73 74 74 75 76 76 77 77 76 76 76 75 74 73 73 74 72 71 71 71 70 69 68 68 68 68 67 68 67 67 66 66
69 69 70 70 70 70 69 70 71 72 73 73 75 76 76 76 76 74 73 75 76 75 75 73 75 75 73 72 71 69 70 69 67 68 67 67 67 69 69 68 68 66
68 68 68 68 69 69 70 71 71 72 72 74 75 76 75 75 74 74 71 67 69 73 72 70 71 72 70 72 72 69 68 68 67 68 66 67 67 67 69 69 68 67
69 69 68 68 68 69 70 70 71 73 74 74 74 75 75 74 75 74 74 71 68 69 70 70 70 71 74 73 71 68 68 68 69 69 67 67 67 67 68 68 67 67
70 70 70 69 69 69 69 70 71 72 73 73 74 75 73 73 74 75 74 74 72 71 68 71 73 73 73 71 71 69 68 68 69 70 68 67 67 66 66 68 67 66
71 72 71 70 69 68 68 69 71 72 72 72 72 74 74 74 74 73 74 74 73 70 74 75 74 73 73 72 71 70 69 67 67 69 67 66 66 67 67 67 66 65
69 69 69 70 68 68 67 68 68 68 69 70 72 71 73 74 74 74 75 74 74 73 73 72 70 70 72 73 70 68 68 67 67 66 65 65 65 66 68 67 66 66
69 70 70 69 67 67 66 67 67 67 68 69 68 70 72 72 73 73 73 74 75 74 73 71 70 72 71 73 70 69 67 66 66 65 64 67 68 71 69 67 66 66
69 69 69 68 67 66 66 66 67 67 68 67 68 69 70 71 70 72 72 74 74 73 74 74 73 75 74 73 71 69 70 67 65 64 65 66 68 68 68 68 67 67
67 67 66 67 66 66 65 65 67 67 69 67 67 67 67 69 71 71 71 72 72 73 74 74 74 72 70 71 71 71 70 69 66 65 66 66 65 66 65 66 66 68
65 66 66 67 66 66 65 65 65 66 66 68 68 67 68 67 68 70 71 70 69 72 72 74 76 75 70 67 70 72 72 70 70 70 68 67 67 66 65 64 65 65
65 65 65 66 66 66 65 65 65 65 65 65 67 67 68 68 67 68 70 71 73 71 74 72 76 72 68 68 70 73 72 71 70 70 69 70 68 67 66 65 65 66
64 64 65 65 65 66 65 65 64 64 64 63 64 64 64 64 66 67 68 69 71 70 69 71 72 70 67 67 67 73 73 71 70 70 69 68 70 70 69 67 67 67
64 64 65 66 66 66 65 64 64 64 63 62 62 62 61 61 60 62 66 69 69 67 67 66 68 70 67 67 68 72 71 71 70 69 69 68 68 70 70 69 66 65
64 64 65 65 65 65 64 64 63 62 62 61 61 60 58 58 58 59 60 64 66 66 68 66 68 66 66 65 65 67 67 69 69 69 69 68 68 67 68 69 69 67
64 64 64 64 64 63 64 64 63 62 61 60 59 58 57 57 57 57 58 59 59 62 64 64 65 65 58 54 55 61 65 68 67 67 68 68 67 65 64 65 67 68
63 63 63 62 62 62 63 63 62 61 60 59 58 57 56 55 54 54 55 56 58 59 59 60 56 47 41 41 47 51 59 65 65 67 68 68 69 67 65 64 65 67
63 63 62 61 61 62 62 62 62 60 59 58 58 57 56 55 52 52 52 53 54 56 57 55 50 44 39 41 41 41 45 57 64 67 68 68 68 69 68 65 64 64
64 63 61 61 61 61 61 61 61 59 58 57 57 57 56 54 53 51 51 51 51 51 52 55 49 42 40 40 40 39 40 46 57 65 69 67 65 63 64 63 63 64
63 62 60 60 61 60 60 60 59 58 58 58 57 57 55 54 53 51 51 50 49 49 49 52 49 42 40 40 39 39 39 42 54 58 62 67 66 65 65 65 64 63
63 62 61 60 60 60 59 58 57 57 57 57 58 57 56 54 53 52 51 50 49 48 48 48 49 41 40 39 39 39 39 42 54 57 60 62 65 67 68 66 66 65
63 62 61 61 60 60 58 57 56 56 55 56 57 57 57 57 56 54 52 50 49 48 47 46 48 41 40 39 39 38 39 51 56 58 59 61 63 66 66 67 66 63
63 62 61 61 61 59 58 57 56 56 56 56 55 56 55 55 56 55 54 52 50 48 46 46 47 44 40 39 39 38 42 52 56 59 60 60 61 62 64 67 67 65
63 62 61 61 61 59 58 58 57 57 57 57 55 54 54 54 55 56 56 55 52 49 48 45 45 44 40 39 39 39 40 51 55 57 59 61 61 62 62 62 63 61
62 62 61 61 60 58 58 57 57 56 57 57 56 56 55 56 55 55 54 55 54 52 50 47 46 45 42 39 39 39 41 50 56 57 57 58 60 60 61 61 60 59
62 61 61 60 60 60 60 59 59 58 57 56 56 56 56 55 55 54 53 52 53 53 52 49 47 47 45 40 40 40 39 45 54 52 53 54 57 60 59 60 60 59

ECMWFNIL_sfc_temp_072.txt.gz
Temp
68 67 66 66 67 68 68 68 69 69 69 70 70 71 71 72 74 72 72 71 69 67 67 66 67 66 66 66 65 66 66 66 65 65 66 65 63 65 65 66 66 65
67 67 67 67 66 67 67 67 68 69 69 69 70 71 71 72 73 73 72 70 70 68 68 67 67 67 66 65 65 64 64 65 65 67 65 64 64 65 65 66 66 66
67 67 67 66 66 66 66 67 67 68 69 70 70 70 71 72 72 72 72 71 70 68 67 67 67 66 66 66 65 65 65 65 65 65 65 65 65 64 65 66 65 65
67 67 67 67 66 66 66 66 67 67 67 67 68 69 70 70 71 71 71 72 70 69 69 68 68 67 67 67 65 63 64 65 65 64 64 65 65 66 65 65 64 64
66 67 67 67 66 66 65 65 66 66 66 66 67 68 68 68 69 70 70 71 71 70 69 68 69 68 68 67 66 64 64 64 65 65 65 65 65 65 65 64 64 64
67 68 68 67 66 65 64 65 65 65 66 66 66 67 67 68 68 69 69 69 70 70 68 67 66 65 66 66 65 65 65 63 64 65 65 64 64 64 64 64 64 64
65 65 65 66 66 66 64 64 64 64 65 66 67 66 67 67 67 68 68 69 70 69 68 67 65 64 65 64 64 64 65 65 65 65 64 63 64 64 65 64 64 64
64 65 65 66 65 64 64 64 64 63 64 64 63 65 66 67 68 68 68 68 68 68 67 67 66 66 65 63 63 64 64 64 65 64 64 64 64 64 65 65 63 63
64 64 65 64 64 64 63 63 63 63 64 63 63 63 64 64 64 65 65 67 68 67 68 67 66 65 65 64 64 64 63 63 64 65 64 64 63 64 64 64 63 63
63 63 64 64 63 63 62 62 62 62 63 62 62 62 61 62 63 62 61 62 63 66 67 67 66 63 64 64 64 64 64 64 64 65 65 64 64 64 64 64 63 62
62 63 62 62 62 62 62 62 62 62 62 62 61 60 60 60 59 60 59 60 60 63 65 65 65 64 64 64 64 64 64 64 63 64 65 64 63 64 64 64 63 63
61 62 61 61 61 61 61 62 62 61 61 60 60 59 58 58 57 57 57 58 59 61 63 63 62 62 60 58 60 63 64 63 63 63 64 64 63 63 64 64 63 63
61 61 61 61 61 61 61 62 61 60 60 59 60 59 57 56 56 55 56 56 57 58 60 56 52 51 49 49 50 53 59 63 63 63 63 64 64 64 64 63 63 63
61 61 61 61 61 61 61 61 60 60 59 59 59 57 57 56 55 54 54 55 54 54 56 54 51 49 48 46 46 48 50 56 62 63 63 63 63 64 64 63 63 63
61 61 61 61 61 61 60 60 60 59 59 59 58 57 56 56 56 54 53 53 52 52 52 53 49 47 46 44 43 44 46 51 56 60 62 62 62 62 63 63 63 61
61 60 61 60 60 59 59 60 59 59 59 58 58 58 57 57 56 55 54 52 51 51 50 51 48 47 45 43 43 43 44 46 51 55 60 62 62 62 63 63 63 62
61 61 60 59 59 59 58 58 58 58 58 58 58 57 56 56 55 54 53 52 51 50 49 49 48 46 42 40 40 41 42 44 46 51 57 60 62 62 62 62 63 64
61 61 60 59 59 58 58 58 57 57 56 57 56 56 57 56 55 54 53 53 51 50 49 48 47 45 41 41 40 40 41 42 44 49 54 57 60 61 62 61 62 63
61 61 60 60 59 59 58 57 57 56 55 55 55 56 56 55 55 54 53 53 52 50 49 48 47 43 41 41 40 40 40 41 43 48 53 56 58 60 61 62 62 61
61 60 59 59 59 58 58 57 56 55 55 55 55 55 54 54 54 53 53 53 52 50 49 49 47 44 41 41 40 39 39 40 45 49 54 56 58 59 60 61 61 60
60 60 59 58 58 58 57 57 56 55 55 55 55 54 53 53 53 52 52 52 51 51 50 48 48 43 41 40 40 40 39 41 47 51 54 57 58 60 60 61 61 62
59 58 58 59 58 58 57 56 55 54 54 55 54 54 54 54 54 53 52 51 51 50 49 48 48 43 41 40 40 40 40 44 46 49 53 56 57 60 60 61 61 61
59 58 57 57 58 57 56 55 55 55 54 55 54 54 53 53 52 52 52 51 50 50 48 47 47 44 41 40 40 40 41 44 46 49 52 54 55 56 58 61 62 61
59 58 57 57 57 56 55 55 55 56 55 55 54 54 53 53 53 52 52 51 50 49 48 46 46 45 41 41 40 40 42 43 45 45 46 48 52 54 56 59 61 59
58 58 57 56 56 56 55 54 54 54 55 56 55 55 54 54 53 52 51 51 51 49 49 47 46 45 42 40 40 40 42 43 43 43 43 45 50 49 50 51 52 50
58 58 57 57 56 56 55 54 54 54 54 54 55 55 55 54 53 52 51 51 51 50 49 47 46 45 44 40 41 40 40 43 43 41 41 43 45 46 46 47 47 46

ECMWFNIL_sfc_temp_075.txt.gz
Temp
61 61 60 59 60 63 63 63 64 64 65 65 64 65 65 66 67 67 66 66 65 65 65 64 64 64 64 63 64 63 63 63 63 64 63 63 64 63 64 63 62 63
60 61 61 60 60 60 61 62 63 64 64 64 64 65 66 66 67 67 66 66 66 65 64 63 63 63 63 63 63 62 62 62 62 64 63 63 62 63 63 64 63 63
60 60 60 59 59 58 58 60 61 62 63 63 64 65 65 66 66 67 67 67 65 65 65 63 63 62 62 62 63 63 62 62 62 63 63 62 62 62 63 63 62 63
60 60 60 60 59 58 59 59 59 60 61 61 62 63 64 64 65 66 66 67 66 66 66 65 63 63 63 64 63 63 63 62 62 63 62 62 62 62 62 62 62 62
60 60 60 60 60 59 59 59 59 59 60 60 61 61 62 62 62 63 62 63 64 65 65 65 64 63 62 63 63 62 63 62 63 63 62 62 62 62 63 62 62 62
59 60 59 60 59 59 59 58 59 60 61 60 59 60 60 60 60 60 60 60 61 62 63 64 64 64 63 61 61 61 61 61 62 62 62 61 62 63 63 63 62 62
59 59 59 59 59 58 58 57 58 60 60 60 60 59 59 58 57 57 58 58 59 60 62 59 56 58 62 62 62 62 62 62 62 62 62 62 62 62 63 62 62 62
58 59 59 59 58 58 57 57 57 58 59 59 58 58 58 57 56 56 56 56 58 59 58 54 54 53 52 53 53 54 58 62 62 62 61 61 62 62 62 62 62 62
58 58 58 57 57 57 57 57 57 57 59 58 57 56 57 56 55 56 56 55 56 56 54 53 51 52 50 50 50 51 53 55 59 62 62 61 61 62 62 63 62 62
56 56 56 56 56 57 57 56 56 57 58 57 56 55 54 55 55 55 55 54 54 53 53 51 49 49 49 48 48 48 48 50 53 56 61 62 62 62 62 62 62 63
55 56 55 56 56 57 57 57 57 57 58 57 56 55 54 54 54 55 54 53 52 51 51 49 48 48 47 47 46 47 47 47 49 52 56 60 62 62 63 63 62 62
55 55 55 55 57 57 57 58 58 57 57 57 56 55 54 53 52 53 53 53 52 51 51 49 48 48 47 46 46 46 46 46 47 49 52 56 60 62 62 62 61 62
54 54 55 55 55 56 57 57 57 57 57 57 57 55 54 52 52 52 52 52 52 52 51 49 48 48 46 45 45 45 45 45 45 47 49 52 56 60 63 62 62 62
53 53 54 54 54 55 55 56 56 56 56 57 57 56 55 54 52 52 52 52 51 51 51 50 48 47 46 45 44 44 44 44 45 46 47 49 53 57 61 62 62 62
52 53 53 53 54 54 54 54 54 55 55 55 56 56 55 55 54 53 52 51 51 50 50 50 48 46 46 44 43 43 43 43 44 45 46 47 51 55 59 62 62 61
54 53 53 53 53 53 53 53 53 53 54 53 54 54 55 55 54 54 53 51 50 49 50 49 47 46 46 44 43 43 43 43 43 44 45 47 50 54 57 60 62 62
53 54 53 52 52 52 52 52 53 53 53 53 53 53 53 53 53 52 52 51 50 49 49 48 47 46 43 41 41 42 43 43 43 44 46 47 50 53 56 58 60 61
51 52 52 52 52 51 51 51 52 52 53 53 53 52 52 53 52 51 51 50 50 49 48 48 47 45 41 41 41 41 42 44 44 46 47 48 51 54 56 57 58 60
53 51 51 52 52 51 50 50 50 50 51 51 51 52 52 51 51 50 50 50 49 48 47 48 47 43 41 41 41 40 41 43 46 46 47 49 51 54 55 57 58 58
52 52 50 51 51 51 51 49 48 48 48 48 49 51 51 51 50 49 49 49 49 48 47 47 46 43 41 41 41 40 40 42 45 45 46 47 49 51 52 53 54 56
51 51 51 50 50 50 50 49 48 48 48 48 48 49 50 49 49 47 47 48 47 47 47 46 46 42 40 40 40 40 41 43 45 45 45 46 48 49 50 49 49 49
50 49 49 49 49 49 48 48 48 48 47 47 49 49 50 49 48 47 47 46 46 46 45 44 45 42 41 40 40 40 41 45 45 44 45 45 46 47 48 47 48 48
48 48 47 47 48 48 47 47 47 47 48 48 47 46 47 47 46 48 48 46 46 46 45 43 44 43 41 40 40 40 41 43 44 44 44 44 44 45 46 45 46 48
47 46 46 46 47 47 47 47 47 48 47 48 47 47 47 46 47 47 48 47 46 45 46 43 43 44 41 40 40 40 41 42 43 42 43 43 43 44 45 44 45 48
48 48 46 46 47 46 47 46 46 46 47 47 47 47 47 47 47 46 45 46 47 47 49 45 43 44 42 40 40 40 41 41 42 41 41 42 42 42 43 42 43 44
46 46 46 46 46 46 46 45 44 45 45 45 45 45 45 45 44 44 43 44 46 47 46 46 44 43 43 40 40 40 40 41 41 39 39 41 41 41 41 41 41 41

ECMWFNIL_sfc_temp_078.txt.gz
Temp
58 58 57 56 56 57 56 57 58 59 60 61 60 61 61 62 63 63 62 62 62 63 63 64 64 63 63 63 63 62 62 63 63 63 63 63 63 63 63 62 62 61
57 58 58 57 56 56 56 56 56 57 58 59 59 60 60 61 61 61 60 60 61 61 62 61 61 62 62 62 61 60 60 61 62 64 63 63 62 63 62 62 62 62
56 56 56 55 55 55 55 56 56 57 56 57 57 58 57 58 57 57 58 59 59 59 57 56 56 56 57 60 61 61 61 61 62 63 63 62 62 62 62 62 62 62
56 55 55 55 55 54 55 55 57 57 56 55 55 56 56 55 55 55 55 57 58 57 55 55 55 54 54 55 55 57 60 61 62 63 62 62 62 62 62 62 62 62
55 55 55 55 55 55 54 55 57 56 54 54 54 55 54 54 54 55 55 55 57 54 54 54 53 53 52 52 52 52 53 55 58 60 61 61 62 62 62 62 62 61
55 55 55 55 55 54 54 55 56 55 53 53 53 54 54 55 55 54 54 54 55 53 52 52 51 51 50 50 50 50 50 51 53 54 55 57 61 63 63 62 62 61
54 54 54 54 54 54 54 54 55 55 53 53 53 52 53 54 54 54 53 53 53 52 51 50 49 49 49 49 48 48 48 49 50 52 52 53 56 59 62 62 62 62
53 53 53 53 53 53 53 53 54 53 53 52 51 52 52 52 53 53 53 53 53 51 50 50 49 49 48 48 47 46 47 47 47 48 49 51 53 55 59 62 62 62
53 53 53 53 53 54 54 54 54 53 53 52 51 51 52 52 51 52 52 52 52 51 50 49 49 48 48 47 46 46 45 46 47 47 47 48 50 53 55 58 60 61
52 53 52 53 53 54 55 56 55 54 54 52 52 51 51 51 51 51 50 50 50 50 50 49 48 47 47 46 46 45 45 45 45 46 46 47 48 50 53 55 57 59
51 52 52 51 52 53 54 55 55 55 56 55 53 52 51 50 51 51 50 50 49 49 49 48 47 47 46 45 45 45 45 45 45 45 45 46 46 48 51 53 55 58
50 50 50 51 51 51 52 53 54 54 54 54 55 53 52 51 50 50 50 49 50 50 49 48 47 46 45 45 44 45 44 45 45 45 45 45 46 47 48 50 53 57
49 49 49 49 49 50 51 52 52 52 52 52 54 53 52 51 51 49 49 48 49 50 49 48 46 45 44 44 44 44 44 44 44 44 45 46 47 47 48 50 53 56
49 49 49 49 49 49 49 49 50 51 51 51 52 51 50 50 50 49 49 48 48 48 48 47 45 44 44 43 43 43 44 44 44 45 45 46 47 48 50 51 53 56
49 49 48 49 49 49 48 48 48 49 50 50 50 50 50 49 49 49 48 47 47 47 47 47 45 44 44 43 42 42 43 44 45 45 46 47 48 50 51 53 55 56
50 49 48 47 47 47 48 48 47 48 48 48 49 49 49 49 48 48 48 47 46 46 47 46 44 44 45 43 43 42 42 44 45 45 46 47 47 48 50 52 52 52
48 48 48 48 48 47 47 47 47 47 47 47 47 48 48 48 48 47 46 46 46 45 45 45 44 44 42 40 40 41 43 44 45 45 46 46 47 47 47 48 48 50
48 47 47 47 47 47 47 47 47 46 46 46 47 47 47 47 46 46 46 45 45 45 44 45 44 44 40 41 40 40 42 44 45 45 45 46 46 46 46 46 46 47
48 47 46 46 46 46 47 47 46 46 44 45 46 47 46 45 45 45 44 45 44 43 43 44 43 43 40 41 40 40 40 42 45 45 45 45 45 46 45 45 45 46
47 46 46 45 45 46 46 46 45 45 44 43 44 45 44 44 44 44 44 44 44 43 42 43 43 43 40 40 40 39 40 41 44 44 45 45 45 45 45 44 44 44
46 45 45 45 45 45 45 44 44 43 44 44 43 42 42 42 42 42 43 43 43 43 42 42 43 42 40 40 40 39 40 42 43 44 44 45 44 45 45 44 44 44
45 44 43 43 44 44 44 43 43 42 42 42 42 40 42 41 42 42 42 41 43 43 42 41 42 42 40 40 40 39 41 43 43 43 42 43 43 44 44 44 44 44
44 43 42 42 42 42 42 41 41 41 41 42 41 41 40 41 40 41 41 41 41 42 41 41 41 42 40 40 39 39 40 41 42 42 42 42 43 43 43 43 43 44
43 43 42 41 40 40 40 40 40 41 41 42 40 40 40 40 40 40 41 41 41 41 43 40 40 42 41 40 40 39 41 40 40 40 40 41 42 43 43 42 43 46
42 42 42 41 41 39 39 39 39 41 41 41 40 40 40 39 41 39 40 40 40 41 45 41 40 41 42 40 40 39 40 40 40 39 39 40 41 41 42 41 41 42
42 43 41 41 40 39 40 40 39 38 39 40 40 39 39 39 39 39 38 39 39 40 40 40 40 40 42 40 40 40 40 40 40 39 37 39 40 40 40 40 40 40

ECMWFNIL_sfc_temp_081.txt.gz
Temp
55 55 54 53 53 54 53 53 53 53 53 54 54 54 54 55 56 56 57 58 56 55 55 54 54 53 54 53 54 56 58 60 61 62 62 62 62 62 62 62 62 62
54 54 55 53 53 53 53 53 52 52 52 52 52 53 54 55 55 55 55 55 54 53 54 53 53 52 52 51 52 53 53 55 56 59 59 61 62 62 62 62 62 63
53 52 52 52 52 52 52 53 52 51 51 51 52 52 52 54 53 53 54 55 52 52 52 52 52 52 51 51 50 50 50 51 52 54 54 56 58 60 62 62 62 62
53 52 52 52 52 52 52 52 51 51 51 50 50 52 53 53 54 54 54 55 52 51 51 51 51 51 50 50 50 49 49 49 50 51 52 53 55 57 59 61 62 62
52 52 52 52 52 52 51 51 50 50 50 50 50 51 52 52 52 53 53 53 53 51 51 50 50 49 49 49 49 47 48 47 49 50 49 50 52 53 55 58 59 60
51 52 52 51 51 50 51 50 50 50 50 49 49 51 50 50 50 50 51 52 52 51 50 49 49 48 48 47 47 46 46 46 48 48 48 48 49 51 52 54 56 58
50 50 51 52 52 52 51 50 50 51 49 49 50 49 49 49 49 49 50 51 50 49 48 47 47 47 47 46 45 45 45 46 46 46 46 46 48 48 50 51 52 54
50 50 51 52 52 53 53 52 51 50 50 49 48 49 49 48 48 49 50 50 49 48 47 46 46 46 45 45 44 44 44 45 45 45 44 45 46 46 47 48 49 50
50 50 50 51 52 53 53 53 53 52 51 49 48 48 49 49 48 48 49 50 49 48 47 46 45 45 45 44 44 44 43 44 44 44 44 44 44 45 46 47 48 48
49 49 49 49 49 50 50 50 51 51 52 50 49 49 48 48 49 48 48 49 49 48 46 45 44 44 44 43 44 44 44 44 44 45 45 45 45 46 47 47 48 48
47 47 48 48 48 49 49 49 49 49 50 50 49 48 48 47 48 48 47 47 47 47 46 44 44 44 43 43 43 44 44 44 45 45 45 46 46 47 48 48 48 48
46 46 46 47 48 48 48 48 49 48 48 49 49 47 47 47 46 47 47 46 46 46 45 44 44 44 43 43 43 43 44 45 45 46 46 47 47 48 49 50 50 50
46 45 46 46 46 46 47 47 47 47 48 47 48 47 46 46 46 45 46 45 45 45 45 44 43 43 43 42 42 43 43 43 45 46 46 47 48 49 49 50 50 50
45 45 45 46 46 45 45 45 46 46 46 47 47 46 46 45 45 45 45 45 45 45 45 45 43 43 43 42 42 42 43 43 44 45 46 47 47 48 49 49 49 49
45 46 45 46 46 45 45 45 45 45 46 46 45 45 46 45 45 44 44 44 44 44 44 44 43 42 43 42 41 41 42 43 44 45 45 45 46 47 47 48 48 48
45 45 45 45 45 45 44 44 44 45 45 44 44 44 44 45 44 44 43 43 42 42 43 43 42 43 44 43 42 42 41 43 44 45 45 45 45 45 45 47 47 47
44 44 44 44 44 44 44 44 44 44 43 44 44 43 43 44 43 42 42 42 42 41 41 42 42 43 41 40 40 41 42 42 43 44 45 45 44 44 43 45 45 46
43 44 43 43 44 43 43 43 43 42 42 42 42 42 43 42 42 41 41 41 42 41 40 41 42 43 40 40 40 40 42 42 41 42 43 43 43 43 43 44 43 43
44 43 43 42 42 42 42 42 42 41 41 41 41 42 41 41 40 40 40 41 41 40 40 41 40 42 40 40 40 39 40 41 41 41 41 42 42 43 43 43 42 42
43 43 42 41 41 41 41 41 40 40 40 40 40 40 39 39 40 39 40 40 40 40 39 40 40 42 40 40 40 39 39 40 40 40 41 41 42 42 43 43 42 41
42 41 41 40 40 40 40 40 39 39 40 40 39 38 38 38 38 37 39 39 39 39 39 39 40 41 40 40 39 39 39 41 40 40 41 41 42 42 43 43 42 42
40 39 39 38 39 39 39 39 38 38 38 39 39 37 38 37 37 38 37 37 38 38 38 38 39 41 40 40 39 39 40 40 39 40 40 40 41 42 43 43 43 43
39 39 38 37 38 38 37 37 37 38 37 39 37 37 37 37 37 36 37 36 37 38 37 37 37 40 40 40 39 39 40 39 39 40 40 40 40 41 42 42 42 43
39 37 37 37 35 36 36 36 37 36 37 38 35 35 36 36 37 36 36 36 36 36 39 37 36 40 40 40 39 39 40 38 39 39 39 39 40 41 42 42 42 45
37 37 37 36 36 35 36 36 36 36 36 35 35 34 36 35 39 35 36 36 36 37 42 38 36 39 40 39 39 39 40 39 39 39 38 39 39 40 41 40 41 42
40 39 37 37 36 36 36 36 37 35 34 34 34 35 35 34 35 36 35 36 36 37 37 37 37 38 40 39 39 39 39 39 38 37 36 37 39 39 38 39 40 40

ECMWFNIL_sfc_temp_084.txt.gz
Temp
52 53 51 51 51 51 50 50 50 49 50 50 50 50 51 52 53 53 53 51 52 51 51 50 50 50 50 50 50 50 51 51 52 52 52 53 55 56 57 59 61 62
51 52 53 51 51 51 50 50 49 49 49 49 50 50 51 52 52 53 53 51 51 50 50 49 49 49 49 49 48 48 48 49 49 52 51 51 52 53 54 55 57 59
51 51 50 50 49 49 50 50 50 49 49 49 50 50 50 51 51 53 53 51 50 49 49 49 49 48 48 48 47 47 47 47 47 49 49 49 50 50 51 52 54 55
50 50 50 50 50 50 50 50 49 49 49 49 49 49 50 50 50 51 50 50 49 48 48 48 47 47 47 47 46 46 46 46 47 47 47 47 48 49 49 50 51 52
50 50 50 50 50 50 50 50 49 49 49 49 49 49 49 49 49 50 50 49 48 47 47 47 47 46 46 46 46 45 46 45 46 46 46 46 47 48 48 49 49 49
49 50 50 50 50 50 50 49 49 49 49 48 48 49 48 49 50 50 49 48 48 47 46 46 46 46 46 45 45 45 45 45 46 46 46 46 47 48 49 49 48 48
49 49 50 51 51 51 50 49 50 50 49 49 49 48 48 48 49 50 50 48 47 47 46 45 45 45 45 44 45 45 45 46 46 46 46 47 47 48 49 49 49 49
48 49 49 50 49 49 50 50 50 49 49 49 47 48 48 47 47 48 49 48 47 46 45 45 45 45 44 44 44 44 44 46 46 46 46 46 47 47 48 48 49 49
48 48 49 48 48 48 48 48 49 49 49 48 47 47 48 48 47 47 47 47 46 46 45 45 44 44 44 43 44 44 44 45 45 46 46 46 46 47 48 49 49 49
47 48 48 47 47 47 47 47 48 48 49 47 47 47 46 47 47 47 46 46 45 45 45 44 44 44 43 43 43 43 44 44 45 46 46 47 47 47 48 48 48 48
46 46 46 46 46 46 46 47 47 47 48 48 47 46 46 46 46 47 46 45 44 44 44 44 43 43 43 43 43 44 44 44 45 46 46 47 47 47 48 47 47 48
45 45 45 45 46 46 46 46 46 46 46 47 47 45 45 45 45 45 46 44 45 45 44 44 44 43 43 42 43 44 43 44 46 47 47 47 47 47 47 47 47 47
44 44 45 44 45 45 45 45 45 45 46 45 46 45 45 44 45 44 45 44 44 44 44 44 43 43 43 42 42 42 43 43 44 45 46 47 47 47 46 46 47 47
43 44 44 45 45 45 45 45 45 45 45 45 46 44 44 44 44 43 44 44 44 44 44 44 43 43 43 42 42 42 42 42 43 43 43 44 45 46 46 46 46 47
44 44 44 45 45 44 44 44 44 44 44 44 44 44 45 44 44 44 43 43 43 43 43 44 43 42 43 42 41 42 42 42 42 42 42 43 43 44 45 46 46 46
44 44 44 44 43 43 43 43 43 43 43 43 43 43 43 44 43 43 43 42 42 42 42 42 42 43 43 42 42 42 42 42 42 42 42 42 42 43 44 45 45 45
43 43 43 42 42 42 42 42 42 42 42 42 42 42 42 42 42 41 41 42 41 41 41 41 42 43 41 40 40 41 43 42 41 41 42 42 42 42 42 43 44 45
42 42 42 41 41 41 41 41 41 41 40 40 40 40 41 41 40 40 40 41 41 41 40 41 41 43 40 40 40 40 41 42 41 41 41 41 42 42 43 43 43 43
42 41 41 40 40 40 40 40 40 40 40 39 39 40 40 39 39 39 39 40 40 39 40 40 40 42 40 40 40 39 39 41 42 41 41 41 41 42 42 42 42 42
41 41 40 39 39 40 40 40 40 39 39 39 39 39 38 38 38 38 39 39 39 39 39 40 40 41 40 40 39 39 39 40 41 41 41 41 41 42 42 42 42 41
40 40 40 39 39 39 39 38 38 38 38 39 38 37 37 37 37 37 38 39 38 38 39 39 40 40 39 39 39 39 39 41 41 41 41 41 41 42 42 42 42 42
40 39 38 38 38 38 38 37 37 36 36 38 38 37 37 37 37 38 37 37 38 38 38 38 39 39 39 39 39 39 40 42 41 41 40 40 41 41 42 42 42 42
39 39 38 37 37 37 37 36 36 37 37 38 36 36 36 36 36 36 37 36 37 37 37 37 38 39 39 39 39 39 40 41 41 40 40 40 40 41 41 42 42 43
38 38 38 37 36 36 36 36 36 37 37 38 35 35 36 35 37 36 37 37 37 37 40 37 37 40 40 39 39 39 40 40 40 40 39 39 39 41 42 42 43 45
36 36 36 36 36 36 36 36 36 36 36 36 35 35 36 35 39 36 37 37 37 38 41 38 38 39 40 39 39 39 40 40 40 40 39 38 39 39 41 41 42 43
38 39 37 36 36 36 36 36 37 35 35 35 36 35 36 36 37 36 36 37 37 37 38 37 38 39 40 39 40 40 40 41 40 40 38 38 39 39 39 40 40 41

ECMWFNIL_sfc_temp_087.txt.gz
Temp
59 59 58 57 57 57 56 56 57 56 56 57 56 55 55 56 57 56 56 56 55 55 55 55 55 55 54 55 55 55 56 54 55 54 54 54 54 54 54 54 54 55
58 58 58 58 57 57 56 56 56 56 55 55 56 56 56 56 56 56 55 55 55 54 55 55 55 54 54 55 55 54 54 53 52 53 52 52 53 53 52 52 53 54
57 57 57 56 55 55 55 56 57 56 56 55 55 56 56 56 56 56 55 55 55 54 54 54 54 54 54 55 55 53 52 52 51 53 53 52 52 53 53 53 53 53
58 57 57 57 57 56 56 55 55 56 56 55 54 55 56 56 56 55 55 55 54 54 54 54 53 54 54 54 54 53 52 53 53 53 53 54 53 53 53 53 54 54
57 57 58 57 57 57 56 55 55 55 54 54 55 55 55 55 55 55 54 54 54 54 54 53 53 53 53 53 53 53 53 53 52 53 53 53 53 54 54 54 53 53
58 59 58 57 57 56 55 55 55 55 55 53 53 55 55 55 55 54 54 54 54 54 53 53 53 53 53 53 53 52 53 52 52 52 52 52 53 54 54 53 54 54
56 56 56 57 56 56 55 54 54 54 54 54 55 54 55 54 54 54 54 54 54 54 54 53 52 52 52 53 53 52 53 52 52 53 52 53 53 53 55 54 54 54
56 56 56 56 55 55 54 55 54 54 54 54 53 54 54 54 54 54 54 54 54 54 53 53 53 53 52 52 52 52 52 52 52 52 52 52 53 54 55 55 54 53
56 55 56 55 54 54 54 54 54 54 55 54 53 54 54 54 53 54 53 54 54 53 53 53 53 53 52 52 51 51 51 51 52 52 52 51 51 52 54 54 53 52
55 55 54 54 54 54 53 54 54 54 55 54 54 54 53 54 54 54 53 53 53 53 53 53 52 52 52 52 51 51 52 52 52 52 53 53 52 53 53 52 52 51
54 54 54 53 53 53 53 54 54 54 54 54 54 53 53 53 54 54 53 53 52 52 52 52 52 52 51 51 51 52 52 51 52 52 52 52 52 52 52 52 51 51
54 53 53 53 53 53 53 53 53 54 54 54 54 53 53 53 53 53 53 53 53 53 53 52 52 52 52 51 52 52 51 51 51 52 52 52 52 52 52 52 51 51
53 53 53 53 53 53 53 53 53 53 53 53 54 53 52 52 52 53 52 53 52 52 52 52 52 51 51 50 51 51 51 51 51 51 51 52 52 52 53 53 52 51
53 53 53 53 53 53 53 53 53 53 52 53 53 52 52 52 52 52 52 53 52 52 52 52 52 51 50 49 50 50 51 51 51 50 51 51 51 52 53 52 52 51
53 53 54 54 53 53 52 52 52 52 52 52 52 51 51 52 52 52 52 52 52 52 52 51 50 49 48 47 47 49 50 50 51 51 51 51 51 52 52 52 51 50
54 53 53 53 52 52 51 51 51 51 51 51 51 51 51 52 52 52 52 51 51 51 51 50 50 49 44 42 42 45 49 50 50 51 52 51 50 50 51 51 50 49
53 53 53 52 52 51 51 51 51 50 50 50 50 50 50 51 51 51 50 50 50 50 50 50 49 47 40 40 40 41 46 50 50 50 52 51 50 49 48 48 49 49
53 53 52 52 51 51 51 51 50 50 49 49 49 49 50 50 49 50 49 50 50 51 50 50 50 43 39 40 40 40 42 49 51 50 50 50 49 48 48 47 47 47
54 53 52 51 51 51 51 50 50 49 49 48 48 49 49 49 49 49 49 49 50 50 50 50 50 42 40 40 40 40 40 45 51 51 50 49 48 47 47 47 46 46
53 53 51 51 51 51 50 50 49 48 48 48 49 49 48 48 48 48 49 49 49 49 49 50 49 43 40 40 40 39 39 43 50 49 49 50 50 48 48 47 47 46
53 52 51 51 51 50 50 49 48 48 48 49 49 48 48 48 48 48 48 48 49 49 49 49 48 41 39 39 39 40 39 44 51 50 50 50 50 50 50 50 49 48
52 51 51 51 51 50 49 48 48 48 47 48 48 49 49 49 49 49 48 48 49 49 49 49 49 41 39 39 39 39 40 51 51 51 50 50 50 50 50 50 50 49
52 51 50 50 50 50 49 48 47 47 48 49 48 48 48 48 48 48 49 49 48 49 48 49 50 44 39 39 39 39 44 51 51 51 51 50 50 50 51 51 51 50
52 52 51 50 50 49 48 48 48 48 48 48 48 48 48 48 50 49 50 49 48 48 47 48 49 46 40 39 39 39 42 50 51 50 50 50 50 51 51 51 51 47
53 52 52 51 50 49 49 48 48 48 48 49 49 49 49 50 50 50 49 50 49 48 45 47 49 47 42 39 39 39 43 50 50 50 49 49 50 50 51 51 51 50
52 52 51 51 50 49 49 48 49 49 48 48 49 50 50 50 50 49 49 49 49 49 48 48 47 49 47 39 39 39 39 47 51 48 47 48 49 50 49 50 50 50

ECMWFNIL_sfc_temp_090.txt.gz
Temp
67 66 65 63 63 63 62 62 62 62 62 61 61 64 63 62 63 63 62 63 62 62 62 62 62 62 62 63 62 62 62 61 61 61 61 60 59 59 58 58 58 59
63 63 64 63 62 62 62 62 61 61 60 60 62 63 62 62 62 63 62 62 62 62 62 61 62 62 62 62 62 61 62 61 60 61 61 60 60 61 60 59 59 59
62 62 62 61 61 60 61 61 61 60 59 60 62 62 62 62 62 62 62 62 62 61 61 61 61 62 62 62 62 62 61 60 60 61 62 61 61 60 60 61 60 60
60 60 61 62 62 61 61 61 61 61 61 62 61 62 62 62 62 62 61 61 62 61 61 61 61 61 62 62 61 61 61 61 61 61 61 62 61 61 60 61 61 61
60 61 62 62 63 63 62 61 61 62 61 61 61 62 62 62 62 62 62 61 61 61 61 61 61 61 61 61 62 61 61 61 61 61 61 61 61 61 61 61 61 60
61 63 63 63 63 62 61 61 61 61 61 60 60 62 62 62 62 62 62 61 61 61 61 61 61 61 61 61 61 60 60 60 61 61 61 60 61 62 61 61 60 60
61 62 61 62 61 61 61 60 60 61 61 61 62 61 62 61 61 62 62 62 62 62 62 61 61 60 60 60 60 60 60 60 61 61 61 60 61 60 61 60 60 60
61 61 62 62 61 61 60 61 61 60 61 62 60 61 62 62 62 61 62 62 62 62 61 61 61 61 60 60 59 59 59 59 59 60 59 60 59 59 60 59 59 59
61 61 61 60 60 60 60 60 60 61 62 61 61 61 61 62 61 61 61 62 62 60 61 61 60 60 60 59 59 59 59 59 59 59 58 58 58 58 59 59 58 58
60 60 60 60 59 60 59 60 60 61 62 61 61 61 60 60 61 62 61 60 60 60 60 60 59 59 59 60 59 59 59 58 59 59 59 59 58 59 59 58 58 57
59 60 59 59 59 59 59 60 60 60 61 61 60 60 61 61 61 62 61 60 58 60 59 59 58 58 58 58 58 59 59 58 58 59 58 58 58 58 57 58 57 57
59 59 59 59 59 59 59 59 60 60 60 60 61 60 60 60 60 60 61 61 61 60 59 59 58 57 57 57 58 58 58 58 58 58 58 59 58 58 59 59 57 57
59 59 59 59 59 59 59 60 60 59 60 60 60 60 60 59 60 60 60 60 59 59 58 57 56 56 55 55 56 57 58 58 57 58 58 58 58 59 59 59 58 57
59 59 59 59 59 59 59 59 59 59 59 59 59 59 59 60 60 59 59 60 59 58 57 56 56 54 53 53 54 56 57 58 58 57 57 58 58 58 58 58 57 57
59 60 60 60 60 59 58 58 58 58 59 59 59 58 58 60 60 60 59 59 59 57 57 56 54 52 50 49 50 53 57 57 57 57 57 57 57 57 57 58 58 57
60 60 60 59 59 58 58 58 58 58 58 58 58 59 59 59 59 59 59 58 57 57 56 54 53 51 45 42 43 48 54 57 57 57 57 57 56 55 56 56 57 57
61 60 60 59 58 58 58 58 58 58 58 57 57 57 57 58 58 58 57 57 57 56 55 53 52 49 40 40 41 40 48 55 57 57 57 57 56 55 55 56 56 57
60 60 60 59 59 59 59 59 58 58 57 57 57 56 57 57 56 56 56 56 56 56 54 53 52 43 40 40 41 39 42 50 57 57 57 57 57 57 57 57 55 55
61 61 60 59 59 59 58 58 58 57 57 56 56 56 57 56 56 56 56 56 56 55 54 54 53 42 40 40 41 39 40 44 59 57 57 57 57 57 56 56 55 54
61 61 59 59 58 58 58 58 57 56 56 57 57 56 56 55 55 55 55 55 56 56 54 54 52 43 40 39 40 39 40 42 59 57 57 58 57 57 56 56 54 53
61 60 59 59 59 58 58 57 56 56 56 57 57 56 56 55 55 54 54 55 56 56 55 53 50 40 40 39 40 40 38 45 59 57 57 58 58 58 58 56 55 54
60 60 59 59 59 58 57 56 56 56 55 56 57 57 57 57 56 56 55 55 55 55 55 54 52 40 40 40 39 40 39 57 58 58 57 58 58 58 59 58 56 55
60 60 59 59 58 57 57 56 55 55 56 58 56 56 56 55 55 55 56 55 54 55 54 54 54 44 39 40 39 39 44 57 57 58 58 57 57 58 60 58 57 56
60 60 59 58 58 57 56 55 56 57 56 58 57 56 55 56 57 56 56 56 54 53 54 54 54 47 40 40 39 39 43 55 57 56 56 57 57 58 59 59 57 49
61 60 59 58 57 56 56 55 56 56 57 58 57 57 57 58 58 57 56 56 55 54 50 53 54 50 42 40 39 39 44 54 56 56 56 56 57 56 58 57 57 54
60 59 58 58 57 56 57 56 57 57 56 57 58 59 58 58 58 57 55 55 56 56 54 54 53 53 49 39 40 40 39 49 56 53 53 55 57 55 55 56 56 56

ECMWFNIL_sfc_temp_093.txt.gz
Temp
68 67 66 65 64 64 64 64 63 63 64 65 64 64 64 64 66 65 65 65 65 65 65 65 65 65 65 66 65 66 65 64 64 65 64 64 64 63 62 62 62 63
65 65 65 64 64 63 63 63 62 63 64 64 65 65 65 65 65 65 65 65 65 64 65 65 65 65 65 65 65 64 64 64 63 65 64 63 63 63 62 63 62 63
64 64 63 63 62 62 62 62 63 64 64 64 65 64 64 65 64 65 65 65 64 64 64 64 64 65 65 65 65 64 64 63 63 64 64 63 63 63 63 63 63 63
63 64 64 64 64 63 63 63 64 64 64 64 64 65 65 65 65 65 64 65 64 64 64 64 64 65 65 65 65 64 64 64 64 64 64 64 63 63 62 63 63 63
64 64 65 65 65 65 65 63 63 64 64 64 64 65 65 65 65 65 65 64 65 65 64 64 64 64 64 64 64 63 63 63 64 64 63 63 63 63 62 62 62 61
65 67 66 65 64 64 64 64 64 64 64 63 63 65 65 65 65 65 65 65 64 65 64 64 64 64 64 64 64 63 62 63 63 63 63 62 63 63 62 62 61 61
64 64 64 65 64 64 64 64 64 64 64 64 65 64 65 64 64 65 65 65 65 64 65 64 64 63 63 63 63 62 62 62 63 63 63 62 62 61 62 61 61 61
64 64 64 64 63 64 63 64 64 63 64 64 63 64 65 65 65 64 65 65 64 65 64 64 64 63 63 63 62 62 62 62 62 62 61 61 61 61 61 61 60 60
64 63 64 63 63 63 63 63 63 64 65 64 64 63 65 65 64 64 64 65 65 63 63 63 63 63 62 62 61 62 62 61 61 61 60 60 60 60 61 61 60 59
63 63 63 63 62 63 62 63 64 64 64 64 64 64 63 64 65 65 64 63 63 63 63 62 61 61 61 62 61 62 61 61 62 61 61 61 60 60 60 60 59 58
62 63 62 62 61 62 62 63 63 64 64 64 63 63 64 64 65 65 64 63 61 62 61 61 60 60 60 60 61 61 61 61 61 61 61 61 60 60 59 59 59 58
62 62 61 61 61 61 62 63 63 63 64 64 65 63 63 63 63 63 64 63 62 61 61 60 59 59 58 59 60 61 61 61 61 61 61 61 61 60 60 60 58 58
62 62 62 62 61 62 62 63 63 63 64 63 64 63 63 63 63 62 62 62 61 60 59 58 58 56 55 56 58 60 61 61 60 60 60 59 60 60 59 59 59 59
62 62 62 62 62 63 62 62 62 62 62 63 63 62 63 63 63 62 62 61 60 59 58 58 56 55 53 53 55 56 59 60 60 59 59 59 59 60 60 60 59 59
62 62 63 63 63 62 62 61 62 62 63 63 62 62 62 63 63 63 62 60 60 58 58 56 54 52 51 49 51 54 56 60 59 60 59 59 59 60 60 60 60 59
63 62 63 63 62 62 62 62 62 62 62 62 62 62 62 62 62 62 62 60 58 58 57 54 53 51 45 42 43 48 53 57 60 59 60 59 59 58 59 59 59 59
64 63 63 62 62 62 62 62 62 61 61 61 61 61 60 61 61 60 60 59 58 57 55 54 52 49 41 40 41 40 48 53 59 59 60 59 59 58 58 58 58 59
63 64 63 62 62 62 62 62 62 62 61 61 60 59 60 60 59 59 59 59 58 57 55 54 52 43 40 40 41 40 42 49 58 59 59 59 59 59 59 58 57 56
65 64 63 62 63 62 62 62 62 61 60 60 59 59 59 58 59 58 59 59 57 56 55 54 53 42 41 40 41 40 40 44 59 59 60 59 59 59 59 58 57 56
64 64 63 62 62 62 62 62 61 60 59 60 59 59 58 58 58 57 58 58 58 57 55 54 52 44 40 40 41 39 40 42 60 59 60 59 59 60 59 59 57 56
64 63 62 62 63 62 61 61 60 59 60 60 60 59 59 58 58 57 57 58 58 58 56 53 50 40 40 40 40 40 40 44 60 60 60 60 60 60 60 59 58 56
64 63 62 63 62 62 60 60 59 59 59 60 60 59 59 59 59 59 57 57 58 58 56 54 51 40 40 40 40 40 41 57 60 60 59 60 60 60 61 60 58 57
64 63 62 62 62 61 60 59 59 59 59 61 59 59 58 58 58 58 58 57 57 57 56 55 53 44 40 40 40 40 45 58 59 59 59 59 59 59 61 60 57 58
64 64 62 62 62 61 59 59 60 60 60 61 60 59 58 59 59 58 58 57 56 55 56 55 53 46 40 40 40 40 44 55 58 57 57 58 59 59 60 60 55 49
64 64 63 62 61 60 60 59 59 60 60 61 60 60 60 61 61 59 58 58 57 56 53 55 55 49 42 40 40 41 45 54 57 57 56 55 57 58 59 59 59 54
64 63 62 61 61 60 60 60 60 60 60 60 61 62 61 61 60 59 58 58 58 57 56 56 55 54 49 40 41 41 41 50 56 54 53 54 56 58 56 58 58 58

ECMWFNIL_sfc_temp_096.txt.gz
Temp
65 65 64 63 62 62 62 62 63 63 62 62 60 60 60 61 62 61 61 61 61 61 61 61 61 61 62 61 61 61 60 60 60 60 59 59 59 58 58 58 58 58
63 63 63 62 61 61 61 62 62 62 61 61 61 60 61 61 61 62 61 61 61 61 61 61 61 61 61 61 60 59 59 59 59 62 59 59 58 58 57 57 57 57
62 62 61 60 60 60 60 62 62 61 60 61 61 61 61 62 61 61 61 61 60 60 60 61 61 61 61 61 60 59 59 59 58 59 59 58 58 57 57 57 57 56
62 62 61 61 61 61 62 61 61 61 61 60 60 62 62 62 61 61 61 62 60 60 60 60 60 61 61 61 60 58 59 59 59 59 58 58 58 57 57 57 57 56
62 62 62 62 63 62 62 61 61 61 61 60 61 61 61 61 61 61 60 60 60 60 60 60 60 60 60 59 59 58 58 58 59 58 57 57 57 58 57 57 56 55
63 64 63 63 62 62 61 61 62 61 61 60 60 61 61 61 61 61 61 60 60 61 60 60 60 59 59 59 58 57 57 57 58 58 58 57 57 58 58 57 56 55
62 62 62 63 62 62 61 61 61 61 61 61 62 60 61 61 61 61 61 61 61 60 60 59 59 58 59 58 58 58 57 58 58 58 58 56 57 56 57 56 56 55
62 62 62 62 61 61 60 61 61 60 60 61 60 61 62 61 62 61 61 60 60 60 59 59 59 59 58 58 57 57 57 58 57 57 56 56 56 56 56 56 55 54
62 61 62 61 61 60 60 61 61 61 62 60 60 60 61 61 61 61 60 60 59 58 58 58 58 58 57 58 57 57 57 56 57 56 56 55 55 55 55 55 54 54
61 61 61 60 60 60 60 60 61 61 62 61 61 60 61 60 61 61 60 59 58 58 57 56 56 56 57 58 58 58 57 57 57 56 56 56 56 55 55 55 54 53
60 60 59 59 59 59 59 60 60 61 61 61 61 60 61 61 61 61 59 58 56 56 55 54 54 54 54 55 57 57 57 57 57 57 56 56 55 55 56 54 54 53
59 59 59 59 59 59 59 60 60 61 61 61 62 60 60 60 59 59 59 57 57 56 55 54 53 52 52 53 54 57 57 56 56 56 56 56 55 55 55 55 54 54
59 59 59 59 59 59 60 60 60 60 61 61 61 60 59 59 58 57 57 56 55 54 53 52 51 50 50 50 52 53 54 57 55 55 55 54 55 56 56 55 55 54
59 59 59 60 60 60 60 59 60 59 60 60 61 60 59 59 58 57 56 56 54 53 53 52 51 49 48 48 49 51 51 55 56 54 55 55 55 55 55 55 54 54
59 60 60 60 60 60 59 59 59 59 59 59 59 59 59 59 59 58 56 55 54 53 52 51 49 47 45 44 45 47 50 51 54 56 55 54 54 54 55 54 54 54
60 60 60 59 59 59 59 59 59 59 59 59 59 59 59 59 58 57 56 55 53 52 51 49 48 47 44 42 43 44 46 50 51 55 55 54 54 53 53 53 53 53
60 60 60 59 59 59 59 59 59 59 58 58 58 58 57 57 57 56 55 54 53 52 50 49 48 45 42 40 41 41 45 47 49 53 54 54 54 53 52 52 52 53
60 60 59 59 59 59 59 59 59 58 57 57 56 56 56 57 56 55 54 53 53 52 50 49 47 43 40 41 41 41 42 44 49 54 54 53 53 53 53 53 52 52
61 60 60 59 59 59 59 59 58 58 57 56 56 56 56 56 56 55 54 53 52 51 49 48 47 42 41 41 41 41 41 43 50 54 54 54 53 53 53 53 51 51
61 60 59 59 59 59 59 58 57 56 56 56 56 55 55 55 55 54 54 54 53 51 49 48 46 42 41 41 41 41 41 42 50 55 55 55 54 54 54 52 51 50
60 60 59 59 59 59 58 57 56 56 56 56 56 55 54 54 54 53 54 54 53 52 50 48 46 41 41 41 41 41 41 45 53 56 55 54 54 54 54 53 52 52
60 59 59 59 58 58 57 56 56 56 55 55 55 55 55 54 54 54 54 54 53 52 50 48 46 41 41 41 41 41 43 50 54 54 54 54 53 53 54 53 52 51
60 59 58 58 58 57 56 56 55 55 55 56 55 54 54 53 53 53 54 53 53 53 50 48 47 42 41 41 41 41 44 49 52 53 53 53 53 53 54 53 51 51
60 60 58 58 57 57 56 55 56 56 56 56 55 54 53 54 54 53 53 53 52 52 52 48 46 44 41 41 42 41 44 48 52 51 51 51 51 53 54 52 49 52
60 60 59 58 57 56 56 56 56 56 56 56 56 56 55 55 55 53 52 52 52 51 53 51 48 46 42 41 41 41 44 47 51 50 48 48 49 50 52 53 51 49
59 59 58 58 57 56 56 56 56 56 56 56 55 57 56 56 56 55 53 52 52 52 52 52 50 48 46 43 42 41 41 45 50 48 46 47 48 50 51 51 51 52

ECMWFNIL_sfc_temp_099.txt.gz
Temp
60 60 60 60 60 60 60 59 58 56 55 55 54 54 54 55 56 55 55 56 57 55 55 54 54 54 56 54 54 55 55 54 55 54 53 53 53 53 52 52 51 51
59 60 60 60 59 60 60 59 58 56 54 54 55 54 55 55 55 56 55 55 55 54 54 54 54 54 54 54 53 53 53 53 53 56 53 53 52 52 52 51 51 51
59 59 59 59 59 58 58 58 56 55 54 53 54 54 56 55 55 54 55 54 54 54 54 54 54 54 54 54 53 53 53 52 52 53 53 52 52 52 51 51 51 50
58 58 58 59 59 58 57 56 54 54 53 54 53 55 56 57 54 54 54 56 53 53 53 53 53 54 54 54 53 52 53 52 53 52 52 52 52 52 51 51 51 50
58 58 58 58 58 58 56 55 54 53 53 53 54 54 55 54 54 54 53 52 53 52 53 53 53 52 52 53 53 52 53 51 52 52 51 50 52 52 52 51 49 48
59 59 60 59 57 55 55 54 55 54 54 53 54 55 54 54 53 53 53 53 52 52 52 52 52 52 52 51 52 51 51 51 51 51 51 51 51 51 51 50 49 48
57 58 58 58 57 55 54 54 53 54 53 54 54 53 53 53 54 53 53 53 53 53 52 51 51 51 52 51 51 51 51 51 51 51 51 50 50 50 50 49 49 48
56 56 56 55 55 54 54 54 53 53 53 54 53 53 54 53 53 53 53 52 52 51 51 51 51 51 50 51 51 50 49 52 51 50 50 49 48 48 48 50 48 47
57 56 56 55 54 53 54 54 53 53 54 52 52 53 54 54 53 52 52 51 50 50 49 49 49 49 49 49 50 50 50 50 51 50 49 48 48 48 48 47 47 47
56 55 55 54 53 52 53 52 53 53 54 53 53 53 53 53 53 52 51 50 49 48 48 47 47 47 48 48 49 50 50 50 50 49 49 48 48 48 48 47 46 45
54 54 53 53 52 52 52 53 53 53 53 53 52 52 52 52 52 52 50 49 48 47 46 46 46 46 46 46 48 48 48 49 49 48 47 47 48 49 52 47 46 45
53 53 53 52 52 52 53 53 53 53 53 53 54 52 52 51 50 50 50 48 48 47 46 45 45 44 44 45 45 47 47 47 48 48 48 48 48 48 48 48 46 45
53 53 52 52 53 52 52 53 53 53 54 54 54 52 51 50 49 48 48 48 47 46 45 44 43 43 42 43 44 45 45 46 47 47 47 48 48 49 48 48 48 46
52 52 52 52 52 52 52 52 52 52 52 53 53 52 51 50 49 48 47 47 46 45 45 44 43 42 41 41 42 42 44 45 45 46 47 46 47 48 48 48 48 46
52 52 52 53 53 52 52 52 52 52 52 52 52 52 52 50 49 48 47 46 45 44 44 43 42 41 42 40 40 42 42 44 45 45 47 46 46 46 46 47 46 46
53 53 52 52 52 52 52 51 51 51 51 51 51 51 51 50 49 48 47 45 44 43 43 42 41 42 43 43 43 41 41 43 44 45 47 46 46 45 45 46 46 45
52 52 52 52 51 51 51 51 51 51 50 50 50 50 50 50 48 46 45 45 44 43 42 42 41 42 42 40 41 42 42 41 42 44 47 46 45 45 45 45 45 45
52 52 52 51 51 50 51 51 51 50 50 49 49 49 49 48 47 46 45 44 44 42 41 41 41 42 40 41 41 41 43 42 42 44 47 45 45 45 45 45 44 44
52 52 52 50 51 51 51 51 50 49 49 49 49 49 49 47 46 46 45 44 42 41 40 40 39 42 41 41 41 41 41 43 43 44 46 46 45 44 44 44 44 46
53 52 51 51 51 50 50 50 49 48 48 48 48 48 48 47 46 45 45 43 42 41 39 39 39 42 41 41 41 41 41 44 46 45 46 45 46 45 45 44 44 44
52 51 51 50 50 50 50 49 48 48 48 48 48 47 46 46 46 45 45 44 42 40 40 39 40 41 41 41 41 41 42 44 45 47 47 46 46 46 45 44 43 44
52 51 51 50 50 50 49 49 48 48 47 47 46 45 46 46 46 46 44 43 42 41 40 39 39 41 41 41 41 41 43 45 44 45 45 45 45 46 46 44 43 42
52 51 50 50 50 49 48 47 47 46 46 47 46 45 44 44 44 44 45 43 42 41 39 37 38 40 41 42 41 41 42 42 43 44 43 43 44 45 45 44 44 43
51 51 50 50 49 48 47 47 47 47 47 48 46 45 44 44 45 44 44 44 42 40 41 39 38 41 41 42 41 41 42 41 42 41 41 42 42 44 45 43 44 53
51 51 50 49 48 48 48 47 47 47 48 48 47 46 45 45 45 43 42 42 42 42 48 42 39 42 42 41 41 41 42 39 41 40 40 40 40 42 44 44 43 46
51 51 50 50 49 48 48 47 47 48 48 48 47 47 46 45 45 44 43 42 43 43 44 41 40 41 41 42 42 41 41 40 40 39 40 39 39 43 42 42 42 43

ECMWFNIL_sfc_temp_102.txt.gz
Temp
58 58 57 56 56 57 56 55 54 53 52 52 52 52 52 53 54 53 53 53 54 52 52 52 52 52 53 52 52 52 52 52 52 51 50 50 49 48 48 47 47 46
57 58 58 57 57 58 58 57 55 54 52 52 52 51 53 53 53 53 52 52 52 52 52 52 52 52 51 51 51 50 50 51 51 52 50 49 48 48 47 46 46 46
56 56 56 57 57 57 57 56 55 53 52 51 52 52 53 52 52 52 52 52 51 51 51 52 52 51 51 50 50 50 50 50 49 50 50 48 48 47 46 46 46 45
55 55 56 57 58 57 57 55 52 52 52 52 52 53 53 53 51 51 52 53 50 50 50 51 51 51 51 50 50 50 49 49 49 49 49 48 48 47 46 47 46 45
54 55 56 56 56 56 55 53 51 51 51 50 51 52 52 51 50 50 50 50 50 50 50 50 50 50 50 50 50 49 50 49 49 49 47 46 47 48 47 47 45 45
54 55 56 55 55 55 53 52 51 51 50 50 50 51 50 50 50 50 50 49 49 49 49 49 49 49 49 49 49 48 48 48 48 48 47 46 46 47 47 46 45 44
53 54 54 55 54 54 52 51 51 52 51 50 51 50 50 50 49 49 49 49 48 49 48 47 47 47 48 48 48 48 48 48 47 47 46 45 46 45 45 45 45 44
53 55 55 55 53 52 51 50 50 50 50 51 49 49 50 49 48 48 48 48 47 47 46 47 47 47 46 48 48 48 47 49 47 46 45 45 45 43 43 45 43 43
54 55 54 53 51 50 50 50 50 51 52 50 49 49 49 48 47 47 47 47 46 45 45 45 45 45 46 46 46 47 47 46 47 46 46 45 45 43 43 42 43 43
54 54 53 52 51 50 50 50 50 50 51 50 49 48 48 47 47 46 46 45 45 44 44 44 44 44 45 44 44 44 47 46 45 45 45 45 45 43 42 43 41 41
52 52 51 51 50 50 50 50 49 50 50 49 48 48 47 47 47 46 45 44 44 43 43 42 42 43 43 43 44 43 43 44 44 44 44 45 44 44 48 42 43 41
50 50 50 50 50 49 49 49 50 50 49 49 49 47 46 46 45 45 45 43 43 42 42 41 41 41 41 41 42 42 43 43 43 45 45 45 44 44 43 43 42 41
50 50 50 50 50 49 49 50 50 49 49 48 48 47 45 44 44 43 44 43 42 42 41 41 41 40 40 40 40 41 41 42 43 43 44 44 44 44 43 42 42 41
50 49 50 50 49 49 50 50 49 49 48 48 48 46 45 44 43 43 43 42 42 41 41 41 40 40 39 38 39 39 40 41 41 44 43 43 43 43 44 43 42 42
49 49 49 50 50 49 49 49 49 48 48 48 47 46 46 44 43 43 42 41 40 40 40 40 40 40 40 39 38 39 39 40 41 42 43 42 42 43 43 44 43 43
49 49 49 49 49 49 48 48 48 48 48 47 46 45 45 44 43 43 41 41 40 39 39 40 40 40 43 43 43 41 39 40 42 42 43 42 43 42 43 43 42 42
49 49 49 49 48 48 48 48 48 48 47 46 45 45 44 44 43 41 40 40 40 39 38 39 39 41 42 40 40 43 42 40 41 40 42 42 42 41 42 43 41 41
49 49 49 48 48 48 48 48 48 47 46 45 44 43 43 42 41 40 40 39 39 38 38 39 39 43 40 41 41 41 44 41 41 41 42 42 43 41 42 41 40 41
49 49 48 47 47 47 48 48 47 46 45 45 44 44 42 41 40 40 39 38 39 38 38 38 38 42 40 41 41 42 43 44 42 42 43 40 42 42 40 40 41 42
49 49 47 47 47 47 47 47 46 45 45 45 45 43 41 40 39 39 38 38 38 38 37 37 38 42 40 41 42 41 42 43 42 41 41 41 40 40 41 40 39 41
49 48 47 47 47 47 46 46 45 44 45 44 44 43 41 40 39 38 38 39 37 36 38 38 39 41 40 41 41 41 41 42 40 41 41 40 40 41 40 40 39 40
49 47 47 46 46 46 46 45 44 44 44 44 43 42 41 40 39 39 38 37 37 36 37 37 38 40 40 41 41 41 42 42 39 40 39 39 40 40 40 39 39 39
49 48 47 46 46 46 45 44 44 43 43 44 43 41 40 40 40 39 39 38 37 37 37 35 37 40 40 41 41 40 41 39 38 39 39 38 38 39 40 39 39 40
49 48 47 47 46 46 45 44 43 43 43 45 43 41 41 40 40 39 38 38 38 36 37 37 37 41 41 40 40 40 41 37 38 38 37 37 37 38 39 38 40 50
49 48 48 47 46 45 45 44 43 44 43 43 42 42 42 41 42 40 38 37 37 37 47 39 36 41 41 40 40 41 39 36 37 37 38 35 37 38 38 39 39 42
49 49 48 47 46 45 44 44 44 43 42 42 42 42 42 41 42 41 39 38 39 40 42 37 37 38 40 41 40 40 41 37 36 37 37 35 35 38 39 37 37 39

ECMWFNIL_sfc_temp_105.txt.gz
Temp
57 56 55 55 54 54 53 52 52 51 50 49 50 49 49 50 51 51 51 51 51 51 51 51 51 51 51 51 50 50 49 48 48 47 47 47 46 45 45 44 44 44
56 56 57 55 54 54 53 53 53 52 50 49 50 49 50 50 50 51 51 50 51 50 50 50 50 50 50 50 49 49 48 48 47 49 46 45 45 44 44 43 43 43
55 55 55 54 54 53 54 54 54 52 50 49 49 50 50 50 50 50 50 50 50 50 50 50 50 50 50 49 49 49 48 47 46 46 46 44 44 44 43 43 43 43
55 55 55 55 55 55 56 55 53 51 50 50 49 50 50 51 50 49 50 51 49 49 49 49 49 49 49 49 48 48 47 46 46 46 45 45 45 44 43 44 44 43
54 54 55 55 56 56 56 55 53 51 49 48 48 49 50 49 48 48 48 48 49 48 49 48 48 48 49 48 48 47 47 46 45 45 44 43 44 45 44 44 42 42
53 54 54 54 54 55 55 53 52 50 48 48 47 49 47 48 48 48 48 47 47 48 47 47 47 47 48 47 46 46 45 45 45 44 44 43 43 44 44 43 42 41
52 52 52 53 54 55 53 51 50 49 48 48 48 47 47 47 47 47 47 47 47 47 46 46 47 47 47 47 46 45 45 44 44 44 43 43 44 42 43 42 42 41
52 52 52 53 53 52 51 50 48 48 48 48 47 46 47 47 46 46 46 46 46 45 45 46 46 46 46 46 46 45 45 46 44 44 42 42 42 41 41 43 40 39
52 51 52 52 51 50 49 48 48 47 48 47 46 45 46 46 45 45 45 45 45 45 45 45 45 45 45 46 45 45 44 44 44 43 43 42 42 40 40 39 39 39
51 51 51 51 49 48 48 47 47 47 47 46 45 45 45 45 45 45 45 44 44 44 44 43 44 43 43 43 44 45 45 44 43 43 42 42 41 41 40 39 38 38
50 50 50 49 48 48 47 47 47 46 47 46 45 44 44 44 44 44 44 44 43 43 42 42 42 42 42 42 42 42 43 44 43 42 42 41 41 41 45 39 40 38
49 50 49 48 48 47 47 47 47 46 45 45 45 43 43 43 43 43 44 42 41 41 41 40 40 40 40 40 41 41 42 43 43 43 42 41 41 41 40 39 39 38
49 50 49 48 47 47 47 46 46 45 45 44 44 43 42 42 41 41 42 41 40 40 40 40 39 39 39 39 40 40 42 42 42 41 41 41 40 41 40 39 38 38
49 49 48 47 47 47 47 46 45 45 44 44 44 42 41 41 41 41 41 41 40 40 40 40 39 39 37 38 39 40 42 41 41 41 41 40 40 40 40 39 38 39
48 48 48 48 48 47 46 45 45 44 44 44 43 42 42 40 40 40 40 39 38 39 39 39 40 39 39 38 39 38 38 41 41 42 41 40 40 39 39 39 40 39
48 48 47 47 47 46 45 45 44 44 43 42 42 41 40 40 39 40 39 39 39 38 38 39 39 40 43 44 45 39 38 39 41 40 40 40 41 40 39 40 41 39
48 47 47 47 46 46 45 45 44 43 42 42 41 41 40 41 39 38 38 38 38 38 38 39 38 40 42 40 40 43 39 39 40 39 40 40 40 39 39 41 41 38
48 47 47 46 46 45 45 44 44 43 42 41 40 40 40 39 38 37 37 36 37 37 37 38 38 43 40 41 41 42 45 41 39 40 41 39 39 38 39 40 38 36
47 47 46 45 45 45 45 44 43 42 41 41 39 40 39 38 36 37 36 36 37 37 37 37 37 42 41 41 41 41 42 42 39 38 41 39 37 38 38 38 39 39
48 47 46 45 45 45 44 43 43 42 41 41 40 39 37 37 35 36 35 36 36 37 36 36 37 42 41 41 41 41 41 42 39 39 39 38 38 37 38 37 37 36
47 46 45 45 45 45 44 43 42 41 41 41 39 38 37 37 36 35 36 37 36 35 37 36 38 41 40 41 41 41 41 41 39 40 39 37 37 37 37 37 36 36
48 47 46 45 45 44 43 42 41 41 40 40 39 37 36 36 35 36 36 35 35 35 37 34 36 40 39 40 40 40 41 41 38 39 38 37 37 37 37 36 36 36
49 48 47 46 45 44 43 42 41 40 40 40 38 36 36 36 35 35 35 35 35 36 36 34 35 39 39 40 39 39 40 39 38 38 37 36 36 37 36 36 37 40
50 49 47 46 45 44 43 42 42 41 40 41 39 37 36 36 35 35 34 35 35 34 37 37 36 39 40 40 39 39 40 37 37 37 34 35 35 36 35 34 36 48
50 49 48 47 46 44 43 42 41 42 41 41 39 38 38 36 38 36 34 34 34 35 45 39 36 40 40 39 40 40 39 35 37 36 36 33 33 34 34 35 35 40
50 50 48 48 46 43 43 42 42 41 40 40 39 38 38 37 38 37 36 35 36 39 40 38 38 38 39 39 40 40 40 36 35 36 36 35 33 37 36 35 34 36

ECMWFNIL_sfc_temp_108.txt.gz
Temp
58 58 57 56 55 54 53 51 51 50 50 50 50 50 50 51 52 51 51 51 51 50 51 50 51 50 50 49 49 49 48 47 47 47 47 46 46 45 44 44 44 44
58 57 57 55 54 53 53 53 52 52 51 51 50 50 50 50 51 51 50 50 51 50 50 50 50 49 49 49 48 48 48 47 47 48 46 45 45 45 44 44 44 44
57 56 55 55 54 53 54 54 54 53 52 50 50 50 50 50 49 50 50 50 49 49 49 49 49 49 49 49 48 48 47 46 46 46 46 45 45 44 44 44 44 43
56 56 56 56 55 55 55 54 53 52 52 50 50 50 50 51 50 50 50 51 49 49 49 49 49 49 49 48 48 47 47 46 46 46 46 46 45 45 44 45 44 43
56 56 56 56 56 56 55 54 53 52 51 49 49 50 50 49 49 49 49 49 49 48 49 48 48 48 48 48 48 47 47 46 46 46 45 45 45 45 45 44 43 42
56 57 57 56 56 55 55 54 53 52 50 49 48 49 48 48 48 48 48 48 48 48 48 48 48 48 48 47 47 46 46 46 45 46 45 44 44 44 44 43 43 42
54 55 55 56 55 55 54 53 52 50 48 48 48 47 48 48 48 48 48 48 48 49 48 47 47 47 47 47 46 45 45 45 45 45 45 44 45 43 44 43 43 42
53 53 54 54 54 53 52 52 50 49 48 48 47 47 48 47 47 47 47 47 48 47 47 47 47 47 47 47 46 45 45 46 45 44 44 43 43 43 43 43 42 42
52 52 53 53 52 52 51 50 49 48 48 47 46 46 47 47 46 46 47 47 47 46 47 47 47 47 46 46 46 46 45 45 45 44 44 43 43 42 42 42 42 42
51 51 52 52 51 51 50 49 48 47 48 46 46 46 46 46 46 46 46 46 46 46 46 46 46 46 46 46 46 46 45 45 44 44 44 44 43 43 43 43 42 42
50 50 50 50 50 49 48 48 47 46 47 46 45 45 45 45 46 46 46 46 45 45 45 45 45 45 45 45 45 45 45 45 44 44 44 43 43 44 45 43 43 43
49 49 48 48 49 48 47 47 46 46 46 46 46 44 44 44 44 45 46 44 44 44 44 44 44 44 45 45 45 45 44 44 44 44 44 44 44 43 42 43 43 43
49 48 48 48 47 46 46 46 46 45 46 45 45 44 44 43 43 43 44 43 43 43 43 43 42 43 43 43 44 44 44 44 44 43 43 43 43 43 42 42 42 42
48 48 48 47 47 47 46 45 45 45 44 45 45 43 43 43 43 43 43 43 42 42 42 42 42 42 41 42 44 44 44 44 44 44 44 43 42 43 43 43 42 42
48 48 48 48 47 46 45 44 44 44 44 44 44 43 43 42 42 42 42 41 41 41 42 42 42 42 42 43 43 43 44 44 44 44 44 43 43 43 42 43 43 42
48 48 47 47 46 45 44 44 43 43 43 42 42 42 41 41 41 42 42 42 41 41 41 42 42 43 46 45 45 44 43 44 44 43 44 44 44 43 43 43 43 40
48 47 47 46 45 44 44 44 43 43 42 41 41 41 41 42 41 41 41 41 42 41 41 41 41 43 43 41 42 43 44 44 44 43 43 43 43 43 44 45 44 42
48 47 46 45 45 44 44 43 43 42 41 41 40 40 41 41 40 40 40 40 40 40 40 41 42 44 40 41 41 42 45 44 44 44 43 42 42 43 44 44 43 42
48 47 46 45 45 44 44 43 42 42 41 41 40 40 40 40 39 39 39 39 40 40 41 42 42 42 40 41 41 41 42 43 44 44 44 42 42 42 42 43 42 43
49 47 46 45 45 44 43 42 42 41 41 41 41 40 39 38 38 38 38 39 40 40 39 39 41 42 40 41 41 40 40 42 42 43 43 43 42 42 43 42 41 42
49 48 46 45 45 44 43 42 41 40 40 41 40 39 39 38 38 38 39 39 39 38 40 40 41 41 40 40 40 40 40 41 42 42 42 41 41 41 42 41 40 39
49 47 46 45 44 44 43 42 41 41 40 40 39 38 37 38 37 38 39 38 38 39 40 38 39 39 39 40 40 40 41 42 41 42 42 41 41 41 41 40 40 40
49 47 46 45 45 44 43 42 41 40 40 41 38 37 37 37 38 38 38 37 38 39 39 38 39 40 39 40 40 40 41 41 41 41 41 41 41 41 40 40 40 43
49 48 47 46 45 44 43 43 42 42 41 42 39 38 37 37 38 37 36 37 38 38 40 39 39 40 39 39 40 40 42 41 41 41 40 41 41 40 39 39 41 48
49 48 48 46 46 45 44 43 42 42 42 41 39 39 38 37 39 37 36 36 37 38 44 41 38 41 39 39 39 40 40 40 40 41 40 39 39 42 39 38 39 41
50 49 48 47 46 45 45 44 43 42 41 40 39 39 38 37 38 37 37 37 38 41 42 40 40 40 41 39 39 39 39 39 39 41 41 38 37 42 43 38 38 39

ECMWFNIL_sfc_temp_111.txt.gz
Temp
63 64 63 63 62 61 60 60 61 61 61 62 61 61 60 60 61 60 59 60 59 59 58 58 58 57 57 57 57 57 57 55 55 55 55 55 54 54 53 53 53 54
62 62 63 62 60 59 59 60 60 60 60 60 61 60 60 60 60 60 59 59 59 58 58 58 58 58 57 57 56 56 56 55 54 56 54 54 54 54 53 53 53 54
61 60 60 58 57 58 58 59 59 59 59 59 60 60 59 60 59 60 59 59 58 58 57 57 57 57 57 57 57 56 55 55 54 55 55 54 54 54 53 54 53 53
61 60 58 58 58 58 59 59 59 58 58 59 59 60 60 59 59 59 59 59 58 57 57 57 57 58 58 57 56 56 56 56 56 56 55 55 54 54 54 54 53 53
59 59 58 58 59 59 59 59 59 59 59 59 59 60 60 59 59 59 59 58 58 58 57 57 57 57 57 57 57 55 55 55 56 56 55 54 54 54 54 54 53 52
59 59 59 58 58 59 59 59 60 59 59 59 59 60 60 60 60 59 59 58 58 58 57 57 57 57 57 57 56 56 56 55 55 56 55 54 54 54 54 54 53 53
57 58 58 59 59 59 60 59 59 59 60 60 60 59 60 59 59 60 60 59 59 58 58 57 57 56 57 57 56 55 56 55 56 56 55 54 54 53 54 54 54 54
58 59 60 60 59 59 59 59 58 58 59 59 59 59 60 60 60 59 59 59 59 59 58 58 58 57 57 57 56 55 55 55 55 56 55 54 54 54 54 54 54 54
59 60 61 60 60 59 58 58 58 58 60 59 58 58 60 60 59 59 59 60 59 58 59 58 58 58 57 57 56 56 56 55 55 56 55 54 53 54 54 54 54 53
59 61 61 60 59 59 57 57 57 58 59 59 59 58 58 59 59 60 59 59 58 58 58 58 58 57 57 58 57 57 56 56 56 56 55 55 54 55 55 55 54 53
59 60 60 59 58 58 56 56 57 58 59 59 58 58 58 58 59 60 59 59 57 58 58 58 58 58 58 57 57 57 57 56 56 56 55 55 55 54 54 55 54 54
58 59 59 58 57 56 56 56 57 58 58 58 59 58 58 58 58 59 60 60 60 59 59 59 59 59 59 58 58 57 57 57 56 56 56 56 55 55 55 55 54 55
58 58 58 58 57 56 56 57 57 57 58 58 58 58 57 57 58 58 59 60 59 59 58 58 58 59 58 58 58 58 57 57 56 55 55 55 56 56 56 55 55 55
57 57 58 58 57 57 56 57 57 57 58 58 58 57 57 58 57 57 57 59 58 59 59 58 58 58 58 58 58 58 57 57 56 55 55 55 55 55 55 55 55 55
56 56 57 57 57 56 56 56 57 57 56 57 57 57 57 58 58 57 57 57 57 57 57 58 58 57 58 57 57 57 58 57 56 56 55 55 55 55 55 55 56 55
56 55 56 56 56 56 56 56 56 55 55 56 56 56 56 56 57 57 57 56 56 57 57 56 57 57 53 49 51 57 57 57 56 56 56 56 55 54 54 55 55 55
55 55 55 55 56 56 55 55 55 55 55 55 55 54 54 54 55 56 56 57 57 56 55 56 56 55 45 43 44 47 55 57 56 56 56 56 56 55 54 54 55 56
55 55 55 54 55 55 55 56 55 55 54 54 53 53 53 54 54 55 56 56 56 57 56 56 56 48 41 42 42 43 49 57 57 56 55 56 56 56 56 56 55 55
55 54 54 53 54 54 55 55 55 54 54 53 53 53 53 53 54 54 54 55 55 56 56 56 56 43 41 41 42 42 43 51 58 57 56 56 56 56 56 56 56 56
53 53 53 53 54 54 53 54 53 54 53 53 53 52 52 53 53 53 53 54 55 56 55 56 56 44 40 41 41 41 41 46 59 57 57 57 56 56 55 55 55 55
53 52 52 52 52 53 53 53 53 52 52 52 52 52 52 52 52 52 53 53 54 55 55 54 54 41 40 40 40 41 40 45 58 56 57 57 57 56 56 55 55 55
53 52 51 51 50 50 51 51 51 51 50 50 51 51 53 53 53 53 52 52 53 54 55 54 52 39 40 40 40 40 40 54 57 56 56 57 56 56 56 56 56 55
53 52 51 50 49 48 49 49 48 48 49 50 50 50 50 50 51 51 52 51 51 53 54 54 52 42 39 40 40 39 46 58 56 57 57 56 55 55 56 55 55 56
53 53 51 50 49 48 47 47 48 49 49 50 49 48 48 49 50 50 50 50 50 51 54 54 53 45 39 40 40 40 49 57 57 57 55 55 54 54 56 55 54 48
52 51 50 50 49 48 47 47 48 49 50 50 49 49 49 49 49 49 48 49 50 51 49 53 53 47 39 39 40 40 49 57 57 56 54 54 54 53 54 55 54 51
50 50 49 49 49 48 48 49 50 50 49 49 48 50 50 49 48 49 48 48 48 50 50 53 52 51 46 38 40 40 43 56 57 55 54 52 54 54 53 54 55 55

ECMWFNIL_sfc_temp_114.txt.gz
Temp
69 70 70 71 71 71 70 70 70 69 69 70 70 69 68 67 68 67 66 66 66 65 65 65 65 65 65 65 65 65 64 63 63 63 62 62 62 61 61 61 61 63
69 70 71 71 71 70 68 68 69 69 68 68 69 68 68 67 67 67 66 65 66 65 65 65 65 65 65 65 64 63 63 62 61 63 62 61 62 61 60 60 61 62
70 70 70 70 69 67 66 66 67 67 67 68 68 67 67 67 66 67 66 66 65 64 64 65 65 65 64 64 64 64 63 62 61 63 62 61 62 61 61 61 61 61
70 70 70 70 68 65 65 66 66 67 67 67 68 67 67 66 66 66 65 65 65 64 64 64 64 65 65 64 64 63 63 63 63 63 62 62 62 62 61 61 61 61
69 69 69 69 68 66 66 66 67 67 68 67 67 67 66 66 66 66 65 65 65 64 64 64 64 64 64 64 64 62 62 62 62 63 62 61 61 61 61 61 60 60
68 70 70 68 67 67 67 67 68 68 68 66 66 67 67 67 67 66 65 65 65 64 64 64 64 64 64 64 63 63 63 62 62 62 62 61 61 62 61 61 61 60
66 67 67 66 66 68 68 68 67 68 68 67 68 66 67 67 66 67 67 66 66 65 65 64 63 63 64 63 63 62 62 62 63 63 62 61 61 60 61 61 61 61
66 66 66 65 65 66 66 67 68 68 67 68 66 67 68 68 68 67 67 66 66 66 65 65 64 64 64 64 63 61 61 62 62 63 62 61 61 61 60 61 60 61
66 65 64 65 66 66 66 67 67 67 68 67 67 67 68 68 67 67 67 67 66 65 66 65 65 64 64 63 62 62 62 62 62 62 61 60 60 60 61 61 60 60
66 65 64 66 66 67 66 67 67 67 68 68 68 67 67 67 68 68 67 66 65 66 66 65 64 63 63 64 64 63 63 62 63 62 62 62 61 62 61 61 60 59
64 64 65 66 67 67 66 67 67 68 68 68 67 67 68 67 67 68 67 66 64 65 65 65 64 64 64 64 63 63 63 62 63 63 62 62 61 61 60 61 60 60
63 64 65 66 66 66 66 67 67 67 67 67 68 67 67 67 67 67 68 67 67 67 66 66 65 65 65 64 64 63 63 62 62 62 62 62 62 61 61 61 60 61
64 66 66 65 65 65 66 67 67 67 67 68 68 67 66 66 66 67 67 67 67 66 66 65 65 65 64 64 64 64 63 62 61 61 61 61 62 62 62 61 61 61
66 67 66 64 65 66 67 67 67 67 67 67 67 66 66 67 66 66 66 67 66 66 66 65 65 65 65 65 64 63 63 62 62 61 61 60 60 61 61 61 61 61
67 67 66 65 65 66 66 66 67 67 67 67 66 66 66 67 67 67 66 66 66 65 66 65 64 63 64 64 63 63 63 62 62 62 61 60 60 60 61 61 61 61
67 66 66 65 65 64 66 66 67 66 66 66 66 66 66 66 67 66 66 65 65 65 65 63 63 63 59 53 56 63 63 62 61 61 61 61 60 59 60 60 60 60
66 65 65 64 64 64 64 65 66 65 65 65 65 65 64 65 65 65 65 65 65 64 63 62 62 62 48 47 48 52 61 62 61 61 62 61 61 60 59 59 60 61
64 64 64 63 63 63 63 65 64 64 64 65 64 63 63 64 63 64 64 64 64 64 62 62 63 51 45 44 45 47 52 62 62 61 61 61 61 61 61 61 60 60
64 63 63 63 64 64 63 63 63 63 64 63 63 63 63 62 63 63 63 64 63 63 62 62 63 46 44 43 44 44 44 52 64 62 61 61 61 61 62 61 61 60
62 63 62 62 63 63 62 62 62 63 63 63 63 63 62 62 62 62 63 63 63 63 62 63 62 46 43 42 43 41 43 46 65 61 62 62 61 61 61 61 60 61
62 62 62 63 62 62 61 62 62 62 62 63 62 61 61 61 61 61 61 62 62 63 62 61 61 43 42 41 42 41 42 44 63 61 62 62 61 61 61 60 60 60
62 62 62 61 60 60 60 61 61 61 60 61 61 62 62 62 61 61 60 60 61 61 61 61 57 41 42 41 41 41 40 55 61 61 61 62 61 61 61 61 61 60
62 61 60 59 59 58 58 59 59 59 60 61 60 61 60 60 59 59 60 60 60 61 60 61 57 44 40 40 41 40 45 59 61 62 62 61 61 61 61 61 60 61
62 62 60 58 58 58 58 58 58 59 59 60 60 59 58 59 60 60 61 61 60 59 60 60 59 47 39 40 40 39 48 59 60 61 61 61 61 61 62 61 59 51
61 61 60 59 58 59 59 58 58 58 59 58 57 57 56 58 59 59 59 60 60 60 56 58 59 49 39 40 40 40 48 59 61 61 59 59 59 59 60 60 59 55
58 57 56 56 57 58 59 59 59 58 57 57 56 57 57 58 58 59 58 58 59 59 58 59 59 56 48 39 40 40 42 58 61 59 58 57 57 58 58 59 59 59

ECMWFNIL_sfc_temp_117.txt.gz
Temp
71 73 72 72 71 71 71 72 72 71 72 72 70 70 70 70 71 70 69 69 68 68 68 68 68 67 68 68 68 67 67 66 66 66 65 65 65 64 64 65 65 65
72 73 73 72 71 72 73 74 74 73 72 71 71 70 70 70 71 70 69 68 68 68 68 68 68 68 68 68 67 66 65 65 64 66 64 64 64 64 63 64 64 65
72 72 72 72 71 72 73 72 72 72 72 72 71 70 69 70 69 69 68 68 68 67 67 68 68 68 67 67 67 66 65 65 64 66 65 64 65 64 64 64 64 64
72 72 73 73 73 72 72 71 70 71 71 70 71 70 70 69 69 68 68 68 67 67 67 67 67 68 68 67 66 66 66 65 65 65 64 65 65 65 64 64 64 64
72 73 74 73 73 73 71 70 70 70 70 70 70 70 69 69 68 68 67 67 67 67 67 67 67 67 67 67 67 65 65 65 65 65 65 64 64 64 64 64 63 63
73 74 74 74 73 71 70 71 71 71 70 69 68 69 69 69 69 68 68 67 67 67 67 67 67 67 67 66 66 65 65 65 65 65 65 64 64 64 64 64 63 63
72 73 73 73 71 71 70 70 70 70 70 70 70 69 69 69 69 69 69 68 68 68 68 66 66 66 66 66 66 65 65 65 65 66 65 64 63 63 65 64 64 64
72 73 74 72 70 70 70 71 72 70 70 70 69 69 70 70 70 69 69 69 69 69 68 68 67 67 67 66 65 64 64 65 65 66 64 64 63 63 63 64 63 63
73 72 73 71 69 69 70 71 70 70 71 70 70 69 70 71 70 69 69 70 69 68 68 68 67 67 66 66 65 65 65 64 65 65 64 63 63 63 64 63 63 62
72 71 69 69 68 68 69 70 70 69 70 70 70 70 70 70 70 70 69 69 68 68 68 68 67 66 66 66 66 66 65 65 65 64 64 64 64 64 64 64 63 61
71 70 68 68 67 68 68 69 70 70 71 72 70 69 70 69 70 71 69 69 67 68 68 67 67 67 66 66 66 66 66 65 65 65 65 65 64 64 63 64 63 62
68 68 67 67 68 68 68 69 69 70 73 70 71 70 69 69 69 69 70 70 70 70 69 68 68 67 67 67 66 66 65 65 65 65 64 64 64 64 64 64 63 63
66 66 67 68 68 68 69 70 70 70 71 70 71 70 69 69 69 69 69 70 70 69 68 68 68 67 67 66 66 66 65 65 64 64 64 64 64 64 64 64 63 63
66 67 68 69 69 69 69 70 70 70 70 70 70 69 69 70 69 69 69 70 69 69 69 68 67 67 67 67 67 66 65 64 64 63 63 63 63 63 63 63 63 63
67 68 70 70 69 69 69 70 70 70 70 70 69 69 69 70 70 70 69 69 69 68 68 68 67 66 66 66 65 65 65 64 64 64 63 62 62 63 63 63 63 62
68 68 70 69 68 69 70 70 70 69 70 69 69 69 69 69 69 69 69 68 67 68 67 66 65 66 61 57 59 65 64 65 63 63 63 63 62 61 62 62 62 60
69 69 70 68 69 69 69 70 70 70 69 68 68 68 68 68 68 68 68 68 68 67 65 65 65 63 47 46 47 54 64 63 63 63 63 63 62 61 61 61 61 61
68 69 68 68 69 70 69 70 70 71 69 67 67 67 67 67 67 67 67 67 67 67 65 64 64 51 45 45 48 45 49 62 64 63 62 63 63 62 62 61 61 61
68 69 69 68 69 68 68 68 71 69 66 66 66 66 66 66 66 66 66 67 66 66 64 65 62 47 45 45 45 48 45 52 66 64 63 63 63 62 62 62 62 61
69 69 68 68 68 67 66 68 69 67 66 66 65 65 65 65 65 65 66 65 66 65 64 65 61 48 45 44 44 44 46 48 65 63 63 63 62 63 62 62 62 62
69 68 67 67 67 66 65 67 71 66 65 65 65 64 64 64 64 64 65 65 65 65 64 63 58 45 45 44 43 44 43 47 63 62 62 62 61 61 61 60 60 62
68 68 67 66 66 65 65 64 64 64 64 64 64 64 64 64 64 64 64 64 64 64 63 62 55 43 44 44 43 44 42 58 61 61 61 61 60 61 62 62 62 61
68 67 66 66 66 64 64 63 63 63 63 64 62 59 60 62 62 63 63 63 62 63 62 61 56 46 43 43 43 42 47 59 60 61 61 60 60 61 62 63 62 62
68 68 65 65 65 63 63 63 63 64 63 63 61 61 59 59 61 62 62 62 62 62 62 60 56 49 42 43 43 41 49 57 59 60 60 59 60 61 62 62 62 56
68 67 65 64 64 64 63 63 63 62 63 62 62 62 60 61 61 58 57 59 61 61 58 60 58 50 42 42 42 41 49 57 58 60 59 60 61 61 62 62 61 58
67 66 65 64 64 63 63 62 62 61 61 61 61 61 59 60 60 60 59 60 60 61 60 62 59 55 48 41 42 41 43 56 59 60 60 60 61 62 60 61 62 61